<?xml version="1.0" encoding="UTF-8" standalone="no" ?>
<gpx xmlns="http://www.topografix.com/GPX/1/1" xmlns:xsi="http://www.w3.org/2001/XMLSchema-instance" xsi:schemaLocation="http://www.topografix.com/GPX/1/1 http://www.topografix.com/GPX/1/1/gpx.xsd" version="1.1" creator="VisuGPX - https://www.visugpx.com">
  <metadata>
    <name>Rando servance 2019</name>
  </metadata>
  <trk>
    <name><![CDATA[20190818_084553.gpx]]></name>
    <trkseg>
      <trkpt lat="47.83609" lon="6.66714">
        <ele>687</ele>
        <time>2019-08-18T06:45:53Z</time>
      </trkpt>
      <trkpt lat="47.83605" lon="6.66696">
        <ele>686</ele>
        <time>2019-08-18T06:45:58Z</time>
      </trkpt>
      <trkpt lat="47.83603" lon="6.6668">
        <ele>691</ele>
        <time>2019-08-18T06:46:03Z</time>
      </trkpt>
      <trkpt lat="47.83608" lon="6.66649">
        <ele>692</ele>
        <time>2019-08-18T06:46:11Z</time>
      </trkpt>
      <trkpt lat="47.83593" lon="6.66615">
        <ele>687</ele>
        <time>2019-08-18T06:46:18Z</time>
      </trkpt>
      <trkpt lat="47.83576" lon="6.66613">
        <ele>687</ele>
        <time>2019-08-18T06:46:23Z</time>
      </trkpt>
      <trkpt lat="47.83563" lon="6.66632">
        <ele>680</ele>
        <time>2019-08-18T06:46:28Z</time>
      </trkpt>
      <trkpt lat="47.83544" lon="6.66663">
        <ele>678</ele>
        <time>2019-08-18T06:46:33Z</time>
      </trkpt>
      <trkpt lat="47.83521" lon="6.66688">
        <ele>674</ele>
        <time>2019-08-18T06:46:38Z</time>
      </trkpt>
      <trkpt lat="47.83481" lon="6.66685">
        <ele>668</ele>
        <time>2019-08-18T06:46:43Z</time>
      </trkpt>
      <trkpt lat="47.83453" lon="6.66663">
        <ele>666</ele>
        <time>2019-08-18T06:46:48Z</time>
      </trkpt>
      <trkpt lat="47.83439" lon="6.66655">
        <ele>666</ele>
        <time>2019-08-18T06:46:53Z</time>
      </trkpt>
      <trkpt lat="47.83432" lon="6.66641">
        <ele>666</ele>
        <time>2019-08-18T06:46:58Z</time>
      </trkpt>
      <trkpt lat="47.83421" lon="6.66633">
        <ele>667</ele>
        <time>2019-08-18T06:47:03Z</time>
      </trkpt>
      <trkpt lat="47.8341" lon="6.66609">
        <ele>668</ele>
        <time>2019-08-18T06:47:10Z</time>
      </trkpt>
      <trkpt lat="47.83411" lon="6.66588">
        <ele>668</ele>
        <time>2019-08-18T06:47:15Z</time>
      </trkpt>
      <trkpt lat="47.83404" lon="6.66571">
        <ele>669</ele>
        <time>2019-08-18T06:47:20Z</time>
      </trkpt>
      <trkpt lat="47.83396" lon="6.66557">
        <ele>673</ele>
        <time>2019-08-18T06:47:25Z</time>
      </trkpt>
      <trkpt lat="47.83393" lon="6.66542">
        <ele>676</ele>
        <time>2019-08-18T06:47:30Z</time>
      </trkpt>
      <trkpt lat="47.83392" lon="6.66528">
        <ele>680</ele>
        <time>2019-08-18T06:47:35Z</time>
      </trkpt>
      <trkpt lat="47.83389" lon="6.66511">
        <ele>681</ele>
        <time>2019-08-18T06:47:40Z</time>
      </trkpt>
      <trkpt lat="47.83387" lon="6.66489">
        <ele>681</ele>
        <time>2019-08-18T06:47:45Z</time>
      </trkpt>
      <trkpt lat="47.83382" lon="6.6647">
        <ele>681</ele>
        <time>2019-08-18T06:47:50Z</time>
      </trkpt>
      <trkpt lat="47.8338" lon="6.66448">
        <ele>682</ele>
        <time>2019-08-18T06:47:55Z</time>
      </trkpt>
      <trkpt lat="47.83383" lon="6.66428">
        <ele>685</ele>
        <time>2019-08-18T06:48:00Z</time>
      </trkpt>
      <trkpt lat="47.83381" lon="6.66411">
        <ele>687</ele>
        <time>2019-08-18T06:48:05Z</time>
      </trkpt>
      <trkpt lat="47.83374" lon="6.66388">
        <ele>688</ele>
        <time>2019-08-18T06:48:10Z</time>
      </trkpt>
      <trkpt lat="47.83371" lon="6.66358">
        <ele>692</ele>
        <time>2019-08-18T06:48:15Z</time>
      </trkpt>
      <trkpt lat="47.8337" lon="6.66327">
        <ele>693</ele>
        <time>2019-08-18T06:48:20Z</time>
      </trkpt>
      <trkpt lat="47.83366" lon="6.66303">
        <ele>694</ele>
        <time>2019-08-18T06:48:25Z</time>
      </trkpt>
      <trkpt lat="47.83355" lon="6.66277">
        <ele>693</ele>
        <time>2019-08-18T06:48:30Z</time>
      </trkpt>
      <trkpt lat="47.83342" lon="6.66256">
        <ele>693</ele>
        <time>2019-08-18T06:48:35Z</time>
      </trkpt>
      <trkpt lat="47.83327" lon="6.66238">
        <ele>695</ele>
        <time>2019-08-18T06:48:40Z</time>
      </trkpt>
      <trkpt lat="47.8331" lon="6.66228">
        <ele>695</ele>
        <time>2019-08-18T06:48:45Z</time>
      </trkpt>
      <trkpt lat="47.83292" lon="6.66236">
        <ele>693</ele>
        <time>2019-08-18T06:48:50Z</time>
      </trkpt>
      <trkpt lat="47.83271" lon="6.66239">
        <ele>690</ele>
        <time>2019-08-18T06:48:55Z</time>
      </trkpt>
      <trkpt lat="47.83254" lon="6.66224">
        <ele>690</ele>
        <time>2019-08-18T06:49:00Z</time>
      </trkpt>
      <trkpt lat="47.83255" lon="6.66199">
        <ele>689</ele>
        <time>2019-08-18T06:49:05Z</time>
      </trkpt>
      <trkpt lat="47.83254" lon="6.66167">
        <ele>688</ele>
        <time>2019-08-18T06:49:10Z</time>
      </trkpt>
      <trkpt lat="47.83251" lon="6.6614">
        <ele>685</ele>
        <time>2019-08-18T06:49:15Z</time>
      </trkpt>
      <trkpt lat="47.83236" lon="6.66127">
        <ele>682</ele>
        <time>2019-08-18T06:49:20Z</time>
      </trkpt>
      <trkpt lat="47.83238" lon="6.66102">
        <ele>681</ele>
        <time>2019-08-18T06:49:25Z</time>
      </trkpt>
      <trkpt lat="47.8324" lon="6.66077">
        <ele>679</ele>
        <time>2019-08-18T06:49:30Z</time>
      </trkpt>
      <trkpt lat="47.83226" lon="6.66055">
        <ele>678</ele>
        <time>2019-08-18T06:49:35Z</time>
      </trkpt>
      <trkpt lat="47.83198" lon="6.66028">
        <ele>679</ele>
        <time>2019-08-18T06:49:40Z</time>
      </trkpt>
      <trkpt lat="47.83175" lon="6.65988">
        <ele>681</ele>
        <time>2019-08-18T06:49:45Z</time>
      </trkpt>
      <trkpt lat="47.83148" lon="6.65938">
        <ele>682</ele>
        <time>2019-08-18T06:49:50Z</time>
      </trkpt>
      <trkpt lat="47.83122" lon="6.65915">
        <ele>678</ele>
        <time>2019-08-18T06:49:55Z</time>
      </trkpt>
      <trkpt lat="47.83102" lon="6.65913">
        <ele>674</ele>
        <time>2019-08-18T06:50:00Z</time>
      </trkpt>
      <trkpt lat="47.83078" lon="6.65909">
        <ele>673</ele>
        <time>2019-08-18T06:50:09Z</time>
      </trkpt>
      <trkpt lat="47.83061" lon="6.65882">
        <ele>672</ele>
        <time>2019-08-18T06:50:14Z</time>
      </trkpt>
      <trkpt lat="47.83056" lon="6.65834">
        <ele>669</ele>
        <time>2019-08-18T06:50:19Z</time>
      </trkpt>
      <trkpt lat="47.83063" lon="6.65789">
        <ele>663</ele>
        <time>2019-08-18T06:50:24Z</time>
      </trkpt>
      <trkpt lat="47.83077" lon="6.65759">
        <ele>661</ele>
        <time>2019-08-18T06:50:29Z</time>
      </trkpt>
      <trkpt lat="47.83085" lon="6.65733">
        <ele>658</ele>
        <time>2019-08-18T06:50:34Z</time>
      </trkpt>
      <trkpt lat="47.83091" lon="6.65702">
        <ele>656</ele>
        <time>2019-08-18T06:50:39Z</time>
      </trkpt>
      <trkpt lat="47.8309" lon="6.6566">
        <ele>654</ele>
        <time>2019-08-18T06:50:44Z</time>
      </trkpt>
      <trkpt lat="47.83081" lon="6.65624">
        <ele>652</ele>
        <time>2019-08-18T06:50:49Z</time>
      </trkpt>
      <trkpt lat="47.83079" lon="6.65585">
        <ele>653</ele>
        <time>2019-08-18T06:50:54Z</time>
      </trkpt>
      <trkpt lat="47.83088" lon="6.65549">
        <ele>652</ele>
        <time>2019-08-18T06:50:59Z</time>
      </trkpt>
      <trkpt lat="47.83103" lon="6.65517">
        <ele>652</ele>
        <time>2019-08-18T06:51:04Z</time>
      </trkpt>
      <trkpt lat="47.83101" lon="6.655">
        <ele>651</ele>
        <time>2019-08-18T06:51:09Z</time>
      </trkpt>
      <trkpt lat="47.83094" lon="6.65467">
        <ele>653</ele>
        <time>2019-08-18T06:51:14Z</time>
      </trkpt>
      <trkpt lat="47.83074" lon="6.65446">
        <ele>654</ele>
        <time>2019-08-18T06:51:19Z</time>
      </trkpt>
      <trkpt lat="47.83051" lon="6.6543">
        <ele>654</ele>
        <time>2019-08-18T06:51:24Z</time>
      </trkpt>
      <trkpt lat="47.83029" lon="6.65418">
        <ele>655</ele>
        <time>2019-08-18T06:51:29Z</time>
      </trkpt>
      <trkpt lat="47.83012" lon="6.65409">
        <ele>657</ele>
        <time>2019-08-18T06:51:34Z</time>
      </trkpt>
      <trkpt lat="47.82984" lon="6.65408">
        <ele>658</ele>
        <time>2019-08-18T06:51:39Z</time>
      </trkpt>
      <trkpt lat="47.82966" lon="6.65385">
        <ele>657</ele>
        <time>2019-08-18T06:51:44Z</time>
      </trkpt>
      <trkpt lat="47.82948" lon="6.65366">
        <ele>657</ele>
        <time>2019-08-18T06:51:49Z</time>
      </trkpt>
      <trkpt lat="47.82934" lon="6.65343">
        <ele>659</ele>
        <time>2019-08-18T06:51:54Z</time>
      </trkpt>
      <trkpt lat="47.82914" lon="6.6532">
        <ele>658</ele>
        <time>2019-08-18T06:51:59Z</time>
      </trkpt>
      <trkpt lat="47.82901" lon="6.6531">
        <ele>658</ele>
        <time>2019-08-18T06:52:04Z</time>
      </trkpt>
      <trkpt lat="47.82885" lon="6.65296">
        <ele>658</ele>
        <time>2019-08-18T06:52:09Z</time>
      </trkpt>
      <trkpt lat="47.82872" lon="6.65285">
        <ele>656</ele>
        <time>2019-08-18T06:52:14Z</time>
      </trkpt>
      <trkpt lat="47.82859" lon="6.65278">
        <ele>657</ele>
        <time>2019-08-18T06:52:19Z</time>
      </trkpt>
      <trkpt lat="47.82845" lon="6.65283">
        <ele>658</ele>
        <time>2019-08-18T06:52:24Z</time>
      </trkpt>
      <trkpt lat="47.82827" lon="6.65294">
        <ele>658</ele>
        <time>2019-08-18T06:52:29Z</time>
      </trkpt>
      <trkpt lat="47.82806" lon="6.65296">
        <ele>656</ele>
        <time>2019-08-18T06:52:34Z</time>
      </trkpt>
      <trkpt lat="47.82785" lon="6.65299">
        <ele>654</ele>
        <time>2019-08-18T06:52:39Z</time>
      </trkpt>
      <trkpt lat="47.82767" lon="6.65297">
        <ele>654</ele>
        <time>2019-08-18T06:52:44Z</time>
      </trkpt>
      <trkpt lat="47.82748" lon="6.6529">
        <ele>654</ele>
        <time>2019-08-18T06:52:49Z</time>
      </trkpt>
      <trkpt lat="47.82728" lon="6.65293">
        <ele>654</ele>
        <time>2019-08-18T06:52:54Z</time>
      </trkpt>
      <trkpt lat="47.82713" lon="6.65292">
        <ele>653</ele>
        <time>2019-08-18T06:52:59Z</time>
      </trkpt>
      <trkpt lat="47.82685" lon="6.65283">
        <ele>650</ele>
        <time>2019-08-18T06:53:04Z</time>
      </trkpt>
      <trkpt lat="47.8266" lon="6.65259">
        <ele>650</ele>
        <time>2019-08-18T06:53:09Z</time>
      </trkpt>
      <trkpt lat="47.82652" lon="6.65229">
        <ele>650</ele>
        <time>2019-08-18T06:53:14Z</time>
      </trkpt>
      <trkpt lat="47.82644" lon="6.65206">
        <ele>649</ele>
        <time>2019-08-18T06:53:19Z</time>
      </trkpt>
      <trkpt lat="47.82621" lon="6.6516">
        <ele>651</ele>
        <time>2019-08-18T06:53:28Z</time>
      </trkpt>
      <trkpt lat="47.82606" lon="6.65136">
        <ele>651</ele>
        <time>2019-08-18T06:53:33Z</time>
      </trkpt>
      <trkpt lat="47.82587" lon="6.65105">
        <ele>651</ele>
        <time>2019-08-18T06:53:39Z</time>
      </trkpt>
      <trkpt lat="47.82599" lon="6.65064">
        <ele>652</ele>
        <time>2019-08-18T06:53:46Z</time>
      </trkpt>
      <trkpt lat="47.8259" lon="6.65027">
        <ele>651</ele>
        <time>2019-08-18T06:53:53Z</time>
      </trkpt>
      <trkpt lat="47.82565" lon="6.65">
        <ele>651</ele>
        <time>2019-08-18T06:54:00Z</time>
      </trkpt>
      <trkpt lat="47.8255" lon="6.6498">
        <ele>650</ele>
        <time>2019-08-18T06:54:05Z</time>
      </trkpt>
      <trkpt lat="47.82537" lon="6.64994">
        <ele>649</ele>
        <time>2019-08-18T06:54:11Z</time>
      </trkpt>
      <trkpt lat="47.82518" lon="6.65006">
        <ele>648</ele>
        <time>2019-08-18T06:54:18Z</time>
      </trkpt>
      <trkpt lat="47.82501" lon="6.64998">
        <ele>647</ele>
        <time>2019-08-18T06:54:24Z</time>
      </trkpt>
      <trkpt lat="47.82488" lon="6.64999">
        <ele>646</ele>
        <time>2019-08-18T06:54:29Z</time>
      </trkpt>
      <trkpt lat="47.82478" lon="6.65008">
        <ele>645</ele>
        <time>2019-08-18T06:54:35Z</time>
      </trkpt>
      <trkpt lat="47.82465" lon="6.65004">
        <ele>644</ele>
        <time>2019-08-18T06:54:40Z</time>
      </trkpt>
      <trkpt lat="47.82454" lon="6.64979">
        <ele>642</ele>
        <time>2019-08-18T06:54:46Z</time>
      </trkpt>
      <trkpt lat="47.82449" lon="6.64963">
        <ele>642</ele>
        <time>2019-08-18T06:54:51Z</time>
      </trkpt>
      <trkpt lat="47.82446" lon="6.64945">
        <ele>641</ele>
        <time>2019-08-18T06:54:56Z</time>
      </trkpt>
      <trkpt lat="47.8244" lon="6.64923">
        <ele>640</ele>
        <time>2019-08-18T06:55:02Z</time>
      </trkpt>
      <trkpt lat="47.82431" lon="6.64904">
        <ele>639</ele>
        <time>2019-08-18T06:55:07Z</time>
      </trkpt>
      <trkpt lat="47.82421" lon="6.6488">
        <ele>638</ele>
        <time>2019-08-18T06:55:13Z</time>
      </trkpt>
      <trkpt lat="47.82411" lon="6.64863">
        <ele>638</ele>
        <time>2019-08-18T06:55:18Z</time>
      </trkpt>
      <trkpt lat="47.82412" lon="6.64866">
        <ele>637</ele>
        <time>2019-08-18T06:55:24Z</time>
      </trkpt>
      <trkpt lat="47.82421" lon="6.64971">
        <ele>640</ele>
        <time>2019-08-18T06:55:55Z</time>
      </trkpt>
      <trkpt lat="47.82414" lon="6.64988">
        <ele>639</ele>
        <time>2019-08-18T06:56:00Z</time>
      </trkpt>
      <trkpt lat="47.82401" lon="6.64989">
        <ele>640</ele>
        <time>2019-08-18T06:56:05Z</time>
      </trkpt>
      <trkpt lat="47.82388" lon="6.6499">
        <ele>639</ele>
        <time>2019-08-18T06:56:11Z</time>
      </trkpt>
      <trkpt lat="47.82377" lon="6.65">
        <ele>639</ele>
        <time>2019-08-18T06:56:16Z</time>
      </trkpt>
      <trkpt lat="47.82367" lon="6.65018">
        <ele>638</ele>
        <time>2019-08-18T06:56:22Z</time>
      </trkpt>
      <trkpt lat="47.82354" lon="6.65029">
        <ele>636</ele>
        <time>2019-08-18T06:56:27Z</time>
      </trkpt>
      <trkpt lat="47.82335" lon="6.65025">
        <ele>635</ele>
        <time>2019-08-18T06:56:33Z</time>
      </trkpt>
      <trkpt lat="47.82322" lon="6.65012">
        <ele>634</ele>
        <time>2019-08-18T06:56:38Z</time>
      </trkpt>
      <trkpt lat="47.82309" lon="6.64991">
        <ele>635</ele>
        <time>2019-08-18T06:56:43Z</time>
      </trkpt>
      <trkpt lat="47.82291" lon="6.64975">
        <ele>635</ele>
        <time>2019-08-18T06:56:49Z</time>
      </trkpt>
      <trkpt lat="47.82277" lon="6.64977">
        <ele>635</ele>
        <time>2019-08-18T06:56:54Z</time>
      </trkpt>
      <trkpt lat="47.82247" lon="6.64976">
        <ele>634</ele>
        <time>2019-08-18T06:57:00Z</time>
      </trkpt>
      <trkpt lat="47.82221" lon="6.64955">
        <ele>633</ele>
        <time>2019-08-18T06:57:05Z</time>
      </trkpt>
      <trkpt lat="47.82208" lon="6.64967">
        <ele>632</ele>
        <time>2019-08-18T06:57:11Z</time>
      </trkpt>
      <trkpt lat="47.82188" lon="6.64981">
        <ele>631</ele>
        <time>2019-08-18T06:57:16Z</time>
      </trkpt>
      <trkpt lat="47.82156" lon="6.64995">
        <ele>633</ele>
        <time>2019-08-18T06:57:21Z</time>
      </trkpt>
      <trkpt lat="47.82137" lon="6.65006">
        <ele>633</ele>
        <time>2019-08-18T06:57:27Z</time>
      </trkpt>
      <trkpt lat="47.82124" lon="6.64991">
        <ele>630</ele>
        <time>2019-08-18T06:57:33Z</time>
      </trkpt>
      <trkpt lat="47.82116" lon="6.64964">
        <ele>630</ele>
        <time>2019-08-18T06:57:39Z</time>
      </trkpt>
      <trkpt lat="47.82116" lon="6.64936">
        <ele>630</ele>
        <time>2019-08-18T06:57:44Z</time>
      </trkpt>
      <trkpt lat="47.82114" lon="6.64899">
        <ele>629</ele>
        <time>2019-08-18T06:57:50Z</time>
      </trkpt>
      <trkpt lat="47.82114" lon="6.64868">
        <ele>629</ele>
        <time>2019-08-18T06:57:55Z</time>
      </trkpt>
      <trkpt lat="47.82129" lon="6.64822">
        <ele>625</ele>
        <time>2019-08-18T06:58:01Z</time>
      </trkpt>
      <trkpt lat="47.82147" lon="6.64788">
        <ele>625</ele>
        <time>2019-08-18T06:58:09Z</time>
      </trkpt>
      <trkpt lat="47.82152" lon="6.64765">
        <ele>625</ele>
        <time>2019-08-18T06:58:15Z</time>
      </trkpt>
      <trkpt lat="47.82163" lon="6.64741">
        <ele>625</ele>
        <time>2019-08-18T06:58:20Z</time>
      </trkpt>
      <trkpt lat="47.82182" lon="6.64722">
        <ele>623</ele>
        <time>2019-08-18T06:58:25Z</time>
      </trkpt>
      <trkpt lat="47.82188" lon="6.64703">
        <ele>620</ele>
        <time>2019-08-18T06:58:30Z</time>
      </trkpt>
      <trkpt lat="47.82193" lon="6.64688">
        <ele>621</ele>
        <time>2019-08-18T06:58:35Z</time>
      </trkpt>
      <trkpt lat="47.82198" lon="6.64666">
        <ele>621</ele>
        <time>2019-08-18T06:58:40Z</time>
      </trkpt>
      <trkpt lat="47.82214" lon="6.64643">
        <ele>623</ele>
        <time>2019-08-18T06:58:46Z</time>
      </trkpt>
      <trkpt lat="47.82222" lon="6.64621">
        <ele>624</ele>
        <time>2019-08-18T06:58:51Z</time>
      </trkpt>
      <trkpt lat="47.82225" lon="6.6461">
        <ele>624</ele>
        <time>2019-08-18T06:58:56Z</time>
      </trkpt>
      <trkpt lat="47.82228" lon="6.64595">
        <ele>625</ele>
        <time>2019-08-18T06:59:01Z</time>
      </trkpt>
      <trkpt lat="47.82232" lon="6.64577">
        <ele>626</ele>
        <time>2019-08-18T06:59:06Z</time>
      </trkpt>
      <trkpt lat="47.82233" lon="6.64561">
        <ele>628</ele>
        <time>2019-08-18T06:59:11Z</time>
      </trkpt>
      <trkpt lat="47.82239" lon="6.64546">
        <ele>629</ele>
        <time>2019-08-18T06:59:16Z</time>
      </trkpt>
      <trkpt lat="47.82254" lon="6.64532">
        <ele>630</ele>
        <time>2019-08-18T06:59:21Z</time>
      </trkpt>
      <trkpt lat="47.82269" lon="6.64497">
        <ele>632</ele>
        <time>2019-08-18T06:59:26Z</time>
      </trkpt>
      <trkpt lat="47.82275" lon="6.64474">
        <ele>633</ele>
        <time>2019-08-18T06:59:31Z</time>
      </trkpt>
      <trkpt lat="47.82281" lon="6.64448">
        <ele>633</ele>
        <time>2019-08-18T06:59:36Z</time>
      </trkpt>
      <trkpt lat="47.82284" lon="6.64415">
        <ele>633</ele>
        <time>2019-08-18T06:59:41Z</time>
      </trkpt>
      <trkpt lat="47.82277" lon="6.64345">
        <ele>633</ele>
        <time>2019-08-18T06:59:50Z</time>
      </trkpt>
      <trkpt lat="47.82274" lon="6.64325">
        <ele>632</ele>
        <time>2019-08-18T06:59:55Z</time>
      </trkpt>
      <trkpt lat="47.82277" lon="6.64294">
        <ele>633</ele>
        <time>2019-08-18T07:00:00Z</time>
      </trkpt>
      <trkpt lat="47.82291" lon="6.64272">
        <ele>632</ele>
        <time>2019-08-18T07:00:05Z</time>
      </trkpt>
      <trkpt lat="47.82306" lon="6.64251">
        <ele>633</ele>
        <time>2019-08-18T07:00:10Z</time>
      </trkpt>
      <trkpt lat="47.82309" lon="6.64224">
        <ele>633</ele>
        <time>2019-08-18T07:00:15Z</time>
      </trkpt>
      <trkpt lat="47.8231" lon="6.64198">
        <ele>633</ele>
        <time>2019-08-18T07:00:20Z</time>
      </trkpt>
      <trkpt lat="47.82302" lon="6.64176">
        <ele>632</ele>
        <time>2019-08-18T07:00:25Z</time>
      </trkpt>
      <trkpt lat="47.82298" lon="6.6415">
        <ele>631</ele>
        <time>2019-08-18T07:00:30Z</time>
      </trkpt>
      <trkpt lat="47.82308" lon="6.64123">
        <ele>633</ele>
        <time>2019-08-18T07:00:35Z</time>
      </trkpt>
      <trkpt lat="47.82319" lon="6.641">
        <ele>632</ele>
        <time>2019-08-18T07:00:40Z</time>
      </trkpt>
      <trkpt lat="47.82328" lon="6.6408">
        <ele>630</ele>
        <time>2019-08-18T07:00:45Z</time>
      </trkpt>
      <trkpt lat="47.82333" lon="6.64054">
        <ele>629</ele>
        <time>2019-08-18T07:00:50Z</time>
      </trkpt>
      <trkpt lat="47.82341" lon="6.64014">
        <ele>632</ele>
        <time>2019-08-18T07:00:55Z</time>
      </trkpt>
      <trkpt lat="47.82326" lon="6.63974">
        <ele>631</ele>
        <time>2019-08-18T07:01:00Z</time>
      </trkpt>
      <trkpt lat="47.82308" lon="6.63947">
        <ele>627</ele>
        <time>2019-08-18T07:01:05Z</time>
      </trkpt>
      <trkpt lat="47.82289" lon="6.63924">
        <ele>624</ele>
        <time>2019-08-18T07:01:10Z</time>
      </trkpt>
      <trkpt lat="47.82277" lon="6.63901">
        <ele>622</ele>
        <time>2019-08-18T07:01:15Z</time>
      </trkpt>
      <trkpt lat="47.82256" lon="6.6388">
        <ele>620</ele>
        <time>2019-08-18T07:01:20Z</time>
      </trkpt>
      <trkpt lat="47.82227" lon="6.63868">
        <ele>617</ele>
        <time>2019-08-18T07:01:25Z</time>
      </trkpt>
      <trkpt lat="47.82199" lon="6.63864">
        <ele>611</ele>
        <time>2019-08-18T07:01:30Z</time>
      </trkpt>
      <trkpt lat="47.82169" lon="6.6385">
        <ele>609</ele>
        <time>2019-08-18T07:01:35Z</time>
      </trkpt>
      <trkpt lat="47.82148" lon="6.63823">
        <ele>609</ele>
        <time>2019-08-18T07:01:40Z</time>
      </trkpt>
      <trkpt lat="47.82142" lon="6.63781">
        <ele>608</ele>
        <time>2019-08-18T07:01:45Z</time>
      </trkpt>
      <trkpt lat="47.82124" lon="6.63736">
        <ele>607</ele>
        <time>2019-08-18T07:01:53Z</time>
      </trkpt>
      <trkpt lat="47.82119" lon="6.63717">
        <ele>607</ele>
        <time>2019-08-18T07:01:58Z</time>
      </trkpt>
      <trkpt lat="47.82114" lon="6.63707">
        <ele>606</ele>
        <time>2019-08-18T07:02:03Z</time>
      </trkpt>
      <trkpt lat="47.82084" lon="6.63666">
        <ele>607</ele>
        <time>2019-08-18T07:02:24Z</time>
      </trkpt>
      <trkpt lat="47.82076" lon="6.63656">
        <ele>607</ele>
        <time>2019-08-18T07:02:29Z</time>
      </trkpt>
      <trkpt lat="47.82073" lon="6.63638">
        <ele>607</ele>
        <time>2019-08-18T07:02:34Z</time>
      </trkpt>
      <trkpt lat="47.82061" lon="6.63571">
        <ele>610</ele>
        <time>2019-08-18T07:02:53Z</time>
      </trkpt>
      <trkpt lat="47.82061" lon="6.63543">
        <ele>611</ele>
        <time>2019-08-18T07:02:58Z</time>
      </trkpt>
      <trkpt lat="47.82066" lon="6.63514">
        <ele>612</ele>
        <time>2019-08-18T07:03:03Z</time>
      </trkpt>
      <trkpt lat="47.82066" lon="6.63489">
        <ele>612</ele>
        <time>2019-08-18T07:03:08Z</time>
      </trkpt>
      <trkpt lat="47.82061" lon="6.63458">
        <ele>614</ele>
        <time>2019-08-18T07:03:13Z</time>
      </trkpt>
      <trkpt lat="47.82059" lon="6.63424">
        <ele>616</ele>
        <time>2019-08-18T07:03:18Z</time>
      </trkpt>
      <trkpt lat="47.8206" lon="6.63387">
        <ele>617</ele>
        <time>2019-08-18T07:03:23Z</time>
      </trkpt>
      <trkpt lat="47.82049" lon="6.63342">
        <ele>613</ele>
        <time>2019-08-18T07:03:28Z</time>
      </trkpt>
      <trkpt lat="47.82032" lon="6.63316">
        <ele>610</ele>
        <time>2019-08-18T07:03:33Z</time>
      </trkpt>
      <trkpt lat="47.82009" lon="6.63289">
        <ele>609</ele>
        <time>2019-08-18T07:03:38Z</time>
      </trkpt>
      <trkpt lat="47.81996" lon="6.63276">
        <ele>608</ele>
        <time>2019-08-18T07:03:43Z</time>
      </trkpt>
      <trkpt lat="47.81981" lon="6.63254">
        <ele>610</ele>
        <time>2019-08-18T07:03:48Z</time>
      </trkpt>
      <trkpt lat="47.81972" lon="6.63223">
        <ele>610</ele>
        <time>2019-08-18T07:03:53Z</time>
      </trkpt>
      <trkpt lat="47.81966" lon="6.63172">
        <ele>615</ele>
        <time>2019-08-18T07:04:00Z</time>
      </trkpt>
      <trkpt lat="47.81965" lon="6.63129">
        <ele>614</ele>
        <time>2019-08-18T07:04:05Z</time>
      </trkpt>
      <trkpt lat="47.81974" lon="6.63083">
        <ele>614</ele>
        <time>2019-08-18T07:04:10Z</time>
      </trkpt>
      <trkpt lat="47.81958" lon="6.63038">
        <ele>614</ele>
        <time>2019-08-18T07:04:15Z</time>
      </trkpt>
      <trkpt lat="47.8197" lon="6.62983">
        <ele>612</ele>
        <time>2019-08-18T07:04:20Z</time>
      </trkpt>
      <trkpt lat="47.81961" lon="6.62952">
        <ele>615</ele>
        <time>2019-08-18T07:04:25Z</time>
      </trkpt>
      <trkpt lat="47.81951" lon="6.6293">
        <ele>614</ele>
        <time>2019-08-18T07:04:30Z</time>
      </trkpt>
      <trkpt lat="47.81939" lon="6.62932">
        <ele>613</ele>
        <time>2019-08-18T07:04:35Z</time>
      </trkpt>
      <trkpt lat="47.81918" lon="6.62932">
        <ele>608</ele>
        <time>2019-08-18T07:04:40Z</time>
      </trkpt>
      <trkpt lat="47.81891" lon="6.62923">
        <ele>605</ele>
        <time>2019-08-18T07:04:45Z</time>
      </trkpt>
      <trkpt lat="47.81878" lon="6.62908">
        <ele>603</ele>
        <time>2019-08-18T07:04:50Z</time>
      </trkpt>
      <trkpt lat="47.81866" lon="6.62889">
        <ele>602</ele>
        <time>2019-08-18T07:04:55Z</time>
      </trkpt>
      <trkpt lat="47.8186" lon="6.62876">
        <ele>602</ele>
        <time>2019-08-18T07:05:00Z</time>
      </trkpt>
      <trkpt lat="47.8186" lon="6.6286">
        <ele>602</ele>
        <time>2019-08-18T07:05:05Z</time>
      </trkpt>
      <trkpt lat="47.81863" lon="6.62842">
        <ele>601</ele>
        <time>2019-08-18T07:05:10Z</time>
      </trkpt>
      <trkpt lat="47.8187" lon="6.62825">
        <ele>601</ele>
        <time>2019-08-18T07:05:15Z</time>
      </trkpt>
      <trkpt lat="47.81877" lon="6.62808">
        <ele>603</ele>
        <time>2019-08-18T07:05:20Z</time>
      </trkpt>
      <trkpt lat="47.81886" lon="6.62793">
        <ele>603</ele>
        <time>2019-08-18T07:05:25Z</time>
      </trkpt>
      <trkpt lat="47.81893" lon="6.62775">
        <ele>603</ele>
        <time>2019-08-18T07:05:30Z</time>
      </trkpt>
      <trkpt lat="47.81897" lon="6.62745">
        <ele>603</ele>
        <time>2019-08-18T07:05:35Z</time>
      </trkpt>
      <trkpt lat="47.81907" lon="6.62701">
        <ele>602</ele>
        <time>2019-08-18T07:05:40Z</time>
      </trkpt>
      <trkpt lat="47.81923" lon="6.62654">
        <ele>601</ele>
        <time>2019-08-18T07:05:45Z</time>
      </trkpt>
      <trkpt lat="47.81925" lon="6.62574">
        <ele>599</ele>
        <time>2019-08-18T07:05:53Z</time>
      </trkpt>
      <trkpt lat="47.81919" lon="6.62515">
        <ele>599</ele>
        <time>2019-08-18T07:05:58Z</time>
      </trkpt>
      <trkpt lat="47.81907" lon="6.62478">
        <ele>598</ele>
        <time>2019-08-18T07:06:03Z</time>
      </trkpt>
      <trkpt lat="47.81882" lon="6.62439">
        <ele>596</ele>
        <time>2019-08-18T07:06:08Z</time>
      </trkpt>
      <trkpt lat="47.81874" lon="6.62387">
        <ele>593</ele>
        <time>2019-08-18T07:06:13Z</time>
      </trkpt>
      <trkpt lat="47.81889" lon="6.62319">
        <ele>591</ele>
        <time>2019-08-18T07:06:18Z</time>
      </trkpt>
      <trkpt lat="47.81891" lon="6.62268">
        <ele>589</ele>
        <time>2019-08-18T07:06:23Z</time>
      </trkpt>
      <trkpt lat="47.81877" lon="6.62244">
        <ele>584</ele>
        <time>2019-08-18T07:06:28Z</time>
      </trkpt>
      <trkpt lat="47.81865" lon="6.62223">
        <ele>583</ele>
        <time>2019-08-18T07:06:33Z</time>
      </trkpt>
      <trkpt lat="47.81846" lon="6.62206">
        <ele>582</ele>
        <time>2019-08-18T07:06:42Z</time>
      </trkpt>
      <trkpt lat="47.81806" lon="6.62148">
        <ele>581</ele>
        <time>2019-08-18T07:07:24Z</time>
      </trkpt>
      <trkpt lat="47.81789" lon="6.62106">
        <ele>580</ele>
        <time>2019-08-18T07:07:29Z</time>
      </trkpt>
      <trkpt lat="47.81765" lon="6.62072">
        <ele>578</ele>
        <time>2019-08-18T07:07:34Z</time>
      </trkpt>
      <trkpt lat="47.81752" lon="6.62033">
        <ele>578</ele>
        <time>2019-08-18T07:07:39Z</time>
      </trkpt>
      <trkpt lat="47.81736" lon="6.61984">
        <ele>578</ele>
        <time>2019-08-18T07:07:44Z</time>
      </trkpt>
      <trkpt lat="47.81715" lon="6.61934">
        <ele>576</ele>
        <time>2019-08-18T07:07:49Z</time>
      </trkpt>
      <trkpt lat="47.81693" lon="6.61876">
        <ele>572</ele>
        <time>2019-08-18T07:07:54Z</time>
      </trkpt>
      <trkpt lat="47.81668" lon="6.61831">
        <ele>567</ele>
        <time>2019-08-18T07:07:59Z</time>
      </trkpt>
      <trkpt lat="47.81657" lon="6.61825">
        <ele>567</ele>
        <time>2019-08-18T07:08:04Z</time>
      </trkpt>
      <trkpt lat="47.81648" lon="6.61844">
        <ele>564</ele>
        <time>2019-08-18T07:08:09Z</time>
      </trkpt>
      <trkpt lat="47.81632" lon="6.61854">
        <ele>565</ele>
        <time>2019-08-18T07:08:14Z</time>
      </trkpt>
      <trkpt lat="47.81612" lon="6.61864">
        <ele>564</ele>
        <time>2019-08-18T07:08:19Z</time>
      </trkpt>
      <trkpt lat="47.81591" lon="6.61877">
        <ele>565</ele>
        <time>2019-08-18T07:08:24Z</time>
      </trkpt>
      <trkpt lat="47.81571" lon="6.61886">
        <ele>564</ele>
        <time>2019-08-18T07:08:29Z</time>
      </trkpt>
      <trkpt lat="47.81537" lon="6.61885">
        <ele>565</ele>
        <time>2019-08-18T07:08:34Z</time>
      </trkpt>
      <trkpt lat="47.81499" lon="6.61885">
        <ele>564</ele>
        <time>2019-08-18T07:08:39Z</time>
      </trkpt>
      <trkpt lat="47.81458" lon="6.6187">
        <ele>568</ele>
        <time>2019-08-18T07:08:44Z</time>
      </trkpt>
      <trkpt lat="47.8142" lon="6.61863">
        <ele>567</ele>
        <time>2019-08-18T07:08:49Z</time>
      </trkpt>
      <trkpt lat="47.8137" lon="6.61844">
        <ele>566</ele>
        <time>2019-08-18T07:08:55Z</time>
      </trkpt>
      <trkpt lat="47.81327" lon="6.6182">
        <ele>565</ele>
        <time>2019-08-18T07:09:00Z</time>
      </trkpt>
      <trkpt lat="47.8129" lon="6.61795">
        <ele>564</ele>
        <time>2019-08-18T07:09:05Z</time>
      </trkpt>
      <trkpt lat="47.81257" lon="6.61771">
        <ele>564</ele>
        <time>2019-08-18T07:09:10Z</time>
      </trkpt>
      <trkpt lat="47.81227" lon="6.61742">
        <ele>564</ele>
        <time>2019-08-18T07:09:15Z</time>
      </trkpt>
      <trkpt lat="47.81211" lon="6.61705">
        <ele>563</ele>
        <time>2019-08-18T07:09:20Z</time>
      </trkpt>
      <trkpt lat="47.81208" lon="6.6169">
        <ele>561</ele>
        <time>2019-08-18T07:09:25Z</time>
      </trkpt>
      <trkpt lat="47.81168" lon="6.61693">
        <ele>555</ele>
        <time>2019-08-18T07:09:46Z</time>
      </trkpt>
      <trkpt lat="47.8111" lon="6.61758">
        <ele>552</ele>
        <time>2019-08-18T07:10:13Z</time>
      </trkpt>
      <trkpt lat="47.81101" lon="6.61775">
        <ele>552</ele>
        <time>2019-08-18T07:10:18Z</time>
      </trkpt>
      <trkpt lat="47.81091" lon="6.6179">
        <ele>551</ele>
        <time>2019-08-18T07:10:23Z</time>
      </trkpt>
      <trkpt lat="47.81086" lon="6.61805">
        <ele>551</ele>
        <time>2019-08-18T07:10:28Z</time>
      </trkpt>
      <trkpt lat="47.81084" lon="6.61824">
        <ele>551</ele>
        <time>2019-08-18T07:10:33Z</time>
      </trkpt>
      <trkpt lat="47.81082" lon="6.61841">
        <ele>550</ele>
        <time>2019-08-18T07:10:38Z</time>
      </trkpt>
      <trkpt lat="47.81077" lon="6.61862">
        <ele>550</ele>
        <time>2019-08-18T07:10:43Z</time>
      </trkpt>
      <trkpt lat="47.81072" lon="6.61881">
        <ele>550</ele>
        <time>2019-08-18T07:10:48Z</time>
      </trkpt>
      <trkpt lat="47.81061" lon="6.61903">
        <ele>550</ele>
        <time>2019-08-18T07:10:53Z</time>
      </trkpt>
      <trkpt lat="47.81044" lon="6.61916">
        <ele>550</ele>
        <time>2019-08-18T07:10:58Z</time>
      </trkpt>
      <trkpt lat="47.8103" lon="6.61933">
        <ele>549</ele>
        <time>2019-08-18T07:11:03Z</time>
      </trkpt>
      <trkpt lat="47.81017" lon="6.61935">
        <ele>550</ele>
        <time>2019-08-18T07:11:08Z</time>
      </trkpt>
      <trkpt lat="47.80965" lon="6.61983">
        <ele>552</ele>
        <time>2019-08-18T07:11:37Z</time>
      </trkpt>
      <trkpt lat="47.80958" lon="6.62003">
        <ele>550</ele>
        <time>2019-08-18T07:11:42Z</time>
      </trkpt>
      <trkpt lat="47.80951" lon="6.62018">
        <ele>549</ele>
        <time>2019-08-18T07:11:47Z</time>
      </trkpt>
      <trkpt lat="47.80935" lon="6.62067">
        <ele>551</ele>
        <time>2019-08-18T07:12:04Z</time>
      </trkpt>
      <trkpt lat="47.80943" lon="6.62074">
        <ele>556</ele>
        <time>2019-08-18T07:12:09Z</time>
      </trkpt>
      <trkpt lat="47.80954" lon="6.62083">
        <ele>557</ele>
        <time>2019-08-18T07:12:14Z</time>
      </trkpt>
      <trkpt lat="47.80965" lon="6.62095">
        <ele>558</ele>
        <time>2019-08-18T07:12:19Z</time>
      </trkpt>
      <trkpt lat="47.80971" lon="6.62115">
        <ele>559</ele>
        <time>2019-08-18T07:12:24Z</time>
      </trkpt>
      <trkpt lat="47.8097" lon="6.62144">
        <ele>559</ele>
        <time>2019-08-18T07:12:29Z</time>
      </trkpt>
      <trkpt lat="47.80967" lon="6.62167">
        <ele>557</ele>
        <time>2019-08-18T07:12:34Z</time>
      </trkpt>
      <trkpt lat="47.80962" lon="6.62188">
        <ele>558</ele>
        <time>2019-08-18T07:12:39Z</time>
      </trkpt>
      <trkpt lat="47.80962" lon="6.62215">
        <ele>559</ele>
        <time>2019-08-18T07:12:44Z</time>
      </trkpt>
      <trkpt lat="47.8096" lon="6.62243">
        <ele>560</ele>
        <time>2019-08-18T07:12:49Z</time>
      </trkpt>
      <trkpt lat="47.80954" lon="6.62259">
        <ele>561</ele>
        <time>2019-08-18T07:12:54Z</time>
      </trkpt>
      <trkpt lat="47.8087" lon="6.62342">
        <ele>557</ele>
        <time>2019-08-18T07:13:53Z</time>
      </trkpt>
      <trkpt lat="47.80851" lon="6.62354">
        <ele>557</ele>
        <time>2019-08-18T07:13:58Z</time>
      </trkpt>
      <trkpt lat="47.8083" lon="6.62372">
        <ele>557</ele>
        <time>2019-08-18T07:14:03Z</time>
      </trkpt>
      <trkpt lat="47.80796" lon="6.62387">
        <ele>558</ele>
        <time>2019-08-18T07:14:08Z</time>
      </trkpt>
      <trkpt lat="47.80764" lon="6.62408">
        <ele>557</ele>
        <time>2019-08-18T07:14:13Z</time>
      </trkpt>
      <trkpt lat="47.8074" lon="6.62427">
        <ele>558</ele>
        <time>2019-08-18T07:14:18Z</time>
      </trkpt>
      <trkpt lat="47.80717" lon="6.62449">
        <ele>557</ele>
        <time>2019-08-18T07:14:23Z</time>
      </trkpt>
      <trkpt lat="47.80703" lon="6.62463">
        <ele>555</ele>
        <time>2019-08-18T07:14:28Z</time>
      </trkpt>
      <trkpt lat="47.8069" lon="6.6248">
        <ele>554</ele>
        <time>2019-08-18T07:14:33Z</time>
      </trkpt>
      <trkpt lat="47.80685" lon="6.62509">
        <ele>554</ele>
        <time>2019-08-18T07:14:38Z</time>
      </trkpt>
      <trkpt lat="47.80682" lon="6.62566">
        <ele>550</ele>
        <time>2019-08-18T07:14:43Z</time>
      </trkpt>
      <trkpt lat="47.80676" lon="6.62623">
        <ele>551</ele>
        <time>2019-08-18T07:14:48Z</time>
      </trkpt>
      <trkpt lat="47.80663" lon="6.6265">
        <ele>549</ele>
        <time>2019-08-18T07:14:53Z</time>
      </trkpt>
      <trkpt lat="47.80648" lon="6.62659">
        <ele>546</ele>
        <time>2019-08-18T07:14:58Z</time>
      </trkpt>
      <trkpt lat="47.80632" lon="6.62671">
        <ele>544</ele>
        <time>2019-08-18T07:15:03Z</time>
      </trkpt>
      <trkpt lat="47.80619" lon="6.62682">
        <ele>543</ele>
        <time>2019-08-18T07:15:08Z</time>
      </trkpt>
      <trkpt lat="47.80608" lon="6.627">
        <ele>541</ele>
        <time>2019-08-18T07:15:13Z</time>
      </trkpt>
      <trkpt lat="47.80586" lon="6.62713">
        <ele>541</ele>
        <time>2019-08-18T07:15:18Z</time>
      </trkpt>
      <trkpt lat="47.80562" lon="6.62736">
        <ele>541</ele>
        <time>2019-08-18T07:15:23Z</time>
      </trkpt>
      <trkpt lat="47.80536" lon="6.62773">
        <ele>540</ele>
        <time>2019-08-18T07:15:28Z</time>
      </trkpt>
      <trkpt lat="47.80508" lon="6.62805">
        <ele>543</ele>
        <time>2019-08-18T07:15:33Z</time>
      </trkpt>
      <trkpt lat="47.80475" lon="6.62809">
        <ele>540</ele>
        <time>2019-08-18T07:15:38Z</time>
      </trkpt>
      <trkpt lat="47.80454" lon="6.62815">
        <ele>539</ele>
        <time>2019-08-18T07:15:43Z</time>
      </trkpt>
      <trkpt lat="47.80434" lon="6.62818">
        <ele>539</ele>
        <time>2019-08-18T07:15:48Z</time>
      </trkpt>
      <trkpt lat="47.80432" lon="6.62831">
        <ele>537</ele>
        <time>2019-08-18T07:15:53Z</time>
      </trkpt>
      <trkpt lat="47.80448" lon="6.6285">
        <ele>535</ele>
        <time>2019-08-18T07:15:58Z</time>
      </trkpt>
      <trkpt lat="47.80468" lon="6.62886">
        <ele>534</ele>
        <time>2019-08-18T07:16:03Z</time>
      </trkpt>
      <trkpt lat="47.8048" lon="6.62915">
        <ele>531</ele>
        <time>2019-08-18T07:16:08Z</time>
      </trkpt>
      <trkpt lat="47.80484" lon="6.62928">
        <ele>530</ele>
        <time>2019-08-18T07:16:13Z</time>
      </trkpt>
      <trkpt lat="47.80483" lon="6.62934">
        <ele>528</ele>
        <time>2019-08-18T07:16:18Z</time>
      </trkpt>
      <trkpt lat="47.80462" lon="6.62908">
        <ele>520</ele>
        <time>2019-08-18T07:18:25Z</time>
      </trkpt>
      <trkpt lat="47.80442" lon="6.62913">
        <ele>519</ele>
        <time>2019-08-18T07:18:30Z</time>
      </trkpt>
      <trkpt lat="47.8043" lon="6.62939">
        <ele>519</ele>
        <time>2019-08-18T07:18:35Z</time>
      </trkpt>
      <trkpt lat="47.80417" lon="6.62962">
        <ele>519</ele>
        <time>2019-08-18T07:18:40Z</time>
      </trkpt>
      <trkpt lat="47.80401" lon="6.6298">
        <ele>518</ele>
        <time>2019-08-18T07:18:45Z</time>
      </trkpt>
      <trkpt lat="47.8038" lon="6.62985">
        <ele>517</ele>
        <time>2019-08-18T07:18:50Z</time>
      </trkpt>
      <trkpt lat="47.80368" lon="6.62986">
        <ele>517</ele>
        <time>2019-08-18T07:18:55Z</time>
      </trkpt>
      <trkpt lat="47.80356" lon="6.62978">
        <ele>517</ele>
        <time>2019-08-18T07:19:01Z</time>
      </trkpt>
      <trkpt lat="47.80344" lon="6.62974">
        <ele>519</ele>
        <time>2019-08-18T07:19:06Z</time>
      </trkpt>
      <trkpt lat="47.80336" lon="6.62985">
        <ele>519</ele>
        <time>2019-08-18T07:19:11Z</time>
      </trkpt>
      <trkpt lat="47.80329" lon="6.62998">
        <ele>520</ele>
        <time>2019-08-18T07:19:16Z</time>
      </trkpt>
      <trkpt lat="47.80315" lon="6.63004">
        <ele>520</ele>
        <time>2019-08-18T07:19:21Z</time>
      </trkpt>
      <trkpt lat="47.80277" lon="6.63011">
        <ele>523</ele>
        <time>2019-08-18T07:19:30Z</time>
      </trkpt>
      <trkpt lat="47.80244" lon="6.63023">
        <ele>524</ele>
        <time>2019-08-18T07:19:35Z</time>
      </trkpt>
      <trkpt lat="47.80213" lon="6.63017">
        <ele>526</ele>
        <time>2019-08-18T07:19:40Z</time>
      </trkpt>
      <trkpt lat="47.80184" lon="6.62995">
        <ele>525</ele>
        <time>2019-08-18T07:19:45Z</time>
      </trkpt>
      <trkpt lat="47.80169" lon="6.62956">
        <ele>525</ele>
        <time>2019-08-18T07:19:50Z</time>
      </trkpt>
      <trkpt lat="47.80158" lon="6.62924">
        <ele>525</ele>
        <time>2019-08-18T07:19:55Z</time>
      </trkpt>
      <trkpt lat="47.80148" lon="6.62905">
        <ele>525</ele>
        <time>2019-08-18T07:20:00Z</time>
      </trkpt>
      <trkpt lat="47.80137" lon="6.62888">
        <ele>525</ele>
        <time>2019-08-18T07:20:05Z</time>
      </trkpt>
      <trkpt lat="47.80131" lon="6.62878">
        <ele>524</ele>
        <time>2019-08-18T07:20:10Z</time>
      </trkpt>
      <trkpt lat="47.80107" lon="6.62826">
        <ele>524</ele>
        <time>2019-08-18T07:20:28Z</time>
      </trkpt>
      <trkpt lat="47.8009" lon="6.62789">
        <ele>524</ele>
        <time>2019-08-18T07:20:33Z</time>
      </trkpt>
      <trkpt lat="47.80076" lon="6.62757">
        <ele>523</ele>
        <time>2019-08-18T07:20:38Z</time>
      </trkpt>
      <trkpt lat="47.80064" lon="6.62726">
        <ele>524</ele>
        <time>2019-08-18T07:20:43Z</time>
      </trkpt>
      <trkpt lat="47.80058" lon="6.62684">
        <ele>524</ele>
        <time>2019-08-18T07:20:48Z</time>
      </trkpt>
      <trkpt lat="47.80044" lon="6.62679">
        <ele>525</ele>
        <time>2019-08-18T07:20:53Z</time>
      </trkpt>
      <trkpt lat="47.80024" lon="6.6267">
        <ele>526</ele>
        <time>2019-08-18T07:20:58Z</time>
      </trkpt>
      <trkpt lat="47.80011" lon="6.62664">
        <ele>528</ele>
        <time>2019-08-18T07:21:03Z</time>
      </trkpt>
      <trkpt lat="47.79998" lon="6.62662">
        <ele>528</ele>
        <time>2019-08-18T07:21:08Z</time>
      </trkpt>
      <trkpt lat="47.79982" lon="6.6266">
        <ele>528</ele>
        <time>2019-08-18T07:21:13Z</time>
      </trkpt>
      <trkpt lat="47.79966" lon="6.62661">
        <ele>527</ele>
        <time>2019-08-18T07:21:18Z</time>
      </trkpt>
      <trkpt lat="47.79949" lon="6.62656">
        <ele>526</ele>
        <time>2019-08-18T07:21:23Z</time>
      </trkpt>
      <trkpt lat="47.79927" lon="6.62657">
        <ele>526</ele>
        <time>2019-08-18T07:21:29Z</time>
      </trkpt>
      <trkpt lat="47.79889" lon="6.6265">
        <ele>526</ele>
        <time>2019-08-18T07:21:35Z</time>
      </trkpt>
      <trkpt lat="47.79857" lon="6.62639">
        <ele>527</ele>
        <time>2019-08-18T07:21:41Z</time>
      </trkpt>
      <trkpt lat="47.79831" lon="6.62627">
        <ele>528</ele>
        <time>2019-08-18T07:21:47Z</time>
      </trkpt>
      <trkpt lat="47.79806" lon="6.62604">
        <ele>528</ele>
        <time>2019-08-18T07:21:53Z</time>
      </trkpt>
      <trkpt lat="47.7979" lon="6.62569">
        <ele>525</ele>
        <time>2019-08-18T07:21:59Z</time>
      </trkpt>
      <trkpt lat="47.7978" lon="6.62539">
        <ele>526</ele>
        <time>2019-08-18T07:22:04Z</time>
      </trkpt>
      <trkpt lat="47.79749" lon="6.62501">
        <ele>526</ele>
        <time>2019-08-18T07:22:12Z</time>
      </trkpt>
      <trkpt lat="47.79729" lon="6.62495">
        <ele>526</ele>
        <time>2019-08-18T07:22:17Z</time>
      </trkpt>
      <trkpt lat="47.7969" lon="6.62512">
        <ele>525</ele>
        <time>2019-08-18T07:22:23Z</time>
      </trkpt>
      <trkpt lat="47.79659" lon="6.62509">
        <ele>525</ele>
        <time>2019-08-18T07:22:28Z</time>
      </trkpt>
      <trkpt lat="47.79627" lon="6.62516">
        <ele>524</ele>
        <time>2019-08-18T07:22:35Z</time>
      </trkpt>
      <trkpt lat="47.79601" lon="6.6251">
        <ele>524</ele>
        <time>2019-08-18T07:22:40Z</time>
      </trkpt>
      <trkpt lat="47.79568" lon="6.62495">
        <ele>522</ele>
        <time>2019-08-18T07:22:46Z</time>
      </trkpt>
      <trkpt lat="47.7952" lon="6.62479">
        <ele>520</ele>
        <time>2019-08-18T07:22:52Z</time>
      </trkpt>
      <trkpt lat="47.79481" lon="6.62479">
        <ele>518</ele>
        <time>2019-08-18T07:22:58Z</time>
      </trkpt>
      <trkpt lat="47.79446" lon="6.62477">
        <ele>518</ele>
        <time>2019-08-18T07:23:04Z</time>
      </trkpt>
      <trkpt lat="47.79424" lon="6.62469">
        <ele>517</ele>
        <time>2019-08-18T07:23:10Z</time>
      </trkpt>
      <trkpt lat="47.79393" lon="6.62456">
        <ele>515</ele>
        <time>2019-08-18T07:23:16Z</time>
      </trkpt>
      <trkpt lat="47.79337" lon="6.62454">
        <ele>513</ele>
        <time>2019-08-18T07:23:22Z</time>
      </trkpt>
      <trkpt lat="47.79296" lon="6.62483">
        <ele>510</ele>
        <time>2019-08-18T07:23:28Z</time>
      </trkpt>
      <trkpt lat="47.79258" lon="6.62464">
        <ele>504</ele>
        <time>2019-08-18T07:23:33Z</time>
      </trkpt>
      <trkpt lat="47.79247" lon="6.6245">
        <ele>497</ele>
        <time>2019-08-18T07:23:39Z</time>
      </trkpt>
      <trkpt lat="47.79268" lon="6.62467">
        <ele>491</ele>
        <time>2019-08-18T07:23:50Z</time>
      </trkpt>
      <trkpt lat="47.79263" lon="6.62466">
        <ele>488</ele>
        <time>2019-08-18T07:23:55Z</time>
      </trkpt>
      <trkpt lat="47.79249" lon="6.62449">
        <ele>486</ele>
        <time>2019-08-18T07:24:00Z</time>
      </trkpt>
      <trkpt lat="47.79233" lon="6.62418">
        <ele>483</ele>
        <time>2019-08-18T07:24:06Z</time>
      </trkpt>
      <trkpt lat="47.79225" lon="6.62388">
        <ele>481</ele>
        <time>2019-08-18T07:24:11Z</time>
      </trkpt>
      <trkpt lat="47.79213" lon="6.62352">
        <ele>478</ele>
        <time>2019-08-18T07:24:17Z</time>
      </trkpt>
      <trkpt lat="47.79197" lon="6.62365">
        <ele>476</ele>
        <time>2019-08-18T07:24:22Z</time>
      </trkpt>
      <trkpt lat="47.79168" lon="6.62394">
        <ele>474</ele>
        <time>2019-08-18T07:24:28Z</time>
      </trkpt>
      <trkpt lat="47.79142" lon="6.6237">
        <ele>470</ele>
        <time>2019-08-18T07:24:33Z</time>
      </trkpt>
      <trkpt lat="47.79115" lon="6.62367">
        <ele>469</ele>
        <time>2019-08-18T07:24:38Z</time>
      </trkpt>
      <trkpt lat="47.7908" lon="6.62363">
        <ele>467</ele>
        <time>2019-08-18T07:24:43Z</time>
      </trkpt>
      <trkpt lat="47.79039" lon="6.62317">
        <ele>462</ele>
        <time>2019-08-18T07:24:49Z</time>
      </trkpt>
      <trkpt lat="47.79025" lon="6.62285">
        <ele>459</ele>
        <time>2019-08-18T07:24:54Z</time>
      </trkpt>
      <trkpt lat="47.79022" lon="6.62259">
        <ele>458</ele>
        <time>2019-08-18T07:25:00Z</time>
      </trkpt>
      <trkpt lat="47.7902" lon="6.62244">
        <ele>458</ele>
        <time>2019-08-18T07:25:05Z</time>
      </trkpt>
      <trkpt lat="47.79017" lon="6.62232">
        <ele>458</ele>
        <time>2019-08-18T07:25:11Z</time>
      </trkpt>
      <trkpt lat="47.79016" lon="6.62217">
        <ele>458</ele>
        <time>2019-08-18T07:25:16Z</time>
      </trkpt>
      <trkpt lat="47.79015" lon="6.62202">
        <ele>459</ele>
        <time>2019-08-18T07:25:22Z</time>
      </trkpt>
      <trkpt lat="47.79018" lon="6.62191">
        <ele>459</ele>
        <time>2019-08-18T07:25:27Z</time>
      </trkpt>
      <trkpt lat="47.79018" lon="6.62176">
        <ele>459</ele>
        <time>2019-08-18T07:25:33Z</time>
      </trkpt>
      <trkpt lat="47.79018" lon="6.62164">
        <ele>461</ele>
        <time>2019-08-18T07:25:39Z</time>
      </trkpt>
      <trkpt lat="47.79017" lon="6.62151">
        <ele>462</ele>
        <time>2019-08-18T07:25:44Z</time>
      </trkpt>
      <trkpt lat="47.79018" lon="6.62138">
        <ele>464</ele>
        <time>2019-08-18T07:25:49Z</time>
      </trkpt>
      <trkpt lat="47.7902" lon="6.62127">
        <ele>465</ele>
        <time>2019-08-18T07:25:54Z</time>
      </trkpt>
      <trkpt lat="47.79023" lon="6.62117">
        <ele>465</ele>
        <time>2019-08-18T07:25:59Z</time>
      </trkpt>
      <trkpt lat="47.79032" lon="6.62099">
        <ele>466</ele>
        <time>2019-08-18T07:26:07Z</time>
      </trkpt>
      <trkpt lat="47.79039" lon="6.62083">
        <ele>466</ele>
        <time>2019-08-18T07:26:12Z</time>
      </trkpt>
      <trkpt lat="47.7905" lon="6.62065">
        <ele>466</ele>
        <time>2019-08-18T07:26:18Z</time>
      </trkpt>
      <trkpt lat="47.79059" lon="6.6205">
        <ele>467</ele>
        <time>2019-08-18T07:26:23Z</time>
      </trkpt>
      <trkpt lat="47.79064" lon="6.62029">
        <ele>468</ele>
        <time>2019-08-18T07:26:29Z</time>
      </trkpt>
      <trkpt lat="47.79068" lon="6.62011">
        <ele>467</ele>
        <time>2019-08-18T07:26:34Z</time>
      </trkpt>
      <trkpt lat="47.79074" lon="6.61987">
        <ele>468</ele>
        <time>2019-08-18T07:26:40Z</time>
      </trkpt>
      <trkpt lat="47.79082" lon="6.61964">
        <ele>469</ele>
        <time>2019-08-18T07:26:45Z</time>
      </trkpt>
      <trkpt lat="47.79086" lon="6.61942">
        <ele>470</ele>
        <time>2019-08-18T07:26:50Z</time>
      </trkpt>
      <trkpt lat="47.79081" lon="6.6191">
        <ele>470</ele>
        <time>2019-08-18T07:26:56Z</time>
      </trkpt>
      <trkpt lat="47.79074" lon="6.61893">
        <ele>472</ele>
        <time>2019-08-18T07:27:01Z</time>
      </trkpt>
      <trkpt lat="47.79064" lon="6.61874">
        <ele>475</ele>
        <time>2019-08-18T07:27:07Z</time>
      </trkpt>
      <trkpt lat="47.79049" lon="6.61855">
        <ele>476</ele>
        <time>2019-08-18T07:27:12Z</time>
      </trkpt>
      <trkpt lat="47.79034" lon="6.61822">
        <ele>475</ele>
        <time>2019-08-18T07:27:17Z</time>
      </trkpt>
      <trkpt lat="47.79033" lon="6.61779">
        <ele>478</ele>
        <time>2019-08-18T07:27:22Z</time>
      </trkpt>
      <trkpt lat="47.79031" lon="6.61746">
        <ele>478</ele>
        <time>2019-08-18T07:27:27Z</time>
      </trkpt>
      <trkpt lat="47.79031" lon="6.61713">
        <ele>478</ele>
        <time>2019-08-18T07:27:33Z</time>
      </trkpt>
      <trkpt lat="47.7903" lon="6.61688">
        <ele>479</ele>
        <time>2019-08-18T07:27:38Z</time>
      </trkpt>
      <trkpt lat="47.79023" lon="6.61664">
        <ele>478</ele>
        <time>2019-08-18T07:27:43Z</time>
      </trkpt>
      <trkpt lat="47.79018" lon="6.61644">
        <ele>478</ele>
        <time>2019-08-18T07:27:48Z</time>
      </trkpt>
      <trkpt lat="47.79014" lon="6.61621">
        <ele>478</ele>
        <time>2019-08-18T07:27:53Z</time>
      </trkpt>
      <trkpt lat="47.79012" lon="6.61601">
        <ele>477</ele>
        <time>2019-08-18T07:27:58Z</time>
      </trkpt>
      <trkpt lat="47.79006" lon="6.61586">
        <ele>478</ele>
        <time>2019-08-18T07:28:03Z</time>
      </trkpt>
      <trkpt lat="47.78998" lon="6.61567">
        <ele>481</ele>
        <time>2019-08-18T07:28:09Z</time>
      </trkpt>
      <trkpt lat="47.78988" lon="6.61553">
        <ele>481</ele>
        <time>2019-08-18T07:28:14Z</time>
      </trkpt>
      <trkpt lat="47.78979" lon="6.61536">
        <ele>483</ele>
        <time>2019-08-18T07:28:19Z</time>
      </trkpt>
      <trkpt lat="47.78978" lon="6.61509">
        <ele>484</ele>
        <time>2019-08-18T07:28:24Z</time>
      </trkpt>
      <trkpt lat="47.78982" lon="6.61471">
        <ele>485</ele>
        <time>2019-08-18T07:28:29Z</time>
      </trkpt>
      <trkpt lat="47.78981" lon="6.61444">
        <ele>486</ele>
        <time>2019-08-18T07:28:34Z</time>
      </trkpt>
      <trkpt lat="47.78979" lon="6.6142">
        <ele>486</ele>
        <time>2019-08-18T07:28:39Z</time>
      </trkpt>
      <trkpt lat="47.78976" lon="6.61397">
        <ele>487</ele>
        <time>2019-08-18T07:28:44Z</time>
      </trkpt>
      <trkpt lat="47.78977" lon="6.61373">
        <ele>489</ele>
        <time>2019-08-18T07:28:49Z</time>
      </trkpt>
      <trkpt lat="47.78985" lon="6.6135">
        <ele>490</ele>
        <time>2019-08-18T07:28:54Z</time>
      </trkpt>
      <trkpt lat="47.78996" lon="6.61328">
        <ele>492</ele>
        <time>2019-08-18T07:28:59Z</time>
      </trkpt>
      <trkpt lat="47.79015" lon="6.61295">
        <ele>493</ele>
        <time>2019-08-18T07:29:04Z</time>
      </trkpt>
      <trkpt lat="47.79026" lon="6.61266">
        <ele>494</ele>
        <time>2019-08-18T07:29:09Z</time>
      </trkpt>
      <trkpt lat="47.79025" lon="6.61224">
        <ele>493</ele>
        <time>2019-08-18T07:29:14Z</time>
      </trkpt>
      <trkpt lat="47.79011" lon="6.61179">
        <ele>493</ele>
        <time>2019-08-18T07:29:19Z</time>
      </trkpt>
      <trkpt lat="47.79009" lon="6.61134">
        <ele>493</ele>
        <time>2019-08-18T07:29:24Z</time>
      </trkpt>
      <trkpt lat="47.79022" lon="6.61091">
        <ele>493</ele>
        <time>2019-08-18T07:29:29Z</time>
      </trkpt>
      <trkpt lat="47.7901" lon="6.61041">
        <ele>492</ele>
        <time>2019-08-18T07:29:34Z</time>
      </trkpt>
      <trkpt lat="47.78989" lon="6.61001">
        <ele>490</ele>
        <time>2019-08-18T07:29:39Z</time>
      </trkpt>
      <trkpt lat="47.78951" lon="6.60976">
        <ele>489</ele>
        <time>2019-08-18T07:29:44Z</time>
      </trkpt>
      <trkpt lat="47.78919" lon="6.60953">
        <ele>488</ele>
        <time>2019-08-18T07:29:49Z</time>
      </trkpt>
      <trkpt lat="47.78885" lon="6.6093">
        <ele>486</ele>
        <time>2019-08-18T07:29:54Z</time>
      </trkpt>
      <trkpt lat="47.78826" lon="6.60889">
        <ele>484</ele>
        <time>2019-08-18T07:30:02Z</time>
      </trkpt>
      <trkpt lat="47.78807" lon="6.60852">
        <ele>484</ele>
        <time>2019-08-18T07:30:07Z</time>
      </trkpt>
      <trkpt lat="47.78796" lon="6.60809">
        <ele>484</ele>
        <time>2019-08-18T07:30:12Z</time>
      </trkpt>
      <trkpt lat="47.7877" lon="6.60808">
        <ele>484</ele>
        <time>2019-08-18T07:30:17Z</time>
      </trkpt>
      <trkpt lat="47.78738" lon="6.60819">
        <ele>484</ele>
        <time>2019-08-18T07:30:22Z</time>
      </trkpt>
      <trkpt lat="47.78703" lon="6.60819">
        <ele>484</ele>
        <time>2019-08-18T07:30:27Z</time>
      </trkpt>
      <trkpt lat="47.78672" lon="6.60783">
        <ele>481</ele>
        <time>2019-08-18T07:30:32Z</time>
      </trkpt>
      <trkpt lat="47.78642" lon="6.60773">
        <ele>482</ele>
        <time>2019-08-18T07:30:38Z</time>
      </trkpt>
      <trkpt lat="47.78633" lon="6.60761">
        <ele>482</ele>
        <time>2019-08-18T07:30:43Z</time>
      </trkpt>
      <trkpt lat="47.78615" lon="6.60746">
        <ele>481</ele>
        <time>2019-08-18T07:30:48Z</time>
      </trkpt>
      <trkpt lat="47.786" lon="6.60725">
        <ele>482</ele>
        <time>2019-08-18T07:30:53Z</time>
      </trkpt>
      <trkpt lat="47.78604" lon="6.60691">
        <ele>482</ele>
        <time>2019-08-18T07:30:58Z</time>
      </trkpt>
      <trkpt lat="47.78602" lon="6.60666">
        <ele>482</ele>
        <time>2019-08-18T07:31:03Z</time>
      </trkpt>
      <trkpt lat="47.7858" lon="6.60644">
        <ele>482</ele>
        <time>2019-08-18T07:31:08Z</time>
      </trkpt>
      <trkpt lat="47.78551" lon="6.60624">
        <ele>480</ele>
        <time>2019-08-18T07:31:13Z</time>
      </trkpt>
      <trkpt lat="47.78524" lon="6.60627">
        <ele>480</ele>
        <time>2019-08-18T07:31:18Z</time>
      </trkpt>
      <trkpt lat="47.78503" lon="6.60643">
        <ele>479</ele>
        <time>2019-08-18T07:31:23Z</time>
      </trkpt>
      <trkpt lat="47.78475" lon="6.60647">
        <ele>479</ele>
        <time>2019-08-18T07:31:28Z</time>
      </trkpt>
      <trkpt lat="47.78445" lon="6.60637">
        <ele>479</ele>
        <time>2019-08-18T07:31:33Z</time>
      </trkpt>
      <trkpt lat="47.78428" lon="6.60608">
        <ele>478</ele>
        <time>2019-08-18T07:31:38Z</time>
      </trkpt>
      <trkpt lat="47.78422" lon="6.60553">
        <ele>477</ele>
        <time>2019-08-18T07:31:43Z</time>
      </trkpt>
      <trkpt lat="47.78437" lon="6.605">
        <ele>476</ele>
        <time>2019-08-18T07:31:48Z</time>
      </trkpt>
      <trkpt lat="47.78444" lon="6.60455">
        <ele>475</ele>
        <time>2019-08-18T07:31:53Z</time>
      </trkpt>
      <trkpt lat="47.78428" lon="6.60419">
        <ele>474</ele>
        <time>2019-08-18T07:31:58Z</time>
      </trkpt>
      <trkpt lat="47.78396" lon="6.60408">
        <ele>473</ele>
        <time>2019-08-18T07:32:03Z</time>
      </trkpt>
      <trkpt lat="47.78367" lon="6.60414">
        <ele>471</ele>
        <time>2019-08-18T07:32:08Z</time>
      </trkpt>
      <trkpt lat="47.78346" lon="6.60416">
        <ele>470</ele>
        <time>2019-08-18T07:32:13Z</time>
      </trkpt>
      <trkpt lat="47.78328" lon="6.60392">
        <ele>470</ele>
        <time>2019-08-18T07:32:18Z</time>
      </trkpt>
      <trkpt lat="47.78312" lon="6.60394">
        <ele>472</ele>
        <time>2019-08-18T07:32:23Z</time>
      </trkpt>
      <trkpt lat="47.78288" lon="6.60392">
        <ele>471</ele>
        <time>2019-08-18T07:32:28Z</time>
      </trkpt>
      <trkpt lat="47.78257" lon="6.60378">
        <ele>470</ele>
        <time>2019-08-18T07:32:33Z</time>
      </trkpt>
      <trkpt lat="47.78229" lon="6.60372">
        <ele>470</ele>
        <time>2019-08-18T07:32:39Z</time>
      </trkpt>
      <trkpt lat="47.78204" lon="6.60373">
        <ele>469</ele>
        <time>2019-08-18T07:32:44Z</time>
      </trkpt>
      <trkpt lat="47.78172" lon="6.60348">
        <ele>469</ele>
        <time>2019-08-18T07:32:49Z</time>
      </trkpt>
      <trkpt lat="47.78138" lon="6.60302">
        <ele>469</ele>
        <time>2019-08-18T07:32:54Z</time>
      </trkpt>
      <trkpt lat="47.78128" lon="6.60255">
        <ele>466</ele>
        <time>2019-08-18T07:32:59Z</time>
      </trkpt>
      <trkpt lat="47.78115" lon="6.60227">
        <ele>464</ele>
        <time>2019-08-18T07:33:04Z</time>
      </trkpt>
      <trkpt lat="47.78104" lon="6.60199">
        <ele>464</ele>
        <time>2019-08-18T07:33:09Z</time>
      </trkpt>
      <trkpt lat="47.78082" lon="6.60168">
        <ele>464</ele>
        <time>2019-08-18T07:33:14Z</time>
      </trkpt>
      <trkpt lat="47.78058" lon="6.60138">
        <ele>464</ele>
        <time>2019-08-18T07:33:19Z</time>
      </trkpt>
      <trkpt lat="47.78035" lon="6.60109">
        <ele>462</ele>
        <time>2019-08-18T07:33:24Z</time>
      </trkpt>
      <trkpt lat="47.78011" lon="6.60076">
        <ele>459</ele>
        <time>2019-08-18T07:33:29Z</time>
      </trkpt>
      <trkpt lat="47.77996" lon="6.60035">
        <ele>457</ele>
        <time>2019-08-18T07:33:34Z</time>
      </trkpt>
      <trkpt lat="47.77977" lon="6.59993">
        <ele>456</ele>
        <time>2019-08-18T07:33:39Z</time>
      </trkpt>
      <trkpt lat="47.77958" lon="6.5996">
        <ele>454</ele>
        <time>2019-08-18T07:33:44Z</time>
      </trkpt>
      <trkpt lat="47.77937" lon="6.59923">
        <ele>450</ele>
        <time>2019-08-18T07:33:49Z</time>
      </trkpt>
      <trkpt lat="47.77926" lon="6.59869">
        <ele>447</ele>
        <time>2019-08-18T07:33:54Z</time>
      </trkpt>
      <trkpt lat="47.77907" lon="6.59834">
        <ele>444</ele>
        <time>2019-08-18T07:33:59Z</time>
      </trkpt>
      <trkpt lat="47.77891" lon="6.59822">
        <ele>444</ele>
        <time>2019-08-18T07:34:04Z</time>
      </trkpt>
      <trkpt lat="47.77877" lon="6.59823">
        <ele>444</ele>
        <time>2019-08-18T07:34:09Z</time>
      </trkpt>
      <trkpt lat="47.77864" lon="6.59826">
        <ele>445</ele>
        <time>2019-08-18T07:34:14Z</time>
      </trkpt>
      <trkpt lat="47.77851" lon="6.59826">
        <ele>446</ele>
        <time>2019-08-18T07:34:19Z</time>
      </trkpt>
      <trkpt lat="47.7783" lon="6.59823">
        <ele>444</ele>
        <time>2019-08-18T07:34:24Z</time>
      </trkpt>
      <trkpt lat="47.77812" lon="6.59819">
        <ele>445</ele>
        <time>2019-08-18T07:34:29Z</time>
      </trkpt>
      <trkpt lat="47.77797" lon="6.59813">
        <ele>447</ele>
        <time>2019-08-18T07:34:34Z</time>
      </trkpt>
      <trkpt lat="47.77778" lon="6.59814">
        <ele>447</ele>
        <time>2019-08-18T07:34:39Z</time>
      </trkpt>
      <trkpt lat="47.77758" lon="6.59807">
        <ele>449</ele>
        <time>2019-08-18T07:34:44Z</time>
      </trkpt>
      <trkpt lat="47.7774" lon="6.59809">
        <ele>450</ele>
        <time>2019-08-18T07:34:49Z</time>
      </trkpt>
      <trkpt lat="47.7771" lon="6.59815">
        <ele>449</ele>
        <time>2019-08-18T07:34:54Z</time>
      </trkpt>
      <trkpt lat="47.77673" lon="6.59799">
        <ele>447</ele>
        <time>2019-08-18T07:34:59Z</time>
      </trkpt>
      <trkpt lat="47.77638" lon="6.59776">
        <ele>447</ele>
        <time>2019-08-18T07:35:04Z</time>
      </trkpt>
      <trkpt lat="47.77612" lon="6.59741">
        <ele>446</ele>
        <time>2019-08-18T07:35:09Z</time>
      </trkpt>
      <trkpt lat="47.77602" lon="6.59695">
        <ele>445</ele>
        <time>2019-08-18T07:35:14Z</time>
      </trkpt>
      <trkpt lat="47.77578" lon="6.59646">
        <ele>444</ele>
        <time>2019-08-18T07:35:19Z</time>
      </trkpt>
      <trkpt lat="47.77575" lon="6.59591">
        <ele>443</ele>
        <time>2019-08-18T07:35:27Z</time>
      </trkpt>
      <trkpt lat="47.77591" lon="6.59574">
        <ele>443</ele>
        <time>2019-08-18T07:35:32Z</time>
      </trkpt>
      <trkpt lat="47.77616" lon="6.59552">
        <ele>443</ele>
        <time>2019-08-18T07:35:37Z</time>
      </trkpt>
      <trkpt lat="47.77634" lon="6.59515">
        <ele>439</ele>
        <time>2019-08-18T07:35:42Z</time>
      </trkpt>
      <trkpt lat="47.77663" lon="6.59501">
        <ele>438</ele>
        <time>2019-08-18T07:35:47Z</time>
      </trkpt>
      <trkpt lat="47.77686" lon="6.5948">
        <ele>439</ele>
        <time>2019-08-18T07:35:52Z</time>
      </trkpt>
      <trkpt lat="47.77693" lon="6.59457">
        <ele>439</ele>
        <time>2019-08-18T07:35:57Z</time>
      </trkpt>
      <trkpt lat="47.7769" lon="6.59419">
        <ele>437</ele>
        <time>2019-08-18T07:36:02Z</time>
      </trkpt>
      <trkpt lat="47.77682" lon="6.59374">
        <ele>436</ele>
        <time>2019-08-18T07:36:07Z</time>
      </trkpt>
      <trkpt lat="47.77684" lon="6.59321">
        <ele>434</ele>
        <time>2019-08-18T07:36:12Z</time>
      </trkpt>
      <trkpt lat="47.77695" lon="6.59288">
        <ele>432</ele>
        <time>2019-08-18T07:36:17Z</time>
      </trkpt>
      <trkpt lat="47.77722" lon="6.59256">
        <ele>432</ele>
        <time>2019-08-18T07:36:22Z</time>
      </trkpt>
      <trkpt lat="47.7775" lon="6.59237">
        <ele>432</ele>
        <time>2019-08-18T07:36:27Z</time>
      </trkpt>
      <trkpt lat="47.77769" lon="6.5922">
        <ele>429</ele>
        <time>2019-08-18T07:36:32Z</time>
      </trkpt>
      <trkpt lat="47.77783" lon="6.59183">
        <ele>428</ele>
        <time>2019-08-18T07:36:37Z</time>
      </trkpt>
      <trkpt lat="47.7781" lon="6.59142">
        <ele>428</ele>
        <time>2019-08-18T07:36:42Z</time>
      </trkpt>
      <trkpt lat="47.77824" lon="6.5911">
        <ele>423</ele>
        <time>2019-08-18T07:36:47Z</time>
      </trkpt>
      <trkpt lat="47.77821" lon="6.59093">
        <ele>421</ele>
        <time>2019-08-18T07:36:52Z</time>
      </trkpt>
      <trkpt lat="47.77809" lon="6.59078">
        <ele>418</ele>
        <time>2019-08-18T07:36:57Z</time>
      </trkpt>
      <trkpt lat="47.77796" lon="6.59056">
        <ele>416</ele>
        <time>2019-08-18T07:37:02Z</time>
      </trkpt>
      <trkpt lat="47.778" lon="6.59022">
        <ele>411</ele>
        <time>2019-08-18T07:37:07Z</time>
      </trkpt>
      <trkpt lat="47.77809" lon="6.58986">
        <ele>406</ele>
        <time>2019-08-18T07:37:12Z</time>
      </trkpt>
      <trkpt lat="47.778" lon="6.58958">
        <ele>407</ele>
        <time>2019-08-18T07:37:17Z</time>
      </trkpt>
      <trkpt lat="47.77797" lon="6.58934">
        <ele>408</ele>
        <time>2019-08-18T07:37:22Z</time>
      </trkpt>
      <trkpt lat="47.77796" lon="6.58917">
        <ele>410</ele>
        <time>2019-08-18T07:37:27Z</time>
      </trkpt>
      <trkpt lat="47.77794" lon="6.58901">
        <ele>412</ele>
        <time>2019-08-18T07:37:32Z</time>
      </trkpt>
      <trkpt lat="47.77798" lon="6.58881">
        <ele>413</ele>
        <time>2019-08-18T07:37:37Z</time>
      </trkpt>
      <trkpt lat="47.77802" lon="6.58864">
        <ele>414</ele>
        <time>2019-08-18T07:37:42Z</time>
      </trkpt>
      <trkpt lat="47.77804" lon="6.58849">
        <ele>414</ele>
        <time>2019-08-18T07:37:47Z</time>
      </trkpt>
      <trkpt lat="47.77803" lon="6.58836">
        <ele>415</ele>
        <time>2019-08-18T07:37:52Z</time>
      </trkpt>
      <trkpt lat="47.77807" lon="6.58696">
        <ele>402</ele>
        <time>2019-08-18T07:38:37Z</time>
      </trkpt>
      <trkpt lat="47.77809" lon="6.58675">
        <ele>397</ele>
        <time>2019-08-18T07:38:42Z</time>
      </trkpt>
      <trkpt lat="47.77811" lon="6.58668">
        <ele>395</ele>
        <time>2019-08-18T07:38:44Z</time>
      </trkpt>
      <trkpt lat="47.77831" lon="6.58471">
        <ele>427</ele>
        <time>2019-08-18T07:40:58Z</time>
      </trkpt>
      <trkpt lat="47.7781" lon="6.584">
        <ele>427</ele>
        <time>2019-08-18T07:41:05Z</time>
      </trkpt>
      <trkpt lat="47.77819" lon="6.5836">
        <ele>427</ele>
        <time>2019-08-18T07:41:10Z</time>
      </trkpt>
      <trkpt lat="47.77832" lon="6.58343">
        <ele>426</ele>
        <time>2019-08-18T07:41:15Z</time>
      </trkpt>
      <trkpt lat="47.77826" lon="6.58311">
        <ele>426</ele>
        <time>2019-08-18T07:41:20Z</time>
      </trkpt>
      <trkpt lat="47.77831" lon="6.58283">
        <ele>426</ele>
        <time>2019-08-18T07:41:25Z</time>
      </trkpt>
      <trkpt lat="47.77838" lon="6.58272">
        <ele>426</ele>
        <time>2019-08-18T07:41:30Z</time>
      </trkpt>
      <trkpt lat="47.77847" lon="6.58263">
        <ele>427</ele>
        <time>2019-08-18T07:41:35Z</time>
      </trkpt>
      <trkpt lat="47.77854" lon="6.58257">
        <ele>426</ele>
        <time>2019-08-18T07:41:40Z</time>
      </trkpt>
      <trkpt lat="47.77837" lon="6.58222">
        <ele>427</ele>
        <time>2019-08-18T07:42:51Z</time>
      </trkpt>
      <trkpt lat="47.77804" lon="6.58209">
        <ele>425</ele>
        <time>2019-08-18T07:42:56Z</time>
      </trkpt>
      <trkpt lat="47.77765" lon="6.58198">
        <ele>425</ele>
        <time>2019-08-18T07:43:01Z</time>
      </trkpt>
      <trkpt lat="47.77731" lon="6.58193">
        <ele>424</ele>
        <time>2019-08-18T07:43:06Z</time>
      </trkpt>
      <trkpt lat="47.77696" lon="6.58189">
        <ele>424</ele>
        <time>2019-08-18T07:43:12Z</time>
      </trkpt>
      <trkpt lat="47.77674" lon="6.58186">
        <ele>425</ele>
        <time>2019-08-18T07:43:17Z</time>
      </trkpt>
      <trkpt lat="47.77655" lon="6.58176">
        <ele>426</ele>
        <time>2019-08-18T07:43:22Z</time>
      </trkpt>
      <trkpt lat="47.77642" lon="6.58161">
        <ele>426</ele>
        <time>2019-08-18T07:43:27Z</time>
      </trkpt>
      <trkpt lat="47.77648" lon="6.58139">
        <ele>425</ele>
        <time>2019-08-18T07:43:32Z</time>
      </trkpt>
      <trkpt lat="47.7766" lon="6.5811">
        <ele>424</ele>
        <time>2019-08-18T07:43:38Z</time>
      </trkpt>
      <trkpt lat="47.77675" lon="6.58079">
        <ele>424</ele>
        <time>2019-08-18T07:43:43Z</time>
      </trkpt>
      <trkpt lat="47.77689" lon="6.58044">
        <ele>424</ele>
        <time>2019-08-18T07:43:48Z</time>
      </trkpt>
      <trkpt lat="47.77715" lon="6.58003">
        <ele>423</ele>
        <time>2019-08-18T07:43:53Z</time>
      </trkpt>
      <trkpt lat="47.77737" lon="6.57966">
        <ele>423</ele>
        <time>2019-08-18T07:43:58Z</time>
      </trkpt>
      <trkpt lat="47.77754" lon="6.57939">
        <ele>424</ele>
        <time>2019-08-18T07:44:03Z</time>
      </trkpt>
      <trkpt lat="47.77783" lon="6.57908">
        <ele>424</ele>
        <time>2019-08-18T07:44:10Z</time>
      </trkpt>
      <trkpt lat="47.77812" lon="6.57888">
        <ele>423</ele>
        <time>2019-08-18T07:44:15Z</time>
      </trkpt>
      <trkpt lat="47.77829" lon="6.57858">
        <ele>423</ele>
        <time>2019-08-18T07:44:20Z</time>
      </trkpt>
      <trkpt lat="47.77836" lon="6.57809">
        <ele>422</ele>
        <time>2019-08-18T07:44:25Z</time>
      </trkpt>
      <trkpt lat="47.77829" lon="6.57753">
        <ele>421</ele>
        <time>2019-08-18T07:44:30Z</time>
      </trkpt>
      <trkpt lat="47.77834" lon="6.57697">
        <ele>421</ele>
        <time>2019-08-18T07:44:35Z</time>
      </trkpt>
      <trkpt lat="47.77847" lon="6.57668">
        <ele>421</ele>
        <time>2019-08-18T07:44:40Z</time>
      </trkpt>
      <trkpt lat="47.77865" lon="6.57657">
        <ele>421</ele>
        <time>2019-08-18T07:44:45Z</time>
      </trkpt>
      <trkpt lat="47.77883" lon="6.57643">
        <ele>422</ele>
        <time>2019-08-18T07:44:50Z</time>
      </trkpt>
      <trkpt lat="47.77918" lon="6.57605">
        <ele>423</ele>
        <time>2019-08-18T07:44:58Z</time>
      </trkpt>
      <trkpt lat="47.77945" lon="6.57578">
        <ele>422</ele>
        <time>2019-08-18T07:45:03Z</time>
      </trkpt>
      <trkpt lat="47.77976" lon="6.57557">
        <ele>421</ele>
        <time>2019-08-18T07:45:08Z</time>
      </trkpt>
      <trkpt lat="47.78006" lon="6.5754">
        <ele>420</ele>
        <time>2019-08-18T07:45:13Z</time>
      </trkpt>
      <trkpt lat="47.78033" lon="6.57515">
        <ele>420</ele>
        <time>2019-08-18T07:45:18Z</time>
      </trkpt>
      <trkpt lat="47.7806" lon="6.57479">
        <ele>419</ele>
        <time>2019-08-18T07:45:23Z</time>
      </trkpt>
      <trkpt lat="47.78088" lon="6.57449">
        <ele>417</ele>
        <time>2019-08-18T07:45:28Z</time>
      </trkpt>
      <trkpt lat="47.78099" lon="6.57407">
        <ele>415</ele>
        <time>2019-08-18T07:45:33Z</time>
      </trkpt>
      <trkpt lat="47.78114" lon="6.57364">
        <ele>414</ele>
        <time>2019-08-18T07:45:38Z</time>
      </trkpt>
      <trkpt lat="47.78145" lon="6.57354">
        <ele>414</ele>
        <time>2019-08-18T07:45:43Z</time>
      </trkpt>
      <trkpt lat="47.78168" lon="6.57343">
        <ele>416</ele>
        <time>2019-08-18T07:45:48Z</time>
      </trkpt>
      <trkpt lat="47.78184" lon="6.57341">
        <ele>418</ele>
        <time>2019-08-18T07:45:53Z</time>
      </trkpt>
      <trkpt lat="47.78198" lon="6.5735">
        <ele>417</ele>
        <time>2019-08-18T07:45:58Z</time>
      </trkpt>
      <trkpt lat="47.78206" lon="6.57369">
        <ele>416</ele>
        <time>2019-08-18T07:46:03Z</time>
      </trkpt>
      <trkpt lat="47.78215" lon="6.57389">
        <ele>414</ele>
        <time>2019-08-18T07:46:08Z</time>
      </trkpt>
      <trkpt lat="47.78221" lon="6.57402">
        <ele>416</ele>
        <time>2019-08-18T07:46:13Z</time>
      </trkpt>
      <trkpt lat="47.78223" lon="6.5742">
        <ele>418</ele>
        <time>2019-08-18T07:46:18Z</time>
      </trkpt>
      <trkpt lat="47.78225" lon="6.57438">
        <ele>419</ele>
        <time>2019-08-18T07:46:23Z</time>
      </trkpt>
      <trkpt lat="47.78227" lon="6.57465">
        <ele>421</ele>
        <time>2019-08-18T07:46:28Z</time>
      </trkpt>
      <trkpt lat="47.78228" lon="6.57496">
        <ele>421</ele>
        <time>2019-08-18T07:46:33Z</time>
      </trkpt>
      <trkpt lat="47.7824" lon="6.5752">
        <ele>421</ele>
        <time>2019-08-18T07:46:38Z</time>
      </trkpt>
      <trkpt lat="47.78257" lon="6.57525">
        <ele>422</ele>
        <time>2019-08-18T07:46:43Z</time>
      </trkpt>
      <trkpt lat="47.78276" lon="6.5754">
        <ele>425</ele>
        <time>2019-08-18T07:46:48Z</time>
      </trkpt>
      <trkpt lat="47.78289" lon="6.57547">
        <ele>427</ele>
        <time>2019-08-18T07:46:53Z</time>
      </trkpt>
      <trkpt lat="47.78299" lon="6.57549">
        <ele>430</ele>
        <time>2019-08-18T07:46:58Z</time>
      </trkpt>
      <trkpt lat="47.78313" lon="6.57552">
        <ele>430</ele>
        <time>2019-08-18T07:47:03Z</time>
      </trkpt>
      <trkpt lat="47.78323" lon="6.57549">
        <ele>431</ele>
        <time>2019-08-18T07:47:08Z</time>
      </trkpt>
      <trkpt lat="47.78339" lon="6.57543">
        <ele>433</ele>
        <time>2019-08-18T07:47:15Z</time>
      </trkpt>
      <trkpt lat="47.78357" lon="6.57553">
        <ele>431</ele>
        <time>2019-08-18T07:47:20Z</time>
      </trkpt>
      <trkpt lat="47.78364" lon="6.57585">
        <ele>429</ele>
        <time>2019-08-18T07:47:25Z</time>
      </trkpt>
      <trkpt lat="47.78387" lon="6.57597">
        <ele>429</ele>
        <time>2019-08-18T07:47:30Z</time>
      </trkpt>
      <trkpt lat="47.78411" lon="6.57592">
        <ele>429</ele>
        <time>2019-08-18T07:47:35Z</time>
      </trkpt>
      <trkpt lat="47.7844" lon="6.57583">
        <ele>430</ele>
        <time>2019-08-18T07:47:40Z</time>
      </trkpt>
      <trkpt lat="47.78461" lon="6.57581">
        <ele>429</ele>
        <time>2019-08-18T07:47:45Z</time>
      </trkpt>
      <trkpt lat="47.78478" lon="6.57577">
        <ele>430</ele>
        <time>2019-08-18T07:47:50Z</time>
      </trkpt>
      <trkpt lat="47.7849" lon="6.57576">
        <ele>431</ele>
        <time>2019-08-18T07:47:55Z</time>
      </trkpt>
      <trkpt lat="47.78506" lon="6.57575">
        <ele>430</ele>
        <time>2019-08-18T07:48:00Z</time>
      </trkpt>
      <trkpt lat="47.78524" lon="6.5757">
        <ele>431</ele>
        <time>2019-08-18T07:48:05Z</time>
      </trkpt>
      <trkpt lat="47.78544" lon="6.57564">
        <ele>434</ele>
        <time>2019-08-18T07:48:12Z</time>
      </trkpt>
      <trkpt lat="47.78552" lon="6.57564">
        <ele>434</ele>
        <time>2019-08-18T07:48:17Z</time>
      </trkpt>
      <trkpt lat="47.78666" lon="6.57523">
        <ele>434</ele>
        <time>2019-08-18T07:49:12Z</time>
      </trkpt>
      <trkpt lat="47.78669" lon="6.57491">
        <ele>430</ele>
        <time>2019-08-18T07:49:17Z</time>
      </trkpt>
      <trkpt lat="47.78672" lon="6.57454">
        <ele>428</ele>
        <time>2019-08-18T07:49:22Z</time>
      </trkpt>
      <trkpt lat="47.7868" lon="6.57399">
        <ele>430</ele>
        <time>2019-08-18T07:49:27Z</time>
      </trkpt>
      <trkpt lat="47.78682" lon="6.57367">
        <ele>428</ele>
        <time>2019-08-18T07:49:32Z</time>
      </trkpt>
      <trkpt lat="47.78679" lon="6.57335">
        <ele>426</ele>
        <time>2019-08-18T07:49:37Z</time>
      </trkpt>
      <trkpt lat="47.78685" lon="6.57303">
        <ele>424</ele>
        <time>2019-08-18T07:49:42Z</time>
      </trkpt>
      <trkpt lat="47.78713" lon="6.57241">
        <ele>430</ele>
        <time>2019-08-18T07:50:02Z</time>
      </trkpt>
      <trkpt lat="47.78726" lon="6.5723">
        <ele>431</ele>
        <time>2019-08-18T07:50:07Z</time>
      </trkpt>
      <trkpt lat="47.78737" lon="6.57223">
        <ele>431</ele>
        <time>2019-08-18T07:50:12Z</time>
      </trkpt>
      <trkpt lat="47.78757" lon="6.57226">
        <ele>433</ele>
        <time>2019-08-18T07:50:21Z</time>
      </trkpt>
      <trkpt lat="47.78773" lon="6.5723">
        <ele>432</ele>
        <time>2019-08-18T07:50:26Z</time>
      </trkpt>
      <trkpt lat="47.78788" lon="6.57234">
        <ele>433</ele>
        <time>2019-08-18T07:50:31Z</time>
      </trkpt>
      <trkpt lat="47.78802" lon="6.57237">
        <ele>434</ele>
        <time>2019-08-18T07:50:36Z</time>
      </trkpt>
      <trkpt lat="47.78812" lon="6.57251">
        <ele>434</ele>
        <time>2019-08-18T07:50:41Z</time>
      </trkpt>
      <trkpt lat="47.78827" lon="6.57264">
        <ele>434</ele>
        <time>2019-08-18T07:50:46Z</time>
      </trkpt>
      <trkpt lat="47.78844" lon="6.57276">
        <ele>435</ele>
        <time>2019-08-18T07:50:51Z</time>
      </trkpt>
      <trkpt lat="47.78866" lon="6.57284">
        <ele>435</ele>
        <time>2019-08-18T07:50:56Z</time>
      </trkpt>
      <trkpt lat="47.78887" lon="6.57284">
        <ele>435</ele>
        <time>2019-08-18T07:51:01Z</time>
      </trkpt>
      <trkpt lat="47.78907" lon="6.57275">
        <ele>436</ele>
        <time>2019-08-18T07:51:06Z</time>
      </trkpt>
      <trkpt lat="47.78922" lon="6.57255">
        <ele>437</ele>
        <time>2019-08-18T07:51:11Z</time>
      </trkpt>
      <trkpt lat="47.78942" lon="6.5726">
        <ele>437</ele>
        <time>2019-08-18T07:51:17Z</time>
      </trkpt>
      <trkpt lat="47.78956" lon="6.57267">
        <ele>438</ele>
        <time>2019-08-18T07:51:22Z</time>
      </trkpt>
      <trkpt lat="47.7897" lon="6.57267">
        <ele>439</ele>
        <time>2019-08-18T07:51:27Z</time>
      </trkpt>
      <trkpt lat="47.78989" lon="6.57256">
        <ele>440</ele>
        <time>2019-08-18T07:51:32Z</time>
      </trkpt>
      <trkpt lat="47.79016" lon="6.57247">
        <ele>441</ele>
        <time>2019-08-18T07:51:40Z</time>
      </trkpt>
      <trkpt lat="47.79039" lon="6.57233">
        <ele>441</ele>
        <time>2019-08-18T07:51:46Z</time>
      </trkpt>
      <trkpt lat="47.79053" lon="6.57237">
        <ele>441</ele>
        <time>2019-08-18T07:51:51Z</time>
      </trkpt>
      <trkpt lat="47.79068" lon="6.57259">
        <ele>438</ele>
        <time>2019-08-18T07:51:57Z</time>
      </trkpt>
      <trkpt lat="47.79076" lon="6.57282">
        <ele>439</ele>
        <time>2019-08-18T07:52:02Z</time>
      </trkpt>
      <trkpt lat="47.79084" lon="6.57307">
        <ele>439</ele>
        <time>2019-08-18T07:52:07Z</time>
      </trkpt>
      <trkpt lat="47.79101" lon="6.5733">
        <ele>442</ele>
        <time>2019-08-18T07:52:13Z</time>
      </trkpt>
      <trkpt lat="47.79116" lon="6.57327">
        <ele>443</ele>
        <time>2019-08-18T07:52:19Z</time>
      </trkpt>
      <trkpt lat="47.79136" lon="6.57325">
        <ele>445</ele>
        <time>2019-08-18T07:52:25Z</time>
      </trkpt>
      <trkpt lat="47.79152" lon="6.57326">
        <ele>446</ele>
        <time>2019-08-18T07:52:30Z</time>
      </trkpt>
      <trkpt lat="47.79169" lon="6.57322">
        <ele>449</ele>
        <time>2019-08-18T07:52:36Z</time>
      </trkpt>
      <trkpt lat="47.79182" lon="6.57313">
        <ele>449</ele>
        <time>2019-08-18T07:52:41Z</time>
      </trkpt>
      <trkpt lat="47.79195" lon="6.57304">
        <ele>451</ele>
        <time>2019-08-18T07:52:46Z</time>
      </trkpt>
      <trkpt lat="47.79227" lon="6.57262">
        <ele>455</ele>
        <time>2019-08-18T07:52:55Z</time>
      </trkpt>
      <trkpt lat="47.79252" lon="6.57246">
        <ele>454</ele>
        <time>2019-08-18T07:53:00Z</time>
      </trkpt>
      <trkpt lat="47.7928" lon="6.57221">
        <ele>454</ele>
        <time>2019-08-18T07:53:06Z</time>
      </trkpt>
      <trkpt lat="47.79302" lon="6.57198">
        <ele>455</ele>
        <time>2019-08-18T07:53:11Z</time>
      </trkpt>
      <trkpt lat="47.7932" lon="6.57174">
        <ele>455</ele>
        <time>2019-08-18T07:53:16Z</time>
      </trkpt>
      <trkpt lat="47.79337" lon="6.57157">
        <ele>454</ele>
        <time>2019-08-18T07:53:21Z</time>
      </trkpt>
      <trkpt lat="47.7935" lon="6.57145">
        <ele>454</ele>
        <time>2019-08-18T07:53:26Z</time>
      </trkpt>
      <trkpt lat="47.79372" lon="6.5714">
        <ele>455</ele>
        <time>2019-08-18T07:53:32Z</time>
      </trkpt>
      <trkpt lat="47.79395" lon="6.57144">
        <ele>456</ele>
        <time>2019-08-18T07:53:37Z</time>
      </trkpt>
      <trkpt lat="47.79424" lon="6.57154">
        <ele>456</ele>
        <time>2019-08-18T07:53:43Z</time>
      </trkpt>
      <trkpt lat="47.79435" lon="6.57151">
        <ele>458</ele>
        <time>2019-08-18T07:53:48Z</time>
      </trkpt>
      <trkpt lat="47.79449" lon="6.57142">
        <ele>458</ele>
        <time>2019-08-18T07:53:53Z</time>
      </trkpt>
      <trkpt lat="47.7946" lon="6.57123">
        <ele>458</ele>
        <time>2019-08-18T07:53:59Z</time>
      </trkpt>
      <trkpt lat="47.79466" lon="6.57103">
        <ele>458</ele>
        <time>2019-08-18T07:54:04Z</time>
      </trkpt>
      <trkpt lat="47.79474" lon="6.57082">
        <ele>458</ele>
        <time>2019-08-18T07:54:10Z</time>
      </trkpt>
      <trkpt lat="47.79483" lon="6.57068">
        <ele>460</ele>
        <time>2019-08-18T07:54:15Z</time>
      </trkpt>
      <trkpt lat="47.79493" lon="6.57055">
        <ele>462</ele>
        <time>2019-08-18T07:54:20Z</time>
      </trkpt>
      <trkpt lat="47.79504" lon="6.57043">
        <ele>462</ele>
        <time>2019-08-18T07:54:25Z</time>
      </trkpt>
      <trkpt lat="47.79514" lon="6.57032">
        <ele>464</ele>
        <time>2019-08-18T07:54:30Z</time>
      </trkpt>
      <trkpt lat="47.79525" lon="6.57022">
        <ele>465</ele>
        <time>2019-08-18T07:54:35Z</time>
      </trkpt>
      <trkpt lat="47.79538" lon="6.57014">
        <ele>467</ele>
        <time>2019-08-18T07:54:40Z</time>
      </trkpt>
      <trkpt lat="47.79551" lon="6.57005">
        <ele>467</ele>
        <time>2019-08-18T07:54:45Z</time>
      </trkpt>
      <trkpt lat="47.7956" lon="6.56986">
        <ele>467</ele>
        <time>2019-08-18T07:54:50Z</time>
      </trkpt>
      <trkpt lat="47.79566" lon="6.56965">
        <ele>467</ele>
        <time>2019-08-18T07:54:55Z</time>
      </trkpt>
      <trkpt lat="47.79572" lon="6.56944">
        <ele>469</ele>
        <time>2019-08-18T07:55:00Z</time>
      </trkpt>
      <trkpt lat="47.79577" lon="6.56925">
        <ele>468</ele>
        <time>2019-08-18T07:55:05Z</time>
      </trkpt>
      <trkpt lat="47.79578" lon="6.56908">
        <ele>470</ele>
        <time>2019-08-18T07:55:10Z</time>
      </trkpt>
      <trkpt lat="47.79576" lon="6.56892">
        <ele>471</ele>
        <time>2019-08-18T07:55:15Z</time>
      </trkpt>
      <trkpt lat="47.79577" lon="6.56874">
        <ele>474</ele>
        <time>2019-08-18T07:55:20Z</time>
      </trkpt>
      <trkpt lat="47.79583" lon="6.56857">
        <ele>478</ele>
        <time>2019-08-18T07:55:25Z</time>
      </trkpt>
      <trkpt lat="47.7959" lon="6.56845">
        <ele>480</ele>
        <time>2019-08-18T07:55:30Z</time>
      </trkpt>
      <trkpt lat="47.79598" lon="6.56836">
        <ele>481</ele>
        <time>2019-08-18T07:55:35Z</time>
      </trkpt>
      <trkpt lat="47.79609" lon="6.56823">
        <ele>482</ele>
        <time>2019-08-18T07:55:40Z</time>
      </trkpt>
      <trkpt lat="47.79618" lon="6.56805">
        <ele>482</ele>
        <time>2019-08-18T07:55:45Z</time>
      </trkpt>
      <trkpt lat="47.79623" lon="6.56782">
        <ele>480</ele>
        <time>2019-08-18T07:55:50Z</time>
      </trkpt>
      <trkpt lat="47.79628" lon="6.56761">
        <ele>480</ele>
        <time>2019-08-18T07:55:55Z</time>
      </trkpt>
      <trkpt lat="47.79644" lon="6.56768">
        <ele>480</ele>
        <time>2019-08-18T07:56:00Z</time>
      </trkpt>
      <trkpt lat="47.79667" lon="6.56793">
        <ele>477</ele>
        <time>2019-08-18T07:56:05Z</time>
      </trkpt>
      <trkpt lat="47.79678" lon="6.5683">
        <ele>477</ele>
        <time>2019-08-18T07:56:10Z</time>
      </trkpt>
      <trkpt lat="47.79696" lon="6.56858">
        <ele>475</ele>
        <time>2019-08-18T07:56:15Z</time>
      </trkpt>
      <trkpt lat="47.79717" lon="6.56851">
        <ele>474</ele>
        <time>2019-08-18T07:56:20Z</time>
      </trkpt>
      <trkpt lat="47.79729" lon="6.56836">
        <ele>474</ele>
        <time>2019-08-18T07:56:25Z</time>
      </trkpt>
      <trkpt lat="47.79738" lon="6.56825">
        <ele>474</ele>
        <time>2019-08-18T07:56:30Z</time>
      </trkpt>
      <trkpt lat="47.79749" lon="6.56816">
        <ele>474</ele>
        <time>2019-08-18T07:56:35Z</time>
      </trkpt>
      <trkpt lat="47.79762" lon="6.56814">
        <ele>475</ele>
        <time>2019-08-18T07:56:40Z</time>
      </trkpt>
      <trkpt lat="47.79776" lon="6.56813">
        <ele>475</ele>
        <time>2019-08-18T07:56:45Z</time>
      </trkpt>
      <trkpt lat="47.7979" lon="6.56808">
        <ele>476</ele>
        <time>2019-08-18T07:56:50Z</time>
      </trkpt>
      <trkpt lat="47.79801" lon="6.56792">
        <ele>476</ele>
        <time>2019-08-18T07:56:55Z</time>
      </trkpt>
      <trkpt lat="47.79812" lon="6.56777">
        <ele>477</ele>
        <time>2019-08-18T07:57:00Z</time>
      </trkpt>
      <trkpt lat="47.79823" lon="6.56762">
        <ele>478</ele>
        <time>2019-08-18T07:57:05Z</time>
      </trkpt>
      <trkpt lat="47.79837" lon="6.56755">
        <ele>479</ele>
        <time>2019-08-18T07:57:10Z</time>
      </trkpt>
      <trkpt lat="47.79849" lon="6.5675">
        <ele>480</ele>
        <time>2019-08-18T07:57:15Z</time>
      </trkpt>
      <trkpt lat="47.7986" lon="6.56738">
        <ele>481</ele>
        <time>2019-08-18T07:57:21Z</time>
      </trkpt>
      <trkpt lat="47.79869" lon="6.56727">
        <ele>481</ele>
        <time>2019-08-18T07:57:26Z</time>
      </trkpt>
      <trkpt lat="47.79878" lon="6.5671">
        <ele>482</ele>
        <time>2019-08-18T07:57:31Z</time>
      </trkpt>
      <trkpt lat="47.79889" lon="6.56694">
        <ele>484</ele>
        <time>2019-08-18T07:57:36Z</time>
      </trkpt>
      <trkpt lat="47.79902" lon="6.5668">
        <ele>483</ele>
        <time>2019-08-18T07:57:41Z</time>
      </trkpt>
      <trkpt lat="47.79914" lon="6.56671">
        <ele>484</ele>
        <time>2019-08-18T07:57:46Z</time>
      </trkpt>
      <trkpt lat="47.79927" lon="6.56661">
        <ele>484</ele>
        <time>2019-08-18T07:57:51Z</time>
      </trkpt>
      <trkpt lat="47.79939" lon="6.56654">
        <ele>485</ele>
        <time>2019-08-18T07:57:56Z</time>
      </trkpt>
      <trkpt lat="47.79948" lon="6.56644">
        <ele>486</ele>
        <time>2019-08-18T07:58:01Z</time>
      </trkpt>
      <trkpt lat="47.79958" lon="6.56632">
        <ele>488</ele>
        <time>2019-08-18T07:58:06Z</time>
      </trkpt>
      <trkpt lat="47.79969" lon="6.56621">
        <ele>489</ele>
        <time>2019-08-18T07:58:11Z</time>
      </trkpt>
      <trkpt lat="47.79981" lon="6.5661">
        <ele>489</ele>
        <time>2019-08-18T07:58:16Z</time>
      </trkpt>
      <trkpt lat="47.79989" lon="6.56603">
        <ele>490</ele>
        <time>2019-08-18T07:58:21Z</time>
      </trkpt>
      <trkpt lat="47.80022" lon="6.56543">
        <ele>493</ele>
        <time>2019-08-18T07:58:43Z</time>
      </trkpt>
      <trkpt lat="47.80029" lon="6.56525">
        <ele>494</ele>
        <time>2019-08-18T07:58:48Z</time>
      </trkpt>
      <trkpt lat="47.80037" lon="6.56508">
        <ele>494</ele>
        <time>2019-08-18T07:58:53Z</time>
      </trkpt>
      <trkpt lat="47.80045" lon="6.56492">
        <ele>494</ele>
        <time>2019-08-18T07:58:58Z</time>
      </trkpt>
      <trkpt lat="47.80055" lon="6.56472">
        <ele>494</ele>
        <time>2019-08-18T07:59:03Z</time>
      </trkpt>
      <trkpt lat="47.80071" lon="6.56458">
        <ele>495</ele>
        <time>2019-08-18T07:59:08Z</time>
      </trkpt>
      <trkpt lat="47.80091" lon="6.56446">
        <ele>493</ele>
        <time>2019-08-18T07:59:13Z</time>
      </trkpt>
      <trkpt lat="47.80109" lon="6.56441">
        <ele>493</ele>
        <time>2019-08-18T07:59:18Z</time>
      </trkpt>
      <trkpt lat="47.80127" lon="6.56436">
        <ele>492</ele>
        <time>2019-08-18T07:59:23Z</time>
      </trkpt>
      <trkpt lat="47.80146" lon="6.5643">
        <ele>492</ele>
        <time>2019-08-18T07:59:28Z</time>
      </trkpt>
      <trkpt lat="47.80164" lon="6.56418">
        <ele>491</ele>
        <time>2019-08-18T07:59:33Z</time>
      </trkpt>
      <trkpt lat="47.80177" lon="6.56408">
        <ele>491</ele>
        <time>2019-08-18T07:59:38Z</time>
      </trkpt>
      <trkpt lat="47.80186" lon="6.56393">
        <ele>490</ele>
        <time>2019-08-18T07:59:43Z</time>
      </trkpt>
      <trkpt lat="47.80197" lon="6.56375">
        <ele>490</ele>
        <time>2019-08-18T07:59:48Z</time>
      </trkpt>
      <trkpt lat="47.80198" lon="6.56352">
        <ele>491</ele>
        <time>2019-08-18T07:59:53Z</time>
      </trkpt>
      <trkpt lat="47.80186" lon="6.56331">
        <ele>491</ele>
        <time>2019-08-18T07:59:58Z</time>
      </trkpt>
      <trkpt lat="47.80178" lon="6.56307">
        <ele>491</ele>
        <time>2019-08-18T08:00:03Z</time>
      </trkpt>
      <trkpt lat="47.80186" lon="6.56291">
        <ele>492</ele>
        <time>2019-08-18T08:00:08Z</time>
      </trkpt>
      <trkpt lat="47.80203" lon="6.56288">
        <ele>491</ele>
        <time>2019-08-18T08:00:13Z</time>
      </trkpt>
      <trkpt lat="47.80223" lon="6.56279">
        <ele>489</ele>
        <time>2019-08-18T08:00:18Z</time>
      </trkpt>
      <trkpt lat="47.80243" lon="6.56277">
        <ele>489</ele>
        <time>2019-08-18T08:00:23Z</time>
      </trkpt>
      <trkpt lat="47.80259" lon="6.56267">
        <ele>491</ele>
        <time>2019-08-18T08:00:28Z</time>
      </trkpt>
      <trkpt lat="47.80274" lon="6.56254">
        <ele>493</ele>
        <time>2019-08-18T08:00:33Z</time>
      </trkpt>
      <trkpt lat="47.80288" lon="6.5624">
        <ele>493</ele>
        <time>2019-08-18T08:00:38Z</time>
      </trkpt>
      <trkpt lat="47.80302" lon="6.56226">
        <ele>495</ele>
        <time>2019-08-18T08:00:43Z</time>
      </trkpt>
      <trkpt lat="47.80311" lon="6.56211">
        <ele>496</ele>
        <time>2019-08-18T08:00:48Z</time>
      </trkpt>
      <trkpt lat="47.80448" lon="6.56379">
        <ele>502</ele>
        <time>2019-08-18T08:02:14Z</time>
      </trkpt>
      <trkpt lat="47.8046" lon="6.56405">
        <ele>502</ele>
        <time>2019-08-18T08:02:19Z</time>
      </trkpt>
      <trkpt lat="47.80471" lon="6.56436">
        <ele>500</ele>
        <time>2019-08-18T08:02:24Z</time>
      </trkpt>
      <trkpt lat="47.80479" lon="6.56476">
        <ele>503</ele>
        <time>2019-08-18T08:02:29Z</time>
      </trkpt>
      <trkpt lat="47.80479" lon="6.56514">
        <ele>503</ele>
        <time>2019-08-18T08:02:34Z</time>
      </trkpt>
      <trkpt lat="47.80471" lon="6.56564">
        <ele>502</ele>
        <time>2019-08-18T08:02:39Z</time>
      </trkpt>
      <trkpt lat="47.80458" lon="6.56639">
        <ele>495</ele>
        <time>2019-08-18T08:02:45Z</time>
      </trkpt>
      <trkpt lat="47.80455" lon="6.56687">
        <ele>493</ele>
        <time>2019-08-18T08:02:50Z</time>
      </trkpt>
      <trkpt lat="47.80459" lon="6.5673">
        <ele>493</ele>
        <time>2019-08-18T08:02:55Z</time>
      </trkpt>
      <trkpt lat="47.80453" lon="6.56759">
        <ele>491</ele>
        <time>2019-08-18T08:03:00Z</time>
      </trkpt>
      <trkpt lat="47.80472" lon="6.56771">
        <ele>490</ele>
        <time>2019-08-18T08:03:05Z</time>
      </trkpt>
      <trkpt lat="47.80497" lon="6.56784">
        <ele>489</ele>
        <time>2019-08-18T08:03:10Z</time>
      </trkpt>
      <trkpt lat="47.80524" lon="6.568">
        <ele>489</ele>
        <time>2019-08-18T08:03:15Z</time>
      </trkpt>
      <trkpt lat="47.80547" lon="6.56818">
        <ele>488</ele>
        <time>2019-08-18T08:03:20Z</time>
      </trkpt>
      <trkpt lat="47.80565" lon="6.56834">
        <ele>488</ele>
        <time>2019-08-18T08:03:25Z</time>
      </trkpt>
      <trkpt lat="47.80584" lon="6.56851">
        <ele>488</ele>
        <time>2019-08-18T08:03:30Z</time>
      </trkpt>
      <trkpt lat="47.80604" lon="6.56869">
        <ele>489</ele>
        <time>2019-08-18T08:03:35Z</time>
      </trkpt>
      <trkpt lat="47.80594" lon="6.56903">
        <ele>489</ele>
        <time>2019-08-18T08:03:40Z</time>
      </trkpt>
      <trkpt lat="47.80581" lon="6.56938">
        <ele>488</ele>
        <time>2019-08-18T08:03:45Z</time>
      </trkpt>
      <trkpt lat="47.80586" lon="6.56975">
        <ele>488</ele>
        <time>2019-08-18T08:03:50Z</time>
      </trkpt>
      <trkpt lat="47.80591" lon="6.57005">
        <ele>489</ele>
        <time>2019-08-18T08:03:55Z</time>
      </trkpt>
      <trkpt lat="47.80602" lon="6.57034">
        <ele>489</ele>
        <time>2019-08-18T08:04:00Z</time>
      </trkpt>
      <trkpt lat="47.80616" lon="6.57072">
        <ele>487</ele>
        <time>2019-08-18T08:04:05Z</time>
      </trkpt>
      <trkpt lat="47.80612" lon="6.57114">
        <ele>485</ele>
        <time>2019-08-18T08:04:10Z</time>
      </trkpt>
      <trkpt lat="47.80602" lon="6.57151">
        <ele>484</ele>
        <time>2019-08-18T08:04:15Z</time>
      </trkpt>
      <trkpt lat="47.80601" lon="6.57187">
        <ele>484</ele>
        <time>2019-08-18T08:04:20Z</time>
      </trkpt>
      <trkpt lat="47.80597" lon="6.57226">
        <ele>485</ele>
        <time>2019-08-18T08:04:25Z</time>
      </trkpt>
      <trkpt lat="47.80603" lon="6.5726">
        <ele>485</ele>
        <time>2019-08-18T08:04:30Z</time>
      </trkpt>
      <trkpt lat="47.80603" lon="6.5729">
        <ele>486</ele>
        <time>2019-08-18T08:04:35Z</time>
      </trkpt>
      <trkpt lat="47.8061" lon="6.57317">
        <ele>488</ele>
        <time>2019-08-18T08:04:40Z</time>
      </trkpt>
      <trkpt lat="47.8061" lon="6.57343">
        <ele>489</ele>
        <time>2019-08-18T08:04:45Z</time>
      </trkpt>
      <trkpt lat="47.80613" lon="6.57369">
        <ele>489</ele>
        <time>2019-08-18T08:04:50Z</time>
      </trkpt>
      <trkpt lat="47.80612" lon="6.5741">
        <ele>490</ele>
        <time>2019-08-18T08:04:55Z</time>
      </trkpt>
      <trkpt lat="47.80606" lon="6.57439">
        <ele>491</ele>
        <time>2019-08-18T08:05:00Z</time>
      </trkpt>
      <trkpt lat="47.80598" lon="6.57465">
        <ele>492</ele>
        <time>2019-08-18T08:05:05Z</time>
      </trkpt>
      <trkpt lat="47.8059" lon="6.57491">
        <ele>492</ele>
        <time>2019-08-18T08:05:10Z</time>
      </trkpt>
      <trkpt lat="47.8058" lon="6.57522">
        <ele>493</ele>
        <time>2019-08-18T08:05:15Z</time>
      </trkpt>
      <trkpt lat="47.8056" lon="6.57559">
        <ele>491</ele>
        <time>2019-08-18T08:05:20Z</time>
      </trkpt>
      <trkpt lat="47.80553" lon="6.5758">
        <ele>491</ele>
        <time>2019-08-18T08:05:25Z</time>
      </trkpt>
      <trkpt lat="47.80566" lon="6.57613">
        <ele>494</ele>
        <time>2019-08-18T08:05:34Z</time>
      </trkpt>
      <trkpt lat="47.80576" lon="6.57637">
        <ele>494</ele>
        <time>2019-08-18T08:05:39Z</time>
      </trkpt>
      <trkpt lat="47.80581" lon="6.57668">
        <ele>495</ele>
        <time>2019-08-18T08:05:44Z</time>
      </trkpt>
      <trkpt lat="47.80584" lon="6.5769">
        <ele>495</ele>
        <time>2019-08-18T08:05:49Z</time>
      </trkpt>
      <trkpt lat="47.80592" lon="6.57706">
        <ele>495</ele>
        <time>2019-08-18T08:05:54Z</time>
      </trkpt>
      <trkpt lat="47.80589" lon="6.57727">
        <ele>495</ele>
        <time>2019-08-18T08:05:59Z</time>
      </trkpt>
      <trkpt lat="47.80582" lon="6.57749">
        <ele>495</ele>
        <time>2019-08-18T08:06:04Z</time>
      </trkpt>
      <trkpt lat="47.80584" lon="6.57795">
        <ele>493</ele>
        <time>2019-08-18T08:06:09Z</time>
      </trkpt>
      <trkpt lat="47.80578" lon="6.57832">
        <ele>493</ele>
        <time>2019-08-18T08:06:14Z</time>
      </trkpt>
      <trkpt lat="47.8057" lon="6.57857">
        <ele>493</ele>
        <time>2019-08-18T08:06:19Z</time>
      </trkpt>
      <trkpt lat="47.80563" lon="6.57881">
        <ele>494</ele>
        <time>2019-08-18T08:06:24Z</time>
      </trkpt>
      <trkpt lat="47.80553" lon="6.57909">
        <ele>495</ele>
        <time>2019-08-18T08:06:29Z</time>
      </trkpt>
      <trkpt lat="47.80558" lon="6.57954">
        <ele>495</ele>
        <time>2019-08-18T08:06:34Z</time>
      </trkpt>
      <trkpt lat="47.80563" lon="6.57988">
        <ele>492</ele>
        <time>2019-08-18T08:06:39Z</time>
      </trkpt>
      <trkpt lat="47.8057" lon="6.58005">
        <ele>492</ele>
        <time>2019-08-18T08:06:44Z</time>
      </trkpt>
      <trkpt lat="47.80581" lon="6.58029">
        <ele>494</ele>
        <time>2019-08-18T08:06:50Z</time>
      </trkpt>
      <trkpt lat="47.80591" lon="6.58043">
        <ele>496</ele>
        <time>2019-08-18T08:06:55Z</time>
      </trkpt>
      <trkpt lat="47.80602" lon="6.58044">
        <ele>497</ele>
        <time>2019-08-18T08:07:00Z</time>
      </trkpt>
      <trkpt lat="47.80611" lon="6.58047">
        <ele>498</ele>
        <time>2019-08-18T08:07:05Z</time>
      </trkpt>
      <trkpt lat="47.80624" lon="6.58046">
        <ele>498</ele>
        <time>2019-08-18T08:07:10Z</time>
      </trkpt>
      <trkpt lat="47.80639" lon="6.58046">
        <ele>498</ele>
        <time>2019-08-18T08:07:15Z</time>
      </trkpt>
      <trkpt lat="47.80647" lon="6.58056">
        <ele>498</ele>
        <time>2019-08-18T08:07:20Z</time>
      </trkpt>
      <trkpt lat="47.80656" lon="6.5807">
        <ele>498</ele>
        <time>2019-08-18T08:07:25Z</time>
      </trkpt>
      <trkpt lat="47.80666" lon="6.58091">
        <ele>498</ele>
        <time>2019-08-18T08:07:30Z</time>
      </trkpt>
      <trkpt lat="47.80675" lon="6.58112">
        <ele>497</ele>
        <time>2019-08-18T08:07:35Z</time>
      </trkpt>
      <trkpt lat="47.80682" lon="6.58134">
        <ele>497</ele>
        <time>2019-08-18T08:07:40Z</time>
      </trkpt>
      <trkpt lat="47.80695" lon="6.58145">
        <ele>499</ele>
        <time>2019-08-18T08:07:45Z</time>
      </trkpt>
      <trkpt lat="47.80735" lon="6.5817">
        <ele>504</ele>
        <time>2019-08-18T08:08:01Z</time>
      </trkpt>
      <trkpt lat="47.80934" lon="6.58202">
        <ele>499</ele>
        <time>2019-08-18T08:09:33Z</time>
      </trkpt>
      <trkpt lat="47.81007" lon="6.58205">
        <ele>503</ele>
        <time>2019-08-18T08:10:15Z</time>
      </trkpt>
      <trkpt lat="47.81043" lon="6.58232">
        <ele>505</ele>
        <time>2019-08-18T08:10:37Z</time>
      </trkpt>
      <trkpt lat="47.81052" lon="6.5825">
        <ele>506</ele>
        <time>2019-08-18T08:10:42Z</time>
      </trkpt>
      <trkpt lat="47.8106" lon="6.58272">
        <ele>508</ele>
        <time>2019-08-18T08:10:47Z</time>
      </trkpt>
      <trkpt lat="47.81072" lon="6.58288">
        <ele>510</ele>
        <time>2019-08-18T08:10:52Z</time>
      </trkpt>
      <trkpt lat="47.8108" lon="6.58304">
        <ele>512</ele>
        <time>2019-08-18T08:10:57Z</time>
      </trkpt>
      <trkpt lat="47.81087" lon="6.58318">
        <ele>513</ele>
        <time>2019-08-18T08:11:02Z</time>
      </trkpt>
      <trkpt lat="47.81096" lon="6.58343">
        <ele>513</ele>
        <time>2019-08-18T08:11:07Z</time>
      </trkpt>
      <trkpt lat="47.81101" lon="6.58379">
        <ele>513</ele>
        <time>2019-08-18T08:11:12Z</time>
      </trkpt>
      <trkpt lat="47.81105" lon="6.5841">
        <ele>513</ele>
        <time>2019-08-18T08:11:17Z</time>
      </trkpt>
      <trkpt lat="47.81107" lon="6.58435">
        <ele>513</ele>
        <time>2019-08-18T08:11:22Z</time>
      </trkpt>
      <trkpt lat="47.81119" lon="6.58454">
        <ele>515</ele>
        <time>2019-08-18T08:11:27Z</time>
      </trkpt>
      <trkpt lat="47.81128" lon="6.58479">
        <ele>517</ele>
        <time>2019-08-18T08:11:32Z</time>
      </trkpt>
      <trkpt lat="47.81139" lon="6.58504">
        <ele>519</ele>
        <time>2019-08-18T08:11:37Z</time>
      </trkpt>
      <trkpt lat="47.81146" lon="6.58528">
        <ele>520</ele>
        <time>2019-08-18T08:11:42Z</time>
      </trkpt>
      <trkpt lat="47.81155" lon="6.5855">
        <ele>522</ele>
        <time>2019-08-18T08:11:47Z</time>
      </trkpt>
      <trkpt lat="47.81164" lon="6.58575">
        <ele>524</ele>
        <time>2019-08-18T08:11:52Z</time>
      </trkpt>
      <trkpt lat="47.81175" lon="6.586">
        <ele>524</ele>
        <time>2019-08-18T08:11:57Z</time>
      </trkpt>
      <trkpt lat="47.81183" lon="6.58626">
        <ele>525</ele>
        <time>2019-08-18T08:12:02Z</time>
      </trkpt>
      <trkpt lat="47.81194" lon="6.58653">
        <ele>524</ele>
        <time>2019-08-18T08:12:07Z</time>
      </trkpt>
      <trkpt lat="47.81205" lon="6.58689">
        <ele>523</ele>
        <time>2019-08-18T08:12:12Z</time>
      </trkpt>
      <trkpt lat="47.81223" lon="6.58704">
        <ele>524</ele>
        <time>2019-08-18T08:12:17Z</time>
      </trkpt>
      <trkpt lat="47.81248" lon="6.58698">
        <ele>524</ele>
        <time>2019-08-18T08:12:22Z</time>
      </trkpt>
      <trkpt lat="47.81291" lon="6.58679">
        <ele>523</ele>
        <time>2019-08-18T08:12:30Z</time>
      </trkpt>
      <trkpt lat="47.81307" lon="6.58657">
        <ele>522</ele>
        <time>2019-08-18T08:12:35Z</time>
      </trkpt>
      <trkpt lat="47.81323" lon="6.58627">
        <ele>519</ele>
        <time>2019-08-18T08:12:40Z</time>
      </trkpt>
      <trkpt lat="47.81346" lon="6.58604">
        <ele>516</ele>
        <time>2019-08-18T08:12:45Z</time>
      </trkpt>
      <trkpt lat="47.81367" lon="6.58583">
        <ele>514</ele>
        <time>2019-08-18T08:12:50Z</time>
      </trkpt>
      <trkpt lat="47.81384" lon="6.58554">
        <ele>513</ele>
        <time>2019-08-18T08:12:55Z</time>
      </trkpt>
      <trkpt lat="47.81401" lon="6.58532">
        <ele>513</ele>
        <time>2019-08-18T08:13:00Z</time>
      </trkpt>
      <trkpt lat="47.81419" lon="6.58504">
        <ele>514</ele>
        <time>2019-08-18T08:13:05Z</time>
      </trkpt>
      <trkpt lat="47.81441" lon="6.58482">
        <ele>513</ele>
        <time>2019-08-18T08:13:10Z</time>
      </trkpt>
      <trkpt lat="47.81458" lon="6.58453">
        <ele>512</ele>
        <time>2019-08-18T08:13:15Z</time>
      </trkpt>
      <trkpt lat="47.81471" lon="6.58435">
        <ele>512</ele>
        <time>2019-08-18T08:13:20Z</time>
      </trkpt>
      <trkpt lat="47.81494" lon="6.5843">
        <ele>511</ele>
        <time>2019-08-18T08:13:25Z</time>
      </trkpt>
      <trkpt lat="47.81517" lon="6.58434">
        <ele>510</ele>
        <time>2019-08-18T08:13:30Z</time>
      </trkpt>
      <trkpt lat="47.81534" lon="6.58413">
        <ele>512</ele>
        <time>2019-08-18T08:13:35Z</time>
      </trkpt>
      <trkpt lat="47.81546" lon="6.58399">
        <ele>511</ele>
        <time>2019-08-18T08:13:40Z</time>
      </trkpt>
      <trkpt lat="47.81569" lon="6.58413">
        <ele>511</ele>
        <time>2019-08-18T08:13:45Z</time>
      </trkpt>
      <trkpt lat="47.81591" lon="6.58428">
        <ele>511</ele>
        <time>2019-08-18T08:13:50Z</time>
      </trkpt>
      <trkpt lat="47.81607" lon="6.58451">
        <ele>512</ele>
        <time>2019-08-18T08:13:55Z</time>
      </trkpt>
      <trkpt lat="47.81606" lon="6.58487">
        <ele>511</ele>
        <time>2019-08-18T08:14:00Z</time>
      </trkpt>
      <trkpt lat="47.81609" lon="6.58523">
        <ele>510</ele>
        <time>2019-08-18T08:14:05Z</time>
      </trkpt>
      <trkpt lat="47.81609" lon="6.58557">
        <ele>511</ele>
        <time>2019-08-18T08:14:10Z</time>
      </trkpt>
      <trkpt lat="47.81585" lon="6.586">
        <ele>513</ele>
        <time>2019-08-18T08:14:18Z</time>
      </trkpt>
      <trkpt lat="47.81569" lon="6.58627">
        <ele>512</ele>
        <time>2019-08-18T08:14:23Z</time>
      </trkpt>
      <trkpt lat="47.81557" lon="6.58659">
        <ele>513</ele>
        <time>2019-08-18T08:14:28Z</time>
      </trkpt>
      <trkpt lat="47.81557" lon="6.58708">
        <ele>512</ele>
        <time>2019-08-18T08:14:36Z</time>
      </trkpt>
      <trkpt lat="47.81559" lon="6.5874">
        <ele>512</ele>
        <time>2019-08-18T08:14:41Z</time>
      </trkpt>
      <trkpt lat="47.81563" lon="6.58775">
        <ele>512</ele>
        <time>2019-08-18T08:14:46Z</time>
      </trkpt>
      <trkpt lat="47.81563" lon="6.58815">
        <ele>511</ele>
        <time>2019-08-18T08:14:51Z</time>
      </trkpt>
      <trkpt lat="47.81553" lon="6.58854">
        <ele>512</ele>
        <time>2019-08-18T08:14:56Z</time>
      </trkpt>
      <trkpt lat="47.81538" lon="6.58878">
        <ele>512</ele>
        <time>2019-08-18T08:15:01Z</time>
      </trkpt>
      <trkpt lat="47.81532" lon="6.58912">
        <ele>511</ele>
        <time>2019-08-18T08:15:06Z</time>
      </trkpt>
      <trkpt lat="47.81527" lon="6.58949">
        <ele>511</ele>
        <time>2019-08-18T08:15:11Z</time>
      </trkpt>
      <trkpt lat="47.81525" lon="6.58977">
        <ele>512</ele>
        <time>2019-08-18T08:15:16Z</time>
      </trkpt>
      <trkpt lat="47.81522" lon="6.59">
        <ele>513</ele>
        <time>2019-08-18T08:15:21Z</time>
      </trkpt>
      <trkpt lat="47.81513" lon="6.59019">
        <ele>513</ele>
        <time>2019-08-18T08:15:26Z</time>
      </trkpt>
      <trkpt lat="47.81505" lon="6.59041">
        <ele>512</ele>
        <time>2019-08-18T08:15:31Z</time>
      </trkpt>
      <trkpt lat="47.81501" lon="6.59082">
        <ele>510</ele>
        <time>2019-08-18T08:15:36Z</time>
      </trkpt>
      <trkpt lat="47.81493" lon="6.59127">
        <ele>510</ele>
        <time>2019-08-18T08:15:41Z</time>
      </trkpt>
      <trkpt lat="47.81498" lon="6.59174">
        <ele>509</ele>
        <time>2019-08-18T08:15:46Z</time>
      </trkpt>
      <trkpt lat="47.81492" lon="6.59217">
        <ele>508</ele>
        <time>2019-08-18T08:15:51Z</time>
      </trkpt>
      <trkpt lat="47.81496" lon="6.59263">
        <ele>506</ele>
        <time>2019-08-18T08:15:56Z</time>
      </trkpt>
      <trkpt lat="47.81502" lon="6.59303">
        <ele>505</ele>
        <time>2019-08-18T08:16:01Z</time>
      </trkpt>
      <trkpt lat="47.81498" lon="6.59339">
        <ele>506</ele>
        <time>2019-08-18T08:16:06Z</time>
      </trkpt>
      <trkpt lat="47.81496" lon="6.59376">
        <ele>506</ele>
        <time>2019-08-18T08:16:11Z</time>
      </trkpt>
      <trkpt lat="47.81502" lon="6.59408">
        <ele>506</ele>
        <time>2019-08-18T08:16:16Z</time>
      </trkpt>
      <trkpt lat="47.81514" lon="6.59431">
        <ele>508</ele>
        <time>2019-08-18T08:16:21Z</time>
      </trkpt>
      <trkpt lat="47.81533" lon="6.59438">
        <ele>509</ele>
        <time>2019-08-18T08:16:26Z</time>
      </trkpt>
      <trkpt lat="47.81553" lon="6.59434">
        <ele>510</ele>
        <time>2019-08-18T08:16:31Z</time>
      </trkpt>
      <trkpt lat="47.81575" lon="6.59441">
        <ele>511</ele>
        <time>2019-08-18T08:16:36Z</time>
      </trkpt>
      <trkpt lat="47.8159" lon="6.59456">
        <ele>512</ele>
        <time>2019-08-18T08:16:41Z</time>
      </trkpt>
      <trkpt lat="47.81604" lon="6.5948">
        <ele>513</ele>
        <time>2019-08-18T08:16:46Z</time>
      </trkpt>
      <trkpt lat="47.81612" lon="6.59501">
        <ele>515</ele>
        <time>2019-08-18T08:16:51Z</time>
      </trkpt>
      <trkpt lat="47.81612" lon="6.59537">
        <ele>515</ele>
        <time>2019-08-18T08:16:56Z</time>
      </trkpt>
      <trkpt lat="47.81611" lon="6.59569">
        <ele>515</ele>
        <time>2019-08-18T08:17:01Z</time>
      </trkpt>
      <trkpt lat="47.81616" lon="6.59596">
        <ele>516</ele>
        <time>2019-08-18T08:17:06Z</time>
      </trkpt>
      <trkpt lat="47.81616" lon="6.59618">
        <ele>518</ele>
        <time>2019-08-18T08:17:11Z</time>
      </trkpt>
      <trkpt lat="47.81617" lon="6.59639">
        <ele>518</ele>
        <time>2019-08-18T08:17:16Z</time>
      </trkpt>
      <trkpt lat="47.81618" lon="6.59656">
        <ele>517</ele>
        <time>2019-08-18T08:17:21Z</time>
      </trkpt>
      <trkpt lat="47.8162" lon="6.59672">
        <ele>517</ele>
        <time>2019-08-18T08:17:26Z</time>
      </trkpt>
      <trkpt lat="47.81622" lon="6.59685">
        <ele>519</ele>
        <time>2019-08-18T08:17:31Z</time>
      </trkpt>
      <trkpt lat="47.81629" lon="6.59699">
        <ele>518</ele>
        <time>2019-08-18T08:17:36Z</time>
      </trkpt>
      <trkpt lat="47.81634" lon="6.59717">
        <ele>518</ele>
        <time>2019-08-18T08:17:41Z</time>
      </trkpt>
      <trkpt lat="47.81641" lon="6.59738">
        <ele>518</ele>
        <time>2019-08-18T08:17:46Z</time>
      </trkpt>
      <trkpt lat="47.81651" lon="6.59753">
        <ele>518</ele>
        <time>2019-08-18T08:17:51Z</time>
      </trkpt>
      <trkpt lat="47.81665" lon="6.5977">
        <ele>518</ele>
        <time>2019-08-18T08:17:56Z</time>
      </trkpt>
      <trkpt lat="47.81683" lon="6.59787">
        <ele>517</ele>
        <time>2019-08-18T08:18:01Z</time>
      </trkpt>
      <trkpt lat="47.81709" lon="6.59797">
        <ele>518</ele>
        <time>2019-08-18T08:18:08Z</time>
      </trkpt>
      <trkpt lat="47.8173" lon="6.59801">
        <ele>517</ele>
        <time>2019-08-18T08:18:13Z</time>
      </trkpt>
      <trkpt lat="47.81749" lon="6.59808">
        <ele>516</ele>
        <time>2019-08-18T08:18:18Z</time>
      </trkpt>
      <trkpt lat="47.8177" lon="6.59818">
        <ele>517</ele>
        <time>2019-08-18T08:18:23Z</time>
      </trkpt>
      <trkpt lat="47.81783" lon="6.59836">
        <ele>517</ele>
        <time>2019-08-18T08:18:28Z</time>
      </trkpt>
      <trkpt lat="47.81787" lon="6.59861">
        <ele>517</ele>
        <time>2019-08-18T08:18:33Z</time>
      </trkpt>
      <trkpt lat="47.81778" lon="6.59892">
        <ele>517</ele>
        <time>2019-08-18T08:18:38Z</time>
      </trkpt>
      <trkpt lat="47.8177" lon="6.59926">
        <ele>518</ele>
        <time>2019-08-18T08:18:43Z</time>
      </trkpt>
      <trkpt lat="47.81765" lon="6.59955">
        <ele>519</ele>
        <time>2019-08-18T08:18:48Z</time>
      </trkpt>
      <trkpt lat="47.81764" lon="6.59981">
        <ele>519</ele>
        <time>2019-08-18T08:18:53Z</time>
      </trkpt>
      <trkpt lat="47.81762" lon="6.60003">
        <ele>520</ele>
        <time>2019-08-18T08:18:58Z</time>
      </trkpt>
      <trkpt lat="47.81764" lon="6.60021">
        <ele>521</ele>
        <time>2019-08-18T08:19:03Z</time>
      </trkpt>
      <trkpt lat="47.81765" lon="6.60039">
        <ele>523</ele>
        <time>2019-08-18T08:19:08Z</time>
      </trkpt>
      <trkpt lat="47.81766" lon="6.60055">
        <ele>524</ele>
        <time>2019-08-18T08:19:13Z</time>
      </trkpt>
      <trkpt lat="47.81772" lon="6.60074">
        <ele>524</ele>
        <time>2019-08-18T08:19:18Z</time>
      </trkpt>
      <trkpt lat="47.81764" lon="6.60101">
        <ele>523</ele>
        <time>2019-08-18T08:19:25Z</time>
      </trkpt>
      <trkpt lat="47.81746" lon="6.60156">
        <ele>521</ele>
        <time>2019-08-18T08:19:31Z</time>
      </trkpt>
      <trkpt lat="47.81736" lon="6.60211">
        <ele>520</ele>
        <time>2019-08-18T08:19:36Z</time>
      </trkpt>
      <trkpt lat="47.81743" lon="6.60259">
        <ele>518</ele>
        <time>2019-08-18T08:19:42Z</time>
      </trkpt>
      <trkpt lat="47.81743" lon="6.60292">
        <ele>515</ele>
        <time>2019-08-18T08:19:47Z</time>
      </trkpt>
      <trkpt lat="47.81735" lon="6.60298">
        <ele>515</ele>
        <time>2019-08-18T08:19:52Z</time>
      </trkpt>
      <trkpt lat="47.81723" lon="6.60307">
        <ele>514</ele>
        <time>2019-08-18T08:19:58Z</time>
      </trkpt>
      <trkpt lat="47.81771" lon="6.60285">
        <ele>517</ele>
        <time>2019-08-18T08:22:05Z</time>
      </trkpt>
      <trkpt lat="47.81784" lon="6.60291">
        <ele>519</ele>
        <time>2019-08-18T08:22:11Z</time>
      </trkpt>
      <trkpt lat="47.81796" lon="6.60299">
        <ele>518</ele>
        <time>2019-08-18T08:22:16Z</time>
      </trkpt>
      <trkpt lat="47.81807" lon="6.60301">
        <ele>518</ele>
        <time>2019-08-18T08:22:21Z</time>
      </trkpt>
      <trkpt lat="47.81816" lon="6.60292">
        <ele>519</ele>
        <time>2019-08-18T08:22:26Z</time>
      </trkpt>
      <trkpt lat="47.81824" lon="6.60282">
        <ele>521</ele>
        <time>2019-08-18T08:22:31Z</time>
      </trkpt>
      <trkpt lat="47.81833" lon="6.60272">
        <ele>520</ele>
        <time>2019-08-18T08:22:36Z</time>
      </trkpt>
      <trkpt lat="47.81842" lon="6.6026">
        <ele>520</ele>
        <time>2019-08-18T08:22:41Z</time>
      </trkpt>
      <trkpt lat="47.8185" lon="6.60248">
        <ele>521</ele>
        <time>2019-08-18T08:22:46Z</time>
      </trkpt>
      <trkpt lat="47.81857" lon="6.60237">
        <ele>521</ele>
        <time>2019-08-18T08:22:51Z</time>
      </trkpt>
      <trkpt lat="47.81864" lon="6.60225">
        <ele>522</ele>
        <time>2019-08-18T08:22:56Z</time>
      </trkpt>
      <trkpt lat="47.8187" lon="6.60213">
        <ele>521</ele>
        <time>2019-08-18T08:23:01Z</time>
      </trkpt>
      <trkpt lat="47.81877" lon="6.602">
        <ele>522</ele>
        <time>2019-08-18T08:23:06Z</time>
      </trkpt>
      <trkpt lat="47.81883" lon="6.60184">
        <ele>522</ele>
        <time>2019-08-18T08:23:11Z</time>
      </trkpt>
      <trkpt lat="47.8189" lon="6.6017">
        <ele>523</ele>
        <time>2019-08-18T08:23:16Z</time>
      </trkpt>
      <trkpt lat="47.81896" lon="6.60158">
        <ele>522</ele>
        <time>2019-08-18T08:23:21Z</time>
      </trkpt>
      <trkpt lat="47.81903" lon="6.60145">
        <ele>523</ele>
        <time>2019-08-18T08:23:26Z</time>
      </trkpt>
      <trkpt lat="47.81905" lon="6.60132">
        <ele>523</ele>
        <time>2019-08-18T08:23:31Z</time>
      </trkpt>
      <trkpt lat="47.8191" lon="6.60121">
        <ele>523</ele>
        <time>2019-08-18T08:23:36Z</time>
      </trkpt>
      <trkpt lat="47.81915" lon="6.60103">
        <ele>522</ele>
        <time>2019-08-18T08:23:41Z</time>
      </trkpt>
      <trkpt lat="47.8192" lon="6.60086">
        <ele>521</ele>
        <time>2019-08-18T08:23:46Z</time>
      </trkpt>
      <trkpt lat="47.81922" lon="6.60071">
        <ele>521</ele>
        <time>2019-08-18T08:23:51Z</time>
      </trkpt>
      <trkpt lat="47.81929" lon="6.60048">
        <ele>522</ele>
        <time>2019-08-18T08:23:58Z</time>
      </trkpt>
      <trkpt lat="47.81934" lon="6.60029">
        <ele>523</ele>
        <time>2019-08-18T08:24:03Z</time>
      </trkpt>
      <trkpt lat="47.81939" lon="6.6001">
        <ele>522</ele>
        <time>2019-08-18T08:24:08Z</time>
      </trkpt>
      <trkpt lat="47.81941" lon="6.5999">
        <ele>520</ele>
        <time>2019-08-18T08:24:13Z</time>
      </trkpt>
      <trkpt lat="47.81941" lon="6.5997">
        <ele>521</ele>
        <time>2019-08-18T08:24:18Z</time>
      </trkpt>
      <trkpt lat="47.81941" lon="6.59948">
        <ele>520</ele>
        <time>2019-08-18T08:24:23Z</time>
      </trkpt>
      <trkpt lat="47.81941" lon="6.59924">
        <ele>523</ele>
        <time>2019-08-18T08:24:28Z</time>
      </trkpt>
      <trkpt lat="47.81942" lon="6.59899">
        <ele>526</ele>
        <time>2019-08-18T08:24:33Z</time>
      </trkpt>
      <trkpt lat="47.81945" lon="6.59873">
        <ele>530</ele>
        <time>2019-08-18T08:24:38Z</time>
      </trkpt>
      <trkpt lat="47.81951" lon="6.59849">
        <ele>532</ele>
        <time>2019-08-18T08:24:43Z</time>
      </trkpt>
      <trkpt lat="47.81959" lon="6.59811">
        <ele>535</ele>
        <time>2019-08-18T08:24:51Z</time>
      </trkpt>
      <trkpt lat="47.81973" lon="6.59808">
        <ele>536</ele>
        <time>2019-08-18T08:24:56Z</time>
      </trkpt>
      <trkpt lat="47.81984" lon="6.59808">
        <ele>538</ele>
        <time>2019-08-18T08:25:01Z</time>
      </trkpt>
      <trkpt lat="47.81996" lon="6.5981">
        <ele>538</ele>
        <time>2019-08-18T08:25:06Z</time>
      </trkpt>
      <trkpt lat="47.82007" lon="6.59812">
        <ele>539</ele>
        <time>2019-08-18T08:25:11Z</time>
      </trkpt>
      <trkpt lat="47.82016" lon="6.5981">
        <ele>541</ele>
        <time>2019-08-18T08:25:16Z</time>
      </trkpt>
      <trkpt lat="47.82027" lon="6.59808">
        <ele>542</ele>
        <time>2019-08-18T08:25:21Z</time>
      </trkpt>
      <trkpt lat="47.82039" lon="6.59803">
        <ele>544</ele>
        <time>2019-08-18T08:25:26Z</time>
      </trkpt>
      <trkpt lat="47.82048" lon="6.59797">
        <ele>546</ele>
        <time>2019-08-18T08:25:31Z</time>
      </trkpt>
      <trkpt lat="47.82059" lon="6.59788">
        <ele>547</ele>
        <time>2019-08-18T08:25:36Z</time>
      </trkpt>
      <trkpt lat="47.82065" lon="6.59779">
        <ele>548</ele>
        <time>2019-08-18T08:25:41Z</time>
      </trkpt>
      <trkpt lat="47.82071" lon="6.59765">
        <ele>548</ele>
        <time>2019-08-18T08:25:46Z</time>
      </trkpt>
      <trkpt lat="47.82077" lon="6.59754">
        <ele>548</ele>
        <time>2019-08-18T08:25:51Z</time>
      </trkpt>
      <trkpt lat="47.82087" lon="6.59741">
        <ele>549</ele>
        <time>2019-08-18T08:25:56Z</time>
      </trkpt>
      <trkpt lat="47.82099" lon="6.59728">
        <ele>549</ele>
        <time>2019-08-18T08:26:01Z</time>
      </trkpt>
      <trkpt lat="47.82109" lon="6.59718">
        <ele>550</ele>
        <time>2019-08-18T08:26:06Z</time>
      </trkpt>
      <trkpt lat="47.82122" lon="6.59708">
        <ele>549</ele>
        <time>2019-08-18T08:26:11Z</time>
      </trkpt>
      <trkpt lat="47.82134" lon="6.59695">
        <ele>548</ele>
        <time>2019-08-18T08:26:16Z</time>
      </trkpt>
      <trkpt lat="47.82144" lon="6.59682">
        <ele>548</ele>
        <time>2019-08-18T08:26:21Z</time>
      </trkpt>
      <trkpt lat="47.82153" lon="6.59671">
        <ele>548</ele>
        <time>2019-08-18T08:26:26Z</time>
      </trkpt>
      <trkpt lat="47.82156" lon="6.59565">
        <ele>556</ele>
        <time>2019-08-18T08:26:59Z</time>
      </trkpt>
      <trkpt lat="47.82158" lon="6.59546">
        <ele>555</ele>
        <time>2019-08-18T08:27:04Z</time>
      </trkpt>
      <trkpt lat="47.82163" lon="6.5953">
        <ele>555</ele>
        <time>2019-08-18T08:27:09Z</time>
      </trkpt>
      <trkpt lat="47.82168" lon="6.59517">
        <ele>555</ele>
        <time>2019-08-18T08:27:14Z</time>
      </trkpt>
      <trkpt lat="47.82175" lon="6.59507">
        <ele>556</ele>
        <time>2019-08-18T08:27:19Z</time>
      </trkpt>
      <trkpt lat="47.82183" lon="6.59497">
        <ele>556</ele>
        <time>2019-08-18T08:27:24Z</time>
      </trkpt>
      <trkpt lat="47.82192" lon="6.59489">
        <ele>556</ele>
        <time>2019-08-18T08:27:29Z</time>
      </trkpt>
      <trkpt lat="47.82201" lon="6.59485">
        <ele>557</ele>
        <time>2019-08-18T08:27:34Z</time>
      </trkpt>
      <trkpt lat="47.82206" lon="6.59474">
        <ele>557</ele>
        <time>2019-08-18T08:27:39Z</time>
      </trkpt>
      <trkpt lat="47.82213" lon="6.5946">
        <ele>559</ele>
        <time>2019-08-18T08:27:44Z</time>
      </trkpt>
      <trkpt lat="47.82226" lon="6.59452">
        <ele>561</ele>
        <time>2019-08-18T08:27:49Z</time>
      </trkpt>
      <trkpt lat="47.82241" lon="6.59438">
        <ele>562</ele>
        <time>2019-08-18T08:27:54Z</time>
      </trkpt>
      <trkpt lat="47.82248" lon="6.59435">
        <ele>562</ele>
        <time>2019-08-18T08:27:59Z</time>
      </trkpt>
      <trkpt lat="47.82303" lon="6.59553">
        <ele>569</ele>
        <time>2019-08-18T08:28:58Z</time>
      </trkpt>
      <trkpt lat="47.82308" lon="6.59578">
        <ele>567</ele>
        <time>2019-08-18T08:29:03Z</time>
      </trkpt>
      <trkpt lat="47.82313" lon="6.59608">
        <ele>568</ele>
        <time>2019-08-18T08:29:08Z</time>
      </trkpt>
      <trkpt lat="47.82315" lon="6.59643">
        <ele>568</ele>
        <time>2019-08-18T08:29:13Z</time>
      </trkpt>
      <trkpt lat="47.82311" lon="6.59682">
        <ele>565</ele>
        <time>2019-08-18T08:29:18Z</time>
      </trkpt>
      <trkpt lat="47.82318" lon="6.59724">
        <ele>562</ele>
        <time>2019-08-18T08:29:23Z</time>
      </trkpt>
      <trkpt lat="47.82331" lon="6.5976">
        <ele>561</ele>
        <time>2019-08-18T08:29:28Z</time>
      </trkpt>
      <trkpt lat="47.82338" lon="6.59786">
        <ele>562</ele>
        <time>2019-08-18T08:29:33Z</time>
      </trkpt>
      <trkpt lat="47.82341" lon="6.59803">
        <ele>562</ele>
        <time>2019-08-18T08:29:38Z</time>
      </trkpt>
      <trkpt lat="47.82345" lon="6.59822">
        <ele>562</ele>
        <time>2019-08-18T08:29:43Z</time>
      </trkpt>
      <trkpt lat="47.8235" lon="6.59846">
        <ele>563</ele>
        <time>2019-08-18T08:29:48Z</time>
      </trkpt>
      <trkpt lat="47.82353" lon="6.59871">
        <ele>565</ele>
        <time>2019-08-18T08:29:53Z</time>
      </trkpt>
      <trkpt lat="47.82355" lon="6.59894">
        <ele>566</ele>
        <time>2019-08-18T08:29:58Z</time>
      </trkpt>
      <trkpt lat="47.82361" lon="6.59912">
        <ele>567</ele>
        <time>2019-08-18T08:30:03Z</time>
      </trkpt>
      <trkpt lat="47.82368" lon="6.59928">
        <ele>568</ele>
        <time>2019-08-18T08:30:08Z</time>
      </trkpt>
      <trkpt lat="47.82375" lon="6.59947">
        <ele>567</ele>
        <time>2019-08-18T08:30:13Z</time>
      </trkpt>
      <trkpt lat="47.82381" lon="6.59966">
        <ele>567</ele>
        <time>2019-08-18T08:30:18Z</time>
      </trkpt>
      <trkpt lat="47.82388" lon="6.6004">
        <ele>571</ele>
        <time>2019-08-18T08:30:37Z</time>
      </trkpt>
      <trkpt lat="47.82393" lon="6.6006">
        <ele>574</ele>
        <time>2019-08-18T08:30:42Z</time>
      </trkpt>
      <trkpt lat="47.82412" lon="6.60086">
        <ele>576</ele>
        <time>2019-08-18T08:30:50Z</time>
      </trkpt>
      <trkpt lat="47.82429" lon="6.60102">
        <ele>576</ele>
        <time>2019-08-18T08:30:55Z</time>
      </trkpt>
      <trkpt lat="47.82439" lon="6.60121">
        <ele>577</ele>
        <time>2019-08-18T08:31:00Z</time>
      </trkpt>
      <trkpt lat="47.82455" lon="6.60133">
        <ele>578</ele>
        <time>2019-08-18T08:31:05Z</time>
      </trkpt>
      <trkpt lat="47.8247" lon="6.60138">
        <ele>577</ele>
        <time>2019-08-18T08:31:10Z</time>
      </trkpt>
      <trkpt lat="47.82491" lon="6.60145">
        <ele>574</ele>
        <time>2019-08-18T08:31:15Z</time>
      </trkpt>
      <trkpt lat="47.8252" lon="6.60152">
        <ele>570</ele>
        <time>2019-08-18T08:31:20Z</time>
      </trkpt>
      <trkpt lat="47.82553" lon="6.60168">
        <ele>570</ele>
        <time>2019-08-18T08:31:25Z</time>
      </trkpt>
      <trkpt lat="47.82578" lon="6.60195">
        <ele>574</ele>
        <time>2019-08-18T08:31:30Z</time>
      </trkpt>
      <trkpt lat="47.82597" lon="6.6022">
        <ele>575</ele>
        <time>2019-08-18T08:31:36Z</time>
      </trkpt>
      <trkpt lat="47.82614" lon="6.60234">
        <ele>574</ele>
        <time>2019-08-18T08:31:41Z</time>
      </trkpt>
      <trkpt lat="47.82627" lon="6.60278">
        <ele>573</ele>
        <time>2019-08-18T08:31:46Z</time>
      </trkpt>
      <trkpt lat="47.82631" lon="6.60325">
        <ele>572</ele>
        <time>2019-08-18T08:31:51Z</time>
      </trkpt>
      <trkpt lat="47.82644" lon="6.60358">
        <ele>569</ele>
        <time>2019-08-18T08:31:56Z</time>
      </trkpt>
      <trkpt lat="47.82653" lon="6.60371">
        <ele>569</ele>
        <time>2019-08-18T08:32:01Z</time>
      </trkpt>
      <trkpt lat="47.82658" lon="6.60379">
        <ele>569</ele>
        <time>2019-08-18T08:32:06Z</time>
      </trkpt>
      <trkpt lat="47.8267" lon="6.60412">
        <ele>569</ele>
        <time>2019-08-18T08:32:11Z</time>
      </trkpt>
      <trkpt lat="47.82681" lon="6.60455">
        <ele>569</ele>
        <time>2019-08-18T08:32:16Z</time>
      </trkpt>
      <trkpt lat="47.82673" lon="6.605">
        <ele>568</ele>
        <time>2019-08-18T08:32:21Z</time>
      </trkpt>
      <trkpt lat="47.82662" lon="6.60549">
        <ele>566</ele>
        <time>2019-08-18T08:32:26Z</time>
      </trkpt>
      <trkpt lat="47.8266" lon="6.60592">
        <ele>564</ele>
        <time>2019-08-18T08:32:31Z</time>
      </trkpt>
      <trkpt lat="47.82668" lon="6.60626">
        <ele>561</ele>
        <time>2019-08-18T08:32:36Z</time>
      </trkpt>
      <trkpt lat="47.82678" lon="6.60669">
        <ele>560</ele>
        <time>2019-08-18T08:32:41Z</time>
      </trkpt>
      <trkpt lat="47.82686" lon="6.60749">
        <ele>560</ele>
        <time>2019-08-18T08:32:48Z</time>
      </trkpt>
      <trkpt lat="47.82695" lon="6.60808">
        <ele>558</ele>
        <time>2019-08-18T08:32:53Z</time>
      </trkpt>
      <trkpt lat="47.82711" lon="6.60856">
        <ele>555</ele>
        <time>2019-08-18T08:32:58Z</time>
      </trkpt>
      <trkpt lat="47.82726" lon="6.60855">
        <ele>552</ele>
        <time>2019-08-18T08:33:03Z</time>
      </trkpt>
      <trkpt lat="47.82739" lon="6.60857">
        <ele>551</ele>
        <time>2019-08-18T08:33:08Z</time>
      </trkpt>
      <trkpt lat="47.82755" lon="6.60856">
        <ele>551</ele>
        <time>2019-08-18T08:33:13Z</time>
      </trkpt>
      <trkpt lat="47.82776" lon="6.60833">
        <ele>548</ele>
        <time>2019-08-18T08:33:18Z</time>
      </trkpt>
      <trkpt lat="47.82799" lon="6.60809">
        <ele>546</ele>
        <time>2019-08-18T08:33:23Z</time>
      </trkpt>
      <trkpt lat="47.82825" lon="6.60801">
        <ele>544</ele>
        <time>2019-08-18T08:33:28Z</time>
      </trkpt>
      <trkpt lat="47.82847" lon="6.60798">
        <ele>541</ele>
        <time>2019-08-18T08:33:33Z</time>
      </trkpt>
      <trkpt lat="47.82872" lon="6.60793">
        <ele>541</ele>
        <time>2019-08-18T08:33:38Z</time>
      </trkpt>
      <trkpt lat="47.82903" lon="6.60788">
        <ele>540</ele>
        <time>2019-08-18T08:33:43Z</time>
      </trkpt>
      <trkpt lat="47.82948" lon="6.60768">
        <ele>538</ele>
        <time>2019-08-18T08:33:50Z</time>
      </trkpt>
      <trkpt lat="47.82981" lon="6.60776">
        <ele>537</ele>
        <time>2019-08-18T08:33:55Z</time>
      </trkpt>
      <trkpt lat="47.83006" lon="6.60773">
        <ele>534</ele>
        <time>2019-08-18T08:34:00Z</time>
      </trkpt>
      <trkpt lat="47.83019" lon="6.60744">
        <ele>531</ele>
        <time>2019-08-18T08:34:05Z</time>
      </trkpt>
      <trkpt lat="47.83019" lon="6.60709">
        <ele>527</ele>
        <time>2019-08-18T08:34:10Z</time>
      </trkpt>
      <trkpt lat="47.83026" lon="6.60667">
        <ele>524</ele>
        <time>2019-08-18T08:34:15Z</time>
      </trkpt>
      <trkpt lat="47.83045" lon="6.60629">
        <ele>524</ele>
        <time>2019-08-18T08:34:20Z</time>
      </trkpt>
      <trkpt lat="47.83079" lon="6.60599">
        <ele>520</ele>
        <time>2019-08-18T08:34:25Z</time>
      </trkpt>
      <trkpt lat="47.83116" lon="6.6058">
        <ele>516</ele>
        <time>2019-08-18T08:34:30Z</time>
      </trkpt>
      <trkpt lat="47.83154" lon="6.60552">
        <ele>513</ele>
        <time>2019-08-18T08:34:35Z</time>
      </trkpt>
      <trkpt lat="47.83194" lon="6.60536">
        <ele>510</ele>
        <time>2019-08-18T08:34:40Z</time>
      </trkpt>
      <trkpt lat="47.83236" lon="6.60527">
        <ele>508</ele>
        <time>2019-08-18T08:34:45Z</time>
      </trkpt>
      <trkpt lat="47.83273" lon="6.60517">
        <ele>507</ele>
        <time>2019-08-18T08:34:50Z</time>
      </trkpt>
      <trkpt lat="47.83283" lon="6.60542">
        <ele>505</ele>
        <time>2019-08-18T08:34:55Z</time>
      </trkpt>
      <trkpt lat="47.8325" lon="6.60556">
        <ele>503</ele>
        <time>2019-08-18T08:35:00Z</time>
      </trkpt>
      <trkpt lat="47.83221" lon="6.6059">
        <ele>500</ele>
        <time>2019-08-18T08:35:05Z</time>
      </trkpt>
      <trkpt lat="47.8319" lon="6.60627">
        <ele>495</ele>
        <time>2019-08-18T08:35:10Z</time>
      </trkpt>
      <trkpt lat="47.83163" lon="6.60674">
        <ele>491</ele>
        <time>2019-08-18T08:35:15Z</time>
      </trkpt>
      <trkpt lat="47.83152" lon="6.60722">
        <ele>490</ele>
        <time>2019-08-18T08:35:20Z</time>
      </trkpt>
      <trkpt lat="47.83163" lon="6.60782">
        <ele>486</ele>
        <time>2019-08-18T08:35:25Z</time>
      </trkpt>
      <trkpt lat="47.83171" lon="6.60845">
        <ele>482</ele>
        <time>2019-08-18T08:35:30Z</time>
      </trkpt>
      <trkpt lat="47.8318" lon="6.60901">
        <ele>479</ele>
        <time>2019-08-18T08:35:35Z</time>
      </trkpt>
      <trkpt lat="47.83171" lon="6.60959">
        <ele>476</ele>
        <time>2019-08-18T08:35:40Z</time>
      </trkpt>
      <trkpt lat="47.83163" lon="6.61022">
        <ele>473</ele>
        <time>2019-08-18T08:35:45Z</time>
      </trkpt>
      <trkpt lat="47.83168" lon="6.61079">
        <ele>472</ele>
        <time>2019-08-18T08:35:50Z</time>
      </trkpt>
      <trkpt lat="47.83189" lon="6.6114">
        <ele>472</ele>
        <time>2019-08-18T08:35:58Z</time>
      </trkpt>
      <trkpt lat="47.83218" lon="6.61141">
        <ele>472</ele>
        <time>2019-08-18T08:36:03Z</time>
      </trkpt>
      <trkpt lat="47.83253" lon="6.61136">
        <ele>471</ele>
        <time>2019-08-18T08:36:08Z</time>
      </trkpt>
      <trkpt lat="47.83273" lon="6.61126">
        <ele>471</ele>
        <time>2019-08-18T08:36:13Z</time>
      </trkpt>
      <trkpt lat="47.83278" lon="6.61146">
        <ele>472</ele>
        <time>2019-08-18T08:36:18Z</time>
      </trkpt>
      <trkpt lat="47.83278" lon="6.61172">
        <ele>473</ele>
        <time>2019-08-18T08:36:23Z</time>
      </trkpt>
      <trkpt lat="47.83284" lon="6.61199">
        <ele>474</ele>
        <time>2019-08-18T08:36:28Z</time>
      </trkpt>
      <trkpt lat="47.83291" lon="6.61228">
        <ele>474</ele>
        <time>2019-08-18T08:36:33Z</time>
      </trkpt>
      <trkpt lat="47.83299" lon="6.61256">
        <ele>475</ele>
        <time>2019-08-18T08:36:38Z</time>
      </trkpt>
      <trkpt lat="47.8331" lon="6.61282">
        <ele>475</ele>
        <time>2019-08-18T08:36:43Z</time>
      </trkpt>
      <trkpt lat="47.8332" lon="6.61308">
        <ele>475</ele>
        <time>2019-08-18T08:36:48Z</time>
      </trkpt>
      <trkpt lat="47.8333" lon="6.61332">
        <ele>474</ele>
        <time>2019-08-18T08:36:53Z</time>
      </trkpt>
      <trkpt lat="47.83341" lon="6.61354">
        <ele>475</ele>
        <time>2019-08-18T08:36:58Z</time>
      </trkpt>
      <trkpt lat="47.83351" lon="6.61377">
        <ele>475</ele>
        <time>2019-08-18T08:37:03Z</time>
      </trkpt>
      <trkpt lat="47.83361" lon="6.61399">
        <ele>476</ele>
        <time>2019-08-18T08:37:08Z</time>
      </trkpt>
      <trkpt lat="47.8337" lon="6.61424">
        <ele>477</ele>
        <time>2019-08-18T08:37:13Z</time>
      </trkpt>
      <trkpt lat="47.83379" lon="6.61441">
        <ele>477</ele>
        <time>2019-08-18T08:37:18Z</time>
      </trkpt>
      <trkpt lat="47.83389" lon="6.61463">
        <ele>478</ele>
        <time>2019-08-18T08:37:23Z</time>
      </trkpt>
      <trkpt lat="47.83397" lon="6.61486">
        <ele>478</ele>
        <time>2019-08-18T08:37:28Z</time>
      </trkpt>
      <trkpt lat="47.83407" lon="6.61512">
        <ele>478</ele>
        <time>2019-08-18T08:37:33Z</time>
      </trkpt>
      <trkpt lat="47.83416" lon="6.61545">
        <ele>480</ele>
        <time>2019-08-18T08:37:38Z</time>
      </trkpt>
      <trkpt lat="47.83425" lon="6.61569">
        <ele>479</ele>
        <time>2019-08-18T08:37:43Z</time>
      </trkpt>
      <trkpt lat="47.8344" lon="6.61581">
        <ele>480</ele>
        <time>2019-08-18T08:37:48Z</time>
      </trkpt>
      <trkpt lat="47.83458" lon="6.61596">
        <ele>482</ele>
        <time>2019-08-18T08:37:53Z</time>
      </trkpt>
      <trkpt lat="47.83472" lon="6.61614">
        <ele>483</ele>
        <time>2019-08-18T08:37:58Z</time>
      </trkpt>
      <trkpt lat="47.83485" lon="6.61634">
        <ele>484</ele>
        <time>2019-08-18T08:38:03Z</time>
      </trkpt>
      <trkpt lat="47.83496" lon="6.6166">
        <ele>483</ele>
        <time>2019-08-18T08:38:08Z</time>
      </trkpt>
      <trkpt lat="47.83506" lon="6.61689">
        <ele>478</ele>
        <time>2019-08-18T08:38:13Z</time>
      </trkpt>
      <trkpt lat="47.83515" lon="6.61718">
        <ele>474</ele>
        <time>2019-08-18T08:38:18Z</time>
      </trkpt>
      <trkpt lat="47.83522" lon="6.61735">
        <ele>474</ele>
        <time>2019-08-18T08:38:23Z</time>
      </trkpt>
      <trkpt lat="47.83534" lon="6.61744">
        <ele>475</ele>
        <time>2019-08-18T08:38:28Z</time>
      </trkpt>
      <trkpt lat="47.83546" lon="6.61763">
        <ele>475</ele>
        <time>2019-08-18T08:38:33Z</time>
      </trkpt>
      <trkpt lat="47.83551" lon="6.61784">
        <ele>475</ele>
        <time>2019-08-18T08:38:38Z</time>
      </trkpt>
      <trkpt lat="47.8356" lon="6.61808">
        <ele>476</ele>
        <time>2019-08-18T08:38:43Z</time>
      </trkpt>
      <trkpt lat="47.83567" lon="6.61831">
        <ele>477</ele>
        <time>2019-08-18T08:38:48Z</time>
      </trkpt>
      <trkpt lat="47.83579" lon="6.6185">
        <ele>477</ele>
        <time>2019-08-18T08:38:53Z</time>
      </trkpt>
      <trkpt lat="47.83588" lon="6.61867">
        <ele>479</ele>
        <time>2019-08-18T08:38:58Z</time>
      </trkpt>
      <trkpt lat="47.83592" lon="6.61889">
        <ele>481</ele>
        <time>2019-08-18T08:39:03Z</time>
      </trkpt>
      <trkpt lat="47.83599" lon="6.61903">
        <ele>482</ele>
        <time>2019-08-18T08:39:08Z</time>
      </trkpt>
      <trkpt lat="47.83609" lon="6.6192">
        <ele>483</ele>
        <time>2019-08-18T08:39:13Z</time>
      </trkpt>
      <trkpt lat="47.83616" lon="6.61936">
        <ele>484</ele>
        <time>2019-08-18T08:39:18Z</time>
      </trkpt>
      <trkpt lat="47.83622" lon="6.61956">
        <ele>484</ele>
        <time>2019-08-18T08:39:23Z</time>
      </trkpt>
      <trkpt lat="47.83626" lon="6.61979">
        <ele>484</ele>
        <time>2019-08-18T08:39:28Z</time>
      </trkpt>
      <trkpt lat="47.83633" lon="6.62">
        <ele>484</ele>
        <time>2019-08-18T08:39:33Z</time>
      </trkpt>
      <trkpt lat="47.83641" lon="6.62026">
        <ele>483</ele>
        <time>2019-08-18T08:39:38Z</time>
      </trkpt>
      <trkpt lat="47.83646" lon="6.6207">
        <ele>482</ele>
        <time>2019-08-18T08:39:46Z</time>
      </trkpt>
      <trkpt lat="47.83644" lon="6.62105">
        <ele>482</ele>
        <time>2019-08-18T08:39:51Z</time>
      </trkpt>
      <trkpt lat="47.8364" lon="6.62141">
        <ele>482</ele>
        <time>2019-08-18T08:39:56Z</time>
      </trkpt>
      <trkpt lat="47.83637" lon="6.62177">
        <ele>482</ele>
        <time>2019-08-18T08:40:01Z</time>
      </trkpt>
      <trkpt lat="47.83638" lon="6.62213">
        <ele>481</ele>
        <time>2019-08-18T08:40:06Z</time>
      </trkpt>
      <trkpt lat="47.83627" lon="6.62245">
        <ele>480</ele>
        <time>2019-08-18T08:40:11Z</time>
      </trkpt>
      <trkpt lat="47.8361" lon="6.62268">
        <ele>480</ele>
        <time>2019-08-18T08:40:16Z</time>
      </trkpt>
      <trkpt lat="47.83593" lon="6.62289">
        <ele>480</ele>
        <time>2019-08-18T08:40:21Z</time>
      </trkpt>
      <trkpt lat="47.83584" lon="6.62319">
        <ele>480</ele>
        <time>2019-08-18T08:40:26Z</time>
      </trkpt>
      <trkpt lat="47.83588" lon="6.62351">
        <ele>478</ele>
        <time>2019-08-18T08:40:31Z</time>
      </trkpt>
      <trkpt lat="47.836" lon="6.62374">
        <ele>481</ele>
        <time>2019-08-18T08:40:36Z</time>
      </trkpt>
      <trkpt lat="47.83611" lon="6.62392">
        <ele>482</ele>
        <time>2019-08-18T08:40:41Z</time>
      </trkpt>
      <trkpt lat="47.83625" lon="6.62411">
        <ele>483</ele>
        <time>2019-08-18T08:40:46Z</time>
      </trkpt>
      <trkpt lat="47.83639" lon="6.6243">
        <ele>483</ele>
        <time>2019-08-18T08:40:51Z</time>
      </trkpt>
      <trkpt lat="47.83649" lon="6.62454">
        <ele>484</ele>
        <time>2019-08-18T08:40:56Z</time>
      </trkpt>
      <trkpt lat="47.83662" lon="6.62479">
        <ele>486</ele>
        <time>2019-08-18T08:41:01Z</time>
      </trkpt>
      <trkpt lat="47.83675" lon="6.62503">
        <ele>488</ele>
        <time>2019-08-18T08:41:06Z</time>
      </trkpt>
      <trkpt lat="47.83688" lon="6.62524">
        <ele>489</ele>
        <time>2019-08-18T08:41:11Z</time>
      </trkpt>
      <trkpt lat="47.83703" lon="6.62547">
        <ele>490</ele>
        <time>2019-08-18T08:41:16Z</time>
      </trkpt>
      <trkpt lat="47.83714" lon="6.62565">
        <ele>490</ele>
        <time>2019-08-18T08:41:21Z</time>
      </trkpt>
      <trkpt lat="47.83728" lon="6.62582">
        <ele>491</ele>
        <time>2019-08-18T08:41:26Z</time>
      </trkpt>
      <trkpt lat="47.83743" lon="6.62597">
        <ele>491</ele>
        <time>2019-08-18T08:41:31Z</time>
      </trkpt>
      <trkpt lat="47.83759" lon="6.6261">
        <ele>491</ele>
        <time>2019-08-18T08:41:36Z</time>
      </trkpt>
      <trkpt lat="47.83777" lon="6.62623">
        <ele>492</ele>
        <time>2019-08-18T08:41:41Z</time>
      </trkpt>
      <trkpt lat="47.83797" lon="6.62641">
        <ele>492</ele>
        <time>2019-08-18T08:41:46Z</time>
      </trkpt>
      <trkpt lat="47.83818" lon="6.62656">
        <ele>494</ele>
        <time>2019-08-18T08:41:51Z</time>
      </trkpt>
      <trkpt lat="47.83836" lon="6.62677">
        <ele>494</ele>
        <time>2019-08-18T08:41:56Z</time>
      </trkpt>
      <trkpt lat="47.8385" lon="6.62699">
        <ele>494</ele>
        <time>2019-08-18T08:42:01Z</time>
      </trkpt>
      <trkpt lat="47.83866" lon="6.62721">
        <ele>495</ele>
        <time>2019-08-18T08:42:06Z</time>
      </trkpt>
      <trkpt lat="47.8388" lon="6.62742">
        <ele>494</ele>
        <time>2019-08-18T08:42:11Z</time>
      </trkpt>
      <trkpt lat="47.83892" lon="6.62758">
        <ele>494</ele>
        <time>2019-08-18T08:42:16Z</time>
      </trkpt>
      <trkpt lat="47.83911" lon="6.62768">
        <ele>494</ele>
        <time>2019-08-18T08:42:21Z</time>
      </trkpt>
      <trkpt lat="47.83931" lon="6.62781">
        <ele>496</ele>
        <time>2019-08-18T08:42:26Z</time>
      </trkpt>
      <trkpt lat="47.83946" lon="6.62798">
        <ele>498</ele>
        <time>2019-08-18T08:42:31Z</time>
      </trkpt>
      <trkpt lat="47.83964" lon="6.62821">
        <ele>499</ele>
        <time>2019-08-18T08:42:37Z</time>
      </trkpt>
      <trkpt lat="47.83975" lon="6.62835">
        <ele>499</ele>
        <time>2019-08-18T08:42:42Z</time>
      </trkpt>
      <trkpt lat="47.83984" lon="6.62846">
        <ele>500</ele>
        <time>2019-08-18T08:42:47Z</time>
      </trkpt>
      <trkpt lat="47.83997" lon="6.62857">
        <ele>500</ele>
        <time>2019-08-18T08:42:52Z</time>
      </trkpt>
      <trkpt lat="47.84005" lon="6.62871">
        <ele>501</ele>
        <time>2019-08-18T08:42:57Z</time>
      </trkpt>
      <trkpt lat="47.84013" lon="6.62887">
        <ele>502</ele>
        <time>2019-08-18T08:43:02Z</time>
      </trkpt>
      <trkpt lat="47.84023" lon="6.6291">
        <ele>503</ele>
        <time>2019-08-18T08:43:07Z</time>
      </trkpt>
      <trkpt lat="47.84033" lon="6.62932">
        <ele>503</ele>
        <time>2019-08-18T08:43:12Z</time>
      </trkpt>
      <trkpt lat="47.84044" lon="6.62945">
        <ele>504</ele>
        <time>2019-08-18T08:43:17Z</time>
      </trkpt>
      <trkpt lat="47.84055" lon="6.62963">
        <ele>504</ele>
        <time>2019-08-18T08:43:22Z</time>
      </trkpt>
      <trkpt lat="47.84061" lon="6.62976">
        <ele>505</ele>
        <time>2019-08-18T08:43:27Z</time>
      </trkpt>
      <trkpt lat="47.84072" lon="6.62998">
        <ele>506</ele>
        <time>2019-08-18T08:43:34Z</time>
      </trkpt>
      <trkpt lat="47.84077" lon="6.63016">
        <ele>508</ele>
        <time>2019-08-18T08:43:39Z</time>
      </trkpt>
      <trkpt lat="47.84082" lon="6.63034">
        <ele>508</ele>
        <time>2019-08-18T08:43:44Z</time>
      </trkpt>
      <trkpt lat="47.84087" lon="6.63056">
        <ele>510</ele>
        <time>2019-08-18T08:43:49Z</time>
      </trkpt>
      <trkpt lat="47.84094" lon="6.63083">
        <ele>510</ele>
        <time>2019-08-18T08:43:54Z</time>
      </trkpt>
      <trkpt lat="47.84101" lon="6.63108">
        <ele>510</ele>
        <time>2019-08-18T08:43:59Z</time>
      </trkpt>
      <trkpt lat="47.84105" lon="6.6313">
        <ele>511</ele>
        <time>2019-08-18T08:44:04Z</time>
      </trkpt>
      <trkpt lat="47.84107" lon="6.63154">
        <ele>512</ele>
        <time>2019-08-18T08:44:09Z</time>
      </trkpt>
      <trkpt lat="47.8411" lon="6.63178">
        <ele>512</ele>
        <time>2019-08-18T08:44:14Z</time>
      </trkpt>
      <trkpt lat="47.84113" lon="6.63199">
        <ele>513</ele>
        <time>2019-08-18T08:44:19Z</time>
      </trkpt>
      <trkpt lat="47.84121" lon="6.63221">
        <ele>514</ele>
        <time>2019-08-18T08:44:24Z</time>
      </trkpt>
      <trkpt lat="47.84129" lon="6.63244">
        <ele>514</ele>
        <time>2019-08-18T08:44:29Z</time>
      </trkpt>
      <trkpt lat="47.84136" lon="6.63266">
        <ele>515</ele>
        <time>2019-08-18T08:44:34Z</time>
      </trkpt>
      <trkpt lat="47.84138" lon="6.63282">
        <ele>516</ele>
        <time>2019-08-18T08:44:39Z</time>
      </trkpt>
      <trkpt lat="47.84139" lon="6.63295">
        <ele>518</ele>
        <time>2019-08-18T08:44:44Z</time>
      </trkpt>
      <trkpt lat="47.84149" lon="6.63329">
        <ele>520</ele>
        <time>2019-08-18T08:44:52Z</time>
      </trkpt>
      <trkpt lat="47.84164" lon="6.63361">
        <ele>521</ele>
        <time>2019-08-18T08:45:03Z</time>
      </trkpt>
      <trkpt lat="47.84168" lon="6.63374">
        <ele>522</ele>
        <time>2019-08-18T08:45:08Z</time>
      </trkpt>
      <trkpt lat="47.84168" lon="6.63385">
        <ele>523</ele>
        <time>2019-08-18T08:45:13Z</time>
      </trkpt>
      <trkpt lat="47.84229" lon="6.63691">
        <ele>524</ele>
        <time>2019-08-18T08:47:17Z</time>
      </trkpt>
      <trkpt lat="47.84238" lon="6.63698">
        <ele>525</ele>
        <time>2019-08-18T08:47:23Z</time>
      </trkpt>
      <trkpt lat="47.84243" lon="6.63698">
        <ele>525</ele>
        <time>2019-08-18T08:47:28Z</time>
      </trkpt>
      <trkpt lat="47.84256" lon="6.63708">
        <ele>527</ele>
        <time>2019-08-18T08:47:38Z</time>
      </trkpt>
      <trkpt lat="47.84264" lon="6.63712">
        <ele>529</ele>
        <time>2019-08-18T08:47:43Z</time>
      </trkpt>
      <trkpt lat="47.8427" lon="6.63717">
        <ele>531</ele>
        <time>2019-08-18T08:47:48Z</time>
      </trkpt>
      <trkpt lat="47.84279" lon="6.63724">
        <ele>531</ele>
        <time>2019-08-18T08:47:54Z</time>
      </trkpt>
      <trkpt lat="47.84286" lon="6.63732">
        <ele>531</ele>
        <time>2019-08-18T08:48:00Z</time>
      </trkpt>
      <trkpt lat="47.84231" lon="6.63796">
        <ele>542</ele>
        <time>2019-08-18T08:49:08Z</time>
      </trkpt>
      <trkpt lat="47.84225" lon="6.63799">
        <ele>543</ele>
        <time>2019-08-18T08:49:13Z</time>
      </trkpt>
      <trkpt lat="47.84217" lon="6.63802">
        <ele>544</ele>
        <time>2019-08-18T08:49:19Z</time>
      </trkpt>
      <trkpt lat="47.84013" lon="6.6408">
        <ele>575</ele>
        <time>2019-08-18T08:53:03Z</time>
      </trkpt>
      <trkpt lat="47.83993" lon="6.6413">
        <ele>574</ele>
        <time>2019-08-18T08:53:11Z</time>
      </trkpt>
      <trkpt lat="47.83986" lon="6.64147">
        <ele>574</ele>
        <time>2019-08-18T08:53:16Z</time>
      </trkpt>
      <trkpt lat="47.83959" lon="6.64234">
        <ele>590</ele>
        <time>2019-08-18T08:55:21Z</time>
      </trkpt>
      <trkpt lat="47.83949" lon="6.64223">
        <ele>590</ele>
        <time>2019-08-18T08:55:26Z</time>
      </trkpt>
      <trkpt lat="47.83939" lon="6.64216">
        <ele>591</ele>
        <time>2019-08-18T08:55:31Z</time>
      </trkpt>
      <trkpt lat="47.83931" lon="6.64219">
        <ele>590</ele>
        <time>2019-08-18T08:55:36Z</time>
      </trkpt>
      <trkpt lat="47.8392" lon="6.64224">
        <ele>591</ele>
        <time>2019-08-18T08:55:41Z</time>
      </trkpt>
      <trkpt lat="47.83908" lon="6.64231">
        <ele>591</ele>
        <time>2019-08-18T08:55:46Z</time>
      </trkpt>
      <trkpt lat="47.83895" lon="6.64241">
        <ele>593</ele>
        <time>2019-08-18T08:55:51Z</time>
      </trkpt>
      <trkpt lat="47.83884" lon="6.6425">
        <ele>594</ele>
        <time>2019-08-18T08:55:56Z</time>
      </trkpt>
      <trkpt lat="47.83877" lon="6.64263">
        <ele>595</ele>
        <time>2019-08-18T08:56:01Z</time>
      </trkpt>
      <trkpt lat="47.83867" lon="6.64279">
        <ele>595</ele>
        <time>2019-08-18T08:56:06Z</time>
      </trkpt>
      <trkpt lat="47.83859" lon="6.64296">
        <ele>595</ele>
        <time>2019-08-18T08:56:11Z</time>
      </trkpt>
      <trkpt lat="47.83843" lon="6.64318">
        <ele>594</ele>
        <time>2019-08-18T08:56:16Z</time>
      </trkpt>
      <trkpt lat="47.83832" lon="6.64329">
        <ele>593</ele>
        <time>2019-08-18T08:56:21Z</time>
      </trkpt>
      <trkpt lat="47.83825" lon="6.64339">
        <ele>594</ele>
        <time>2019-08-18T08:56:26Z</time>
      </trkpt>
      <trkpt lat="47.83816" lon="6.64345">
        <ele>596</ele>
        <time>2019-08-18T08:56:31Z</time>
      </trkpt>
      <trkpt lat="47.83807" lon="6.64356">
        <ele>596</ele>
        <time>2019-08-18T08:56:36Z</time>
      </trkpt>
      <trkpt lat="47.83801" lon="6.64366">
        <ele>597</ele>
        <time>2019-08-18T08:56:41Z</time>
      </trkpt>
      <trkpt lat="47.83795" lon="6.64374">
        <ele>598</ele>
        <time>2019-08-18T08:56:46Z</time>
      </trkpt>
      <trkpt lat="47.83788" lon="6.64378">
        <ele>599</ele>
        <time>2019-08-18T08:56:51Z</time>
      </trkpt>
      <trkpt lat="47.83788" lon="6.6439">
        <ele>601</ele>
        <time>2019-08-18T08:56:56Z</time>
      </trkpt>
      <trkpt lat="47.83791" lon="6.64404">
        <ele>603</ele>
        <time>2019-08-18T08:57:01Z</time>
      </trkpt>
      <trkpt lat="47.83793" lon="6.64413">
        <ele>605</ele>
        <time>2019-08-18T08:57:06Z</time>
      </trkpt>
      <trkpt lat="47.83794" lon="6.64425">
        <ele>606</ele>
        <time>2019-08-18T08:57:11Z</time>
      </trkpt>
      <trkpt lat="47.83799" lon="6.64571">
        <ele>618</ele>
        <time>2019-08-18T08:58:05Z</time>
      </trkpt>
      <trkpt lat="47.83787" lon="6.64583">
        <ele>616</ele>
        <time>2019-08-18T08:59:02Z</time>
      </trkpt>
      <trkpt lat="47.83785" lon="6.64573">
        <ele>617</ele>
        <time>2019-08-18T08:59:07Z</time>
      </trkpt>
      <trkpt lat="47.83783" lon="6.64563">
        <ele>618</ele>
        <time>2019-08-18T08:59:12Z</time>
      </trkpt>
      <trkpt lat="47.83734" lon="6.64413">
        <ele>635</ele>
        <time>2019-08-18T09:00:24Z</time>
      </trkpt>
      <trkpt lat="47.83732" lon="6.64398">
        <ele>638</ele>
        <time>2019-08-18T09:00:29Z</time>
      </trkpt>
      <trkpt lat="47.83732" lon="6.64383">
        <ele>637</ele>
        <time>2019-08-18T09:00:34Z</time>
      </trkpt>
      <trkpt lat="47.83727" lon="6.6437">
        <ele>637</ele>
        <time>2019-08-18T09:00:39Z</time>
      </trkpt>
      <trkpt lat="47.83719" lon="6.6436">
        <ele>636</ele>
        <time>2019-08-18T09:00:44Z</time>
      </trkpt>
      <trkpt lat="47.83709" lon="6.6435">
        <ele>636</ele>
        <time>2019-08-18T09:00:49Z</time>
      </trkpt>
      <trkpt lat="47.83699" lon="6.64346">
        <ele>636</ele>
        <time>2019-08-18T09:00:54Z</time>
      </trkpt>
      <trkpt lat="47.83689" lon="6.64352">
        <ele>636</ele>
        <time>2019-08-18T09:00:59Z</time>
      </trkpt>
      <trkpt lat="47.83682" lon="6.64361">
        <ele>636</ele>
        <time>2019-08-18T09:01:04Z</time>
      </trkpt>
      <trkpt lat="47.8368" lon="6.64372">
        <ele>637</ele>
        <time>2019-08-18T09:01:09Z</time>
      </trkpt>
      <trkpt lat="47.83677" lon="6.64385">
        <ele>637</ele>
        <time>2019-08-18T09:01:14Z</time>
      </trkpt>
      <trkpt lat="47.8364" lon="6.64444">
        <ele>641</ele>
        <time>2019-08-18T09:01:43Z</time>
      </trkpt>
      <trkpt lat="47.83634" lon="6.64454">
        <ele>643</ele>
        <time>2019-08-18T09:01:48Z</time>
      </trkpt>
      <trkpt lat="47.83629" lon="6.64467">
        <ele>644</ele>
        <time>2019-08-18T09:01:53Z</time>
      </trkpt>
      <trkpt lat="47.83626" lon="6.64493">
        <ele>644</ele>
        <time>2019-08-18T09:02:00Z</time>
      </trkpt>
      <trkpt lat="47.83622" lon="6.64514">
        <ele>645</ele>
        <time>2019-08-18T09:02:05Z</time>
      </trkpt>
      <trkpt lat="47.83616" lon="6.64534">
        <ele>646</ele>
        <time>2019-08-18T09:02:10Z</time>
      </trkpt>
      <trkpt lat="47.83611" lon="6.64553">
        <ele>645</ele>
        <time>2019-08-18T09:02:15Z</time>
      </trkpt>
      <trkpt lat="47.83611" lon="6.64569">
        <ele>644</ele>
        <time>2019-08-18T09:02:20Z</time>
      </trkpt>
      <trkpt lat="47.83611" lon="6.64581">
        <ele>644</ele>
        <time>2019-08-18T09:02:25Z</time>
      </trkpt>
      <trkpt lat="47.83608" lon="6.64603">
        <ele>643</ele>
        <time>2019-08-18T09:02:30Z</time>
      </trkpt>
      <trkpt lat="47.83605" lon="6.64631">
        <ele>644</ele>
        <time>2019-08-18T09:02:35Z</time>
      </trkpt>
      <trkpt lat="47.83608" lon="6.64655">
        <ele>645</ele>
        <time>2019-08-18T09:02:40Z</time>
      </trkpt>
      <trkpt lat="47.83609" lon="6.64684">
        <ele>644</ele>
        <time>2019-08-18T09:02:45Z</time>
      </trkpt>
      <trkpt lat="47.83615" lon="6.64711">
        <ele>645</ele>
        <time>2019-08-18T09:02:50Z</time>
      </trkpt>
      <trkpt lat="47.83619" lon="6.64739">
        <ele>644</ele>
        <time>2019-08-18T09:02:55Z</time>
      </trkpt>
      <trkpt lat="47.83623" lon="6.64764">
        <ele>644</ele>
        <time>2019-08-18T09:03:00Z</time>
      </trkpt>
      <trkpt lat="47.83623" lon="6.64791">
        <ele>644</ele>
        <time>2019-08-18T09:03:05Z</time>
      </trkpt>
      <trkpt lat="47.83616" lon="6.64819">
        <ele>645</ele>
        <time>2019-08-18T09:03:10Z</time>
      </trkpt>
      <trkpt lat="47.83613" lon="6.6484">
        <ele>645</ele>
        <time>2019-08-18T09:03:15Z</time>
      </trkpt>
      <trkpt lat="47.83615" lon="6.64857">
        <ele>645</ele>
        <time>2019-08-18T09:03:20Z</time>
      </trkpt>
      <trkpt lat="47.83623" lon="6.64877">
        <ele>646</ele>
        <time>2019-08-18T09:03:25Z</time>
      </trkpt>
      <trkpt lat="47.83629" lon="6.64894">
        <ele>646</ele>
        <time>2019-08-18T09:03:30Z</time>
      </trkpt>
      <trkpt lat="47.83632" lon="6.64911">
        <ele>647</ele>
        <time>2019-08-18T09:03:35Z</time>
      </trkpt>
      <trkpt lat="47.83632" lon="6.64927">
        <ele>648</ele>
        <time>2019-08-18T09:03:40Z</time>
      </trkpt>
      <trkpt lat="47.83632" lon="6.64944">
        <ele>649</ele>
        <time>2019-08-18T09:03:45Z</time>
      </trkpt>
      <trkpt lat="47.83633" lon="6.64966">
        <ele>649</ele>
        <time>2019-08-18T09:03:50Z</time>
      </trkpt>
      <trkpt lat="47.83636" lon="6.64989">
        <ele>649</ele>
        <time>2019-08-18T09:03:55Z</time>
      </trkpt>
      <trkpt lat="47.83637" lon="6.65009">
        <ele>650</ele>
        <time>2019-08-18T09:04:00Z</time>
      </trkpt>
      <trkpt lat="47.83637" lon="6.65035">
        <ele>650</ele>
        <time>2019-08-18T09:04:05Z</time>
      </trkpt>
      <trkpt lat="47.83637" lon="6.65074">
        <ele>650</ele>
        <time>2019-08-18T09:04:10Z</time>
      </trkpt>
      <trkpt lat="47.83643" lon="6.65106">
        <ele>651</ele>
        <time>2019-08-18T09:04:15Z</time>
      </trkpt>
      <trkpt lat="47.83649" lon="6.65139">
        <ele>650</ele>
        <time>2019-08-18T09:04:20Z</time>
      </trkpt>
      <trkpt lat="47.83662" lon="6.65166">
        <ele>650</ele>
        <time>2019-08-18T09:04:25Z</time>
      </trkpt>
      <trkpt lat="47.83667" lon="6.65193">
        <ele>651</ele>
        <time>2019-08-18T09:04:30Z</time>
      </trkpt>
      <trkpt lat="47.83668" lon="6.65226">
        <ele>652</ele>
        <time>2019-08-18T09:04:35Z</time>
      </trkpt>
      <trkpt lat="47.83667" lon="6.65245">
        <ele>652</ele>
        <time>2019-08-18T09:04:40Z</time>
      </trkpt>
      <trkpt lat="47.83718" lon="6.65274">
        <ele>651</ele>
        <time>2019-08-18T09:06:03Z</time>
      </trkpt>
      <trkpt lat="47.83733" lon="6.65299">
        <ele>651</ele>
        <time>2019-08-18T09:06:08Z</time>
      </trkpt>
      <trkpt lat="47.83749" lon="6.65316">
        <ele>653</ele>
        <time>2019-08-18T09:06:13Z</time>
      </trkpt>
      <trkpt lat="47.83769" lon="6.65337">
        <ele>654</ele>
        <time>2019-08-18T09:06:18Z</time>
      </trkpt>
      <trkpt lat="47.83791" lon="6.6534">
        <ele>653</ele>
        <time>2019-08-18T09:06:23Z</time>
      </trkpt>
      <trkpt lat="47.83812" lon="6.65348">
        <ele>652</ele>
        <time>2019-08-18T09:06:28Z</time>
      </trkpt>
      <trkpt lat="47.83832" lon="6.65352">
        <ele>651</ele>
        <time>2019-08-18T09:06:33Z</time>
      </trkpt>
      <trkpt lat="47.8385" lon="6.65348">
        <ele>651</ele>
        <time>2019-08-18T09:06:38Z</time>
      </trkpt>
      <trkpt lat="47.83868" lon="6.6535">
        <ele>652</ele>
        <time>2019-08-18T09:06:43Z</time>
      </trkpt>
      <trkpt lat="47.83883" lon="6.65362">
        <ele>652</ele>
        <time>2019-08-18T09:06:48Z</time>
      </trkpt>
      <trkpt lat="47.83895" lon="6.65377">
        <ele>653</ele>
        <time>2019-08-18T09:06:53Z</time>
      </trkpt>
      <trkpt lat="47.83905" lon="6.65387">
        <ele>653</ele>
        <time>2019-08-18T09:06:58Z</time>
      </trkpt>
      <trkpt lat="47.83915" lon="6.65389">
        <ele>653</ele>
        <time>2019-08-18T09:07:03Z</time>
      </trkpt>
      <trkpt lat="47.83925" lon="6.65374">
        <ele>653</ele>
        <time>2019-08-18T09:07:08Z</time>
      </trkpt>
      <trkpt lat="47.83934" lon="6.65357">
        <ele>652</ele>
        <time>2019-08-18T09:07:13Z</time>
      </trkpt>
      <trkpt lat="47.83942" lon="6.65339">
        <ele>651</ele>
        <time>2019-08-18T09:07:18Z</time>
      </trkpt>
      <trkpt lat="47.8395" lon="6.65327">
        <ele>651</ele>
        <time>2019-08-18T09:07:23Z</time>
      </trkpt>
      <trkpt lat="47.83962" lon="6.65322">
        <ele>653</ele>
        <time>2019-08-18T09:07:28Z</time>
      </trkpt>
      <trkpt lat="47.83974" lon="6.65332">
        <ele>655</ele>
        <time>2019-08-18T09:07:33Z</time>
      </trkpt>
      <trkpt lat="47.8399" lon="6.6535">
        <ele>656</ele>
        <time>2019-08-18T09:07:41Z</time>
      </trkpt>
      <trkpt lat="47.83999" lon="6.65365">
        <ele>657</ele>
        <time>2019-08-18T09:07:46Z</time>
      </trkpt>
      <trkpt lat="47.84011" lon="6.65383">
        <ele>658</ele>
        <time>2019-08-18T09:07:51Z</time>
      </trkpt>
      <trkpt lat="47.84023" lon="6.65401">
        <ele>658</ele>
        <time>2019-08-18T09:07:56Z</time>
      </trkpt>
      <trkpt lat="47.84041" lon="6.65401">
        <ele>659</ele>
        <time>2019-08-18T09:08:01Z</time>
      </trkpt>
      <trkpt lat="47.84058" lon="6.65413">
        <ele>657</ele>
        <time>2019-08-18T09:08:06Z</time>
      </trkpt>
      <trkpt lat="47.8407" lon="6.65428">
        <ele>659</ele>
        <time>2019-08-18T09:08:11Z</time>
      </trkpt>
      <trkpt lat="47.84081" lon="6.65442">
        <ele>659</ele>
        <time>2019-08-18T09:08:16Z</time>
      </trkpt>
      <trkpt lat="47.84092" lon="6.65455">
        <ele>660</ele>
        <time>2019-08-18T09:08:21Z</time>
      </trkpt>
      <trkpt lat="47.841" lon="6.65466">
        <ele>660</ele>
        <time>2019-08-18T09:08:26Z</time>
      </trkpt>
      <trkpt lat="47.84116" lon="6.65487">
        <ele>659</ele>
        <time>2019-08-18T09:08:31Z</time>
      </trkpt>
      <trkpt lat="47.84142" lon="6.65498">
        <ele>658</ele>
        <time>2019-08-18T09:08:36Z</time>
      </trkpt>
      <trkpt lat="47.84167" lon="6.65477">
        <ele>658</ele>
        <time>2019-08-18T09:08:41Z</time>
      </trkpt>
      <trkpt lat="47.8419" lon="6.65489">
        <ele>659</ele>
        <time>2019-08-18T09:08:46Z</time>
      </trkpt>
      <trkpt lat="47.84207" lon="6.65497">
        <ele>659</ele>
        <time>2019-08-18T09:08:51Z</time>
      </trkpt>
      <trkpt lat="47.84221" lon="6.65506">
        <ele>660</ele>
        <time>2019-08-18T09:08:56Z</time>
      </trkpt>
      <trkpt lat="47.84229" lon="6.65516">
        <ele>660</ele>
        <time>2019-08-18T09:09:01Z</time>
      </trkpt>
      <trkpt lat="47.84239" lon="6.65526">
        <ele>661</ele>
        <time>2019-08-18T09:09:06Z</time>
      </trkpt>
      <trkpt lat="47.84252" lon="6.65538">
        <ele>662</ele>
        <time>2019-08-18T09:09:11Z</time>
      </trkpt>
      <trkpt lat="47.84261" lon="6.65546">
        <ele>663</ele>
        <time>2019-08-18T09:09:16Z</time>
      </trkpt>
      <trkpt lat="47.84269" lon="6.6555">
        <ele>664</ele>
        <time>2019-08-18T09:09:21Z</time>
      </trkpt>
      <trkpt lat="47.84279" lon="6.65559">
        <ele>666</ele>
        <time>2019-08-18T09:09:26Z</time>
      </trkpt>
      <trkpt lat="47.8429" lon="6.65573">
        <ele>666</ele>
        <time>2019-08-18T09:09:31Z</time>
      </trkpt>
      <trkpt lat="47.84304" lon="6.65589">
        <ele>668</ele>
        <time>2019-08-18T09:09:36Z</time>
      </trkpt>
      <trkpt lat="47.84315" lon="6.65605">
        <ele>671</ele>
        <time>2019-08-18T09:09:41Z</time>
      </trkpt>
      <trkpt lat="47.84325" lon="6.65625">
        <ele>672</ele>
        <time>2019-08-18T09:09:46Z</time>
      </trkpt>
      <trkpt lat="47.84334" lon="6.65644">
        <ele>673</ele>
        <time>2019-08-18T09:09:51Z</time>
      </trkpt>
      <trkpt lat="47.84342" lon="6.65657">
        <ele>674</ele>
        <time>2019-08-18T09:09:56Z</time>
      </trkpt>
      <trkpt lat="47.84349" lon="6.65666">
        <ele>674</ele>
        <time>2019-08-18T09:10:01Z</time>
      </trkpt>
      <trkpt lat="47.84361" lon="6.65672">
        <ele>675</ele>
        <time>2019-08-18T09:10:06Z</time>
      </trkpt>
      <trkpt lat="47.84375" lon="6.65685">
        <ele>677</ele>
        <time>2019-08-18T09:10:11Z</time>
      </trkpt>
      <trkpt lat="47.84389" lon="6.65706">
        <ele>677</ele>
        <time>2019-08-18T09:10:16Z</time>
      </trkpt>
      <trkpt lat="47.84403" lon="6.65731">
        <ele>679</ele>
        <time>2019-08-18T09:10:21Z</time>
      </trkpt>
      <trkpt lat="47.84415" lon="6.65752">
        <ele>680</ele>
        <time>2019-08-18T09:10:26Z</time>
      </trkpt>
      <trkpt lat="47.84426" lon="6.65772">
        <ele>681</ele>
        <time>2019-08-18T09:10:31Z</time>
      </trkpt>
      <trkpt lat="47.84439" lon="6.65792">
        <ele>679</ele>
        <time>2019-08-18T09:10:36Z</time>
      </trkpt>
      <trkpt lat="47.84454" lon="6.65813">
        <ele>678</ele>
        <time>2019-08-18T09:10:41Z</time>
      </trkpt>
      <trkpt lat="47.84469" lon="6.65832">
        <ele>679</ele>
        <time>2019-08-18T09:10:46Z</time>
      </trkpt>
      <trkpt lat="47.84478" lon="6.65846">
        <ele>679</ele>
        <time>2019-08-18T09:10:51Z</time>
      </trkpt>
      <trkpt lat="47.84491" lon="6.65856">
        <ele>679</ele>
        <time>2019-08-18T09:10:56Z</time>
      </trkpt>
      <trkpt lat="47.84511" lon="6.65876">
        <ele>676</ele>
        <time>2019-08-18T09:11:01Z</time>
      </trkpt>
      <trkpt lat="47.84532" lon="6.65897">
        <ele>674</ele>
        <time>2019-08-18T09:11:06Z</time>
      </trkpt>
      <trkpt lat="47.84552" lon="6.65885">
        <ele>673</ele>
        <time>2019-08-18T09:11:11Z</time>
      </trkpt>
      <trkpt lat="47.84571" lon="6.65878">
        <ele>672</ele>
        <time>2019-08-18T09:11:16Z</time>
      </trkpt>
      <trkpt lat="47.8459" lon="6.65869">
        <ele>672</ele>
        <time>2019-08-18T09:11:21Z</time>
      </trkpt>
      <trkpt lat="47.84609" lon="6.65859">
        <ele>672</ele>
        <time>2019-08-18T09:11:26Z</time>
      </trkpt>
      <trkpt lat="47.84627" lon="6.65841">
        <ele>672</ele>
        <time>2019-08-18T09:11:31Z</time>
      </trkpt>
      <trkpt lat="47.84641" lon="6.65817">
        <ele>671</ele>
        <time>2019-08-18T09:11:36Z</time>
      </trkpt>
      <trkpt lat="47.84649" lon="6.65787">
        <ele>670</ele>
        <time>2019-08-18T09:11:41Z</time>
      </trkpt>
      <trkpt lat="47.84653" lon="6.65779">
        <ele>671</ele>
        <time>2019-08-18T09:11:46Z</time>
      </trkpt>
      <trkpt lat="47.84654" lon="6.65764">
        <ele>672</ele>
        <time>2019-08-18T09:11:51Z</time>
      </trkpt>
      <trkpt lat="47.8465" lon="6.6574">
        <ele>672</ele>
        <time>2019-08-18T09:11:56Z</time>
      </trkpt>
      <trkpt lat="47.8465" lon="6.65708">
        <ele>672</ele>
        <time>2019-08-18T09:12:01Z</time>
      </trkpt>
      <trkpt lat="47.84651" lon="6.65676">
        <ele>671</ele>
        <time>2019-08-18T09:12:06Z</time>
      </trkpt>
      <trkpt lat="47.84659" lon="6.65653">
        <ele>669</ele>
        <time>2019-08-18T09:12:13Z</time>
      </trkpt>
      <trkpt lat="47.84673" lon="6.65655">
        <ele>669</ele>
        <time>2019-08-18T09:12:18Z</time>
      </trkpt>
      <trkpt lat="47.84684" lon="6.65662">
        <ele>669</ele>
        <time>2019-08-18T09:12:23Z</time>
      </trkpt>
      <trkpt lat="47.84693" lon="6.65671">
        <ele>669</ele>
        <time>2019-08-18T09:12:28Z</time>
      </trkpt>
      <trkpt lat="47.84704" lon="6.65685">
        <ele>669</ele>
        <time>2019-08-18T09:12:33Z</time>
      </trkpt>
      <trkpt lat="47.8472" lon="6.65679">
        <ele>669</ele>
        <time>2019-08-18T09:12:38Z</time>
      </trkpt>
      <trkpt lat="47.84742" lon="6.65685">
        <ele>666</ele>
        <time>2019-08-18T09:12:43Z</time>
      </trkpt>
      <trkpt lat="47.84763" lon="6.65686">
        <ele>665</ele>
        <time>2019-08-18T09:12:48Z</time>
      </trkpt>
      <trkpt lat="47.84787" lon="6.65688">
        <ele>662</ele>
        <time>2019-08-18T09:12:53Z</time>
      </trkpt>
      <trkpt lat="47.84813" lon="6.65665">
        <ele>660</ele>
        <time>2019-08-18T09:12:58Z</time>
      </trkpt>
      <trkpt lat="47.84835" lon="6.65628">
        <ele>657</ele>
        <time>2019-08-18T09:13:03Z</time>
      </trkpt>
      <trkpt lat="47.84846" lon="6.65592">
        <ele>656</ele>
        <time>2019-08-18T09:13:08Z</time>
      </trkpt>
      <trkpt lat="47.84862" lon="6.65578">
        <ele>655</ele>
        <time>2019-08-18T09:13:13Z</time>
      </trkpt>
      <trkpt lat="47.84869" lon="6.65602">
        <ele>654</ele>
        <time>2019-08-18T09:13:18Z</time>
      </trkpt>
      <trkpt lat="47.84866" lon="6.65623">
        <ele>654</ele>
        <time>2019-08-18T09:13:23Z</time>
      </trkpt>
      <trkpt lat="47.8486" lon="6.65668">
        <ele>655</ele>
        <time>2019-08-18T09:13:28Z</time>
      </trkpt>
      <trkpt lat="47.8486" lon="6.65691">
        <ele>655</ele>
        <time>2019-08-18T09:13:33Z</time>
      </trkpt>
      <trkpt lat="47.84877" lon="6.65669">
        <ele>653</ele>
        <time>2019-08-18T09:13:38Z</time>
      </trkpt>
      <trkpt lat="47.84904" lon="6.65622">
        <ele>652</ele>
        <time>2019-08-18T09:13:43Z</time>
      </trkpt>
      <trkpt lat="47.84922" lon="6.6559">
        <ele>649</ele>
        <time>2019-08-18T09:13:48Z</time>
      </trkpt>
      <trkpt lat="47.84954" lon="6.65585">
        <ele>644</ele>
        <time>2019-08-18T09:13:54Z</time>
      </trkpt>
      <trkpt lat="47.84969" lon="6.65637">
        <ele>640</ele>
        <time>2019-08-18T09:14:01Z</time>
      </trkpt>
      <trkpt lat="47.84981" lon="6.65617">
        <ele>636</ele>
        <time>2019-08-18T09:14:07Z</time>
      </trkpt>
      <trkpt lat="47.84994" lon="6.6563">
        <ele>634</ele>
        <time>2019-08-18T09:14:13Z</time>
      </trkpt>
      <trkpt lat="47.85006" lon="6.65686">
        <ele>631</ele>
        <time>2019-08-18T09:14:19Z</time>
      </trkpt>
      <trkpt lat="47.85011" lon="6.65725">
        <ele>630</ele>
        <time>2019-08-18T09:14:24Z</time>
      </trkpt>
      <trkpt lat="47.85011" lon="6.65764">
        <ele>629</ele>
        <time>2019-08-18T09:14:30Z</time>
      </trkpt>
      <trkpt lat="47.85012" lon="6.65784">
        <ele>627</ele>
        <time>2019-08-18T09:14:35Z</time>
      </trkpt>
      <trkpt lat="47.85025" lon="6.65767">
        <ele>622</ele>
        <time>2019-08-18T09:14:41Z</time>
      </trkpt>
      <trkpt lat="47.85046" lon="6.6573">
        <ele>616</ele>
        <time>2019-08-18T09:14:47Z</time>
      </trkpt>
      <trkpt lat="47.85074" lon="6.6569">
        <ele>609</ele>
        <time>2019-08-18T09:14:53Z</time>
      </trkpt>
      <trkpt lat="47.85095" lon="6.65677">
        <ele>606</ele>
        <time>2019-08-18T09:14:58Z</time>
      </trkpt>
      <trkpt lat="47.85128" lon="6.6569">
        <ele>603</ele>
        <time>2019-08-18T09:15:04Z</time>
      </trkpt>
      <trkpt lat="47.85141" lon="6.65718">
        <ele>603</ele>
        <time>2019-08-18T09:15:10Z</time>
      </trkpt>
      <trkpt lat="47.85139" lon="6.65742">
        <ele>602</ele>
        <time>2019-08-18T09:15:16Z</time>
      </trkpt>
      <trkpt lat="47.85133" lon="6.65752">
        <ele>601</ele>
        <time>2019-08-18T09:15:21Z</time>
      </trkpt>
      <trkpt lat="47.85125" lon="6.65761">
        <ele>601</ele>
        <time>2019-08-18T09:15:26Z</time>
      </trkpt>
      <trkpt lat="47.85118" lon="6.65776">
        <ele>599</ele>
        <time>2019-08-18T09:15:31Z</time>
      </trkpt>
      <trkpt lat="47.85111" lon="6.65797">
        <ele>599</ele>
        <time>2019-08-18T09:15:37Z</time>
      </trkpt>
      <trkpt lat="47.85107" lon="6.65815">
        <ele>599</ele>
        <time>2019-08-18T09:15:43Z</time>
      </trkpt>
      <trkpt lat="47.85107" lon="6.65832">
        <ele>598</ele>
        <time>2019-08-18T09:15:49Z</time>
      </trkpt>
      <trkpt lat="47.85111" lon="6.65865">
        <ele>598</ele>
        <time>2019-08-18T09:15:55Z</time>
      </trkpt>
      <trkpt lat="47.85109" lon="6.659">
        <ele>597</ele>
        <time>2019-08-18T09:16:00Z</time>
      </trkpt>
      <trkpt lat="47.851" lon="6.65936">
        <ele>598</ele>
        <time>2019-08-18T09:16:06Z</time>
      </trkpt>
      <trkpt lat="47.85097" lon="6.65963">
        <ele>599</ele>
        <time>2019-08-18T09:16:11Z</time>
      </trkpt>
      <trkpt lat="47.85092" lon="6.65989">
        <ele>599</ele>
        <time>2019-08-18T09:16:17Z</time>
      </trkpt>
      <trkpt lat="47.85093" lon="6.66007">
        <ele>599</ele>
        <time>2019-08-18T09:16:22Z</time>
      </trkpt>
      <trkpt lat="47.85093" lon="6.66023">
        <ele>599</ele>
        <time>2019-08-18T09:16:27Z</time>
      </trkpt>
      <trkpt lat="47.8509" lon="6.66036">
        <ele>599</ele>
        <time>2019-08-18T09:16:33Z</time>
      </trkpt>
      <trkpt lat="47.85041" lon="6.66265">
        <ele>607</ele>
        <time>2019-08-18T09:17:38Z</time>
      </trkpt>
      <trkpt lat="47.85037" lon="6.66285">
        <ele>607</ele>
        <time>2019-08-18T09:17:43Z</time>
      </trkpt>
      <trkpt lat="47.85031" lon="6.66304">
        <ele>607</ele>
        <time>2019-08-18T09:17:49Z</time>
      </trkpt>
      <trkpt lat="47.8503" lon="6.66322">
        <ele>608</ele>
        <time>2019-08-18T09:17:54Z</time>
      </trkpt>
      <trkpt lat="47.8503" lon="6.6636">
        <ele>609</ele>
        <time>2019-08-18T09:18:00Z</time>
      </trkpt>
      <trkpt lat="47.85032" lon="6.66393">
        <ele>610</ele>
        <time>2019-08-18T09:18:05Z</time>
      </trkpt>
      <trkpt lat="47.85037" lon="6.66424">
        <ele>611</ele>
        <time>2019-08-18T09:18:11Z</time>
      </trkpt>
      <trkpt lat="47.85051" lon="6.66451">
        <ele>612</ele>
        <time>2019-08-18T09:18:16Z</time>
      </trkpt>
      <trkpt lat="47.85077" lon="6.66465">
        <ele>612</ele>
        <time>2019-08-18T09:18:22Z</time>
      </trkpt>
      <trkpt lat="47.85098" lon="6.66478">
        <ele>612</ele>
        <time>2019-08-18T09:18:27Z</time>
      </trkpt>
      <trkpt lat="47.85116" lon="6.66497">
        <ele>613</ele>
        <time>2019-08-18T09:18:32Z</time>
      </trkpt>
      <trkpt lat="47.85128" lon="6.66515">
        <ele>613</ele>
        <time>2019-08-18T09:18:37Z</time>
      </trkpt>
      <trkpt lat="47.85151" lon="6.66547">
        <ele>614</ele>
        <time>2019-08-18T09:18:45Z</time>
      </trkpt>
      <trkpt lat="47.85167" lon="6.6657">
        <ele>615</ele>
        <time>2019-08-18T09:18:50Z</time>
      </trkpt>
      <trkpt lat="47.85182" lon="6.66596">
        <ele>617</ele>
        <time>2019-08-18T09:18:55Z</time>
      </trkpt>
      <trkpt lat="47.85201" lon="6.66619">
        <ele>617</ele>
        <time>2019-08-18T09:19:01Z</time>
      </trkpt>
      <trkpt lat="47.8522" lon="6.66642">
        <ele>617</ele>
        <time>2019-08-18T09:19:07Z</time>
      </trkpt>
      <trkpt lat="47.85232" lon="6.66666">
        <ele>618</ele>
        <time>2019-08-18T09:19:12Z</time>
      </trkpt>
      <trkpt lat="47.85247" lon="6.6669">
        <ele>618</ele>
        <time>2019-08-18T09:19:17Z</time>
      </trkpt>
      <trkpt lat="47.85267" lon="6.66722">
        <ele>618</ele>
        <time>2019-08-18T09:19:24Z</time>
      </trkpt>
      <trkpt lat="47.85281" lon="6.66745">
        <ele>619</ele>
        <time>2019-08-18T09:19:29Z</time>
      </trkpt>
      <trkpt lat="47.85298" lon="6.66771">
        <ele>620</ele>
        <time>2019-08-18T09:19:35Z</time>
      </trkpt>
      <trkpt lat="47.85313" lon="6.66791">
        <ele>621</ele>
        <time>2019-08-18T09:19:40Z</time>
      </trkpt>
      <trkpt lat="47.85324" lon="6.66822">
        <ele>621</ele>
        <time>2019-08-18T09:19:46Z</time>
      </trkpt>
      <trkpt lat="47.85336" lon="6.66853">
        <ele>622</ele>
        <time>2019-08-18T09:19:52Z</time>
      </trkpt>
      <trkpt lat="47.8535" lon="6.66875">
        <ele>621</ele>
        <time>2019-08-18T09:19:57Z</time>
      </trkpt>
      <trkpt lat="47.85376" lon="6.66911">
        <ele>621</ele>
        <time>2019-08-18T09:20:07Z</time>
      </trkpt>
      <trkpt lat="47.8539" lon="6.66919">
        <ele>621</ele>
        <time>2019-08-18T09:20:12Z</time>
      </trkpt>
      <trkpt lat="47.85403" lon="6.66921">
        <ele>622</ele>
        <time>2019-08-18T09:20:18Z</time>
      </trkpt>
      <trkpt lat="47.85418" lon="6.66928">
        <ele>623</ele>
        <time>2019-08-18T09:20:23Z</time>
      </trkpt>
      <trkpt lat="47.85434" lon="6.66945">
        <ele>623</ele>
        <time>2019-08-18T09:20:29Z</time>
      </trkpt>
      <trkpt lat="47.85449" lon="6.66968">
        <ele>625</ele>
        <time>2019-08-18T09:20:34Z</time>
      </trkpt>
      <trkpt lat="47.85466" lon="6.66997">
        <ele>625</ele>
        <time>2019-08-18T09:20:40Z</time>
      </trkpt>
      <trkpt lat="47.85481" lon="6.67018">
        <ele>625</ele>
        <time>2019-08-18T09:20:45Z</time>
      </trkpt>
      <trkpt lat="47.85503" lon="6.67034">
        <ele>625</ele>
        <time>2019-08-18T09:20:51Z</time>
      </trkpt>
      <trkpt lat="47.85521" lon="6.67042">
        <ele>626</ele>
        <time>2019-08-18T09:20:56Z</time>
      </trkpt>
      <trkpt lat="47.8554" lon="6.67054">
        <ele>626</ele>
        <time>2019-08-18T09:21:01Z</time>
      </trkpt>
      <trkpt lat="47.85556" lon="6.6707">
        <ele>627</ele>
        <time>2019-08-18T09:21:06Z</time>
      </trkpt>
      <trkpt lat="47.85574" lon="6.67088">
        <ele>628</ele>
        <time>2019-08-18T09:21:11Z</time>
      </trkpt>
      <trkpt lat="47.85589" lon="6.67099">
        <ele>628</ele>
        <time>2019-08-18T09:21:16Z</time>
      </trkpt>
      <trkpt lat="47.85605" lon="6.67112">
        <ele>628</ele>
        <time>2019-08-18T09:21:21Z</time>
      </trkpt>
      <trkpt lat="47.85622" lon="6.67119">
        <ele>627</ele>
        <time>2019-08-18T09:21:26Z</time>
      </trkpt>
      <trkpt lat="47.85639" lon="6.67126">
        <ele>627</ele>
        <time>2019-08-18T09:21:31Z</time>
      </trkpt>
      <trkpt lat="47.85657" lon="6.67131">
        <ele>628</ele>
        <time>2019-08-18T09:21:36Z</time>
      </trkpt>
      <trkpt lat="47.85678" lon="6.67143">
        <ele>629</ele>
        <time>2019-08-18T09:21:41Z</time>
      </trkpt>
      <trkpt lat="47.85695" lon="6.67155">
        <ele>628</ele>
        <time>2019-08-18T09:21:46Z</time>
      </trkpt>
      <trkpt lat="47.8571" lon="6.67173">
        <ele>629</ele>
        <time>2019-08-18T09:21:51Z</time>
      </trkpt>
      <trkpt lat="47.85727" lon="6.67187">
        <ele>629</ele>
        <time>2019-08-18T09:21:56Z</time>
      </trkpt>
      <trkpt lat="47.85743" lon="6.67199">
        <ele>631</ele>
        <time>2019-08-18T09:22:01Z</time>
      </trkpt>
      <trkpt lat="47.85761" lon="6.67221">
        <ele>631</ele>
        <time>2019-08-18T09:22:07Z</time>
      </trkpt>
      <trkpt lat="47.85765" lon="6.6724">
        <ele>632</ele>
        <time>2019-08-18T09:22:12Z</time>
      </trkpt>
      <trkpt lat="47.85756" lon="6.67245">
        <ele>633</ele>
        <time>2019-08-18T09:22:17Z</time>
      </trkpt>
      <trkpt lat="47.85746" lon="6.67246">
        <ele>633</ele>
        <time>2019-08-18T09:22:22Z</time>
      </trkpt>
      <trkpt lat="47.85739" lon="6.67246">
        <ele>635</ele>
        <time>2019-08-18T09:22:27Z</time>
      </trkpt>
      <trkpt lat="47.85756" lon="6.67341">
        <ele>642</ele>
        <time>2019-08-18T09:23:19Z</time>
      </trkpt>
      <trkpt lat="47.85762" lon="6.67365">
        <ele>644</ele>
        <time>2019-08-18T09:23:24Z</time>
      </trkpt>
      <trkpt lat="47.85767" lon="6.67391">
        <ele>645</ele>
        <time>2019-08-18T09:23:29Z</time>
      </trkpt>
      <trkpt lat="47.85773" lon="6.67413">
        <ele>646</ele>
        <time>2019-08-18T09:23:34Z</time>
      </trkpt>
      <trkpt lat="47.85777" lon="6.67436">
        <ele>647</ele>
        <time>2019-08-18T09:23:39Z</time>
      </trkpt>
      <trkpt lat="47.85765" lon="6.67448">
        <ele>648</ele>
        <time>2019-08-18T09:23:44Z</time>
      </trkpt>
      <trkpt lat="47.85751" lon="6.67434">
        <ele>648</ele>
        <time>2019-08-18T09:23:49Z</time>
      </trkpt>
      <trkpt lat="47.85736" lon="6.6742">
        <ele>648</ele>
        <time>2019-08-18T09:23:54Z</time>
      </trkpt>
      <trkpt lat="47.8572" lon="6.67401">
        <ele>649</ele>
        <time>2019-08-18T09:23:59Z</time>
      </trkpt>
      <trkpt lat="47.8571" lon="6.67389">
        <ele>649</ele>
        <time>2019-08-18T09:24:04Z</time>
      </trkpt>
      <trkpt lat="47.85696" lon="6.67378">
        <ele>649</ele>
        <time>2019-08-18T09:24:09Z</time>
      </trkpt>
      <trkpt lat="47.85682" lon="6.67364">
        <ele>649</ele>
        <time>2019-08-18T09:24:14Z</time>
      </trkpt>
      <trkpt lat="47.85671" lon="6.67351">
        <ele>650</ele>
        <time>2019-08-18T09:24:19Z</time>
      </trkpt>
      <trkpt lat="47.85662" lon="6.67345">
        <ele>653</ele>
        <time>2019-08-18T09:24:24Z</time>
      </trkpt>
      <trkpt lat="47.85593" lon="6.67338">
        <ele>658</ele>
        <time>2019-08-18T09:25:01Z</time>
      </trkpt>
      <trkpt lat="47.8558" lon="6.67339">
        <ele>659</ele>
        <time>2019-08-18T09:25:06Z</time>
      </trkpt>
      <trkpt lat="47.85568" lon="6.67345">
        <ele>658</ele>
        <time>2019-08-18T09:25:11Z</time>
      </trkpt>
      <trkpt lat="47.85554" lon="6.67365">
        <ele>659</ele>
        <time>2019-08-18T09:25:16Z</time>
      </trkpt>
      <trkpt lat="47.85545" lon="6.67385">
        <ele>660</ele>
        <time>2019-08-18T09:25:21Z</time>
      </trkpt>
      <trkpt lat="47.85539" lon="6.67402">
        <ele>659</ele>
        <time>2019-08-18T09:25:26Z</time>
      </trkpt>
      <trkpt lat="47.85534" lon="6.67415">
        <ele>661</ele>
        <time>2019-08-18T09:25:31Z</time>
      </trkpt>
      <trkpt lat="47.8553" lon="6.67426">
        <ele>663</ele>
        <time>2019-08-18T09:25:36Z</time>
      </trkpt>
      <trkpt lat="47.85524" lon="6.67434">
        <ele>665</ele>
        <time>2019-08-18T09:25:41Z</time>
      </trkpt>
      <trkpt lat="47.85515" lon="6.67427">
        <ele>666</ele>
        <time>2019-08-18T09:25:46Z</time>
      </trkpt>
      <trkpt lat="47.85498" lon="6.67414">
        <ele>666</ele>
        <time>2019-08-18T09:25:51Z</time>
      </trkpt>
      <trkpt lat="47.85478" lon="6.67395">
        <ele>665</ele>
        <time>2019-08-18T09:25:56Z</time>
      </trkpt>
      <trkpt lat="47.85454" lon="6.67372">
        <ele>664</ele>
        <time>2019-08-18T09:26:01Z</time>
      </trkpt>
      <trkpt lat="47.85437" lon="6.6738">
        <ele>663</ele>
        <time>2019-08-18T09:26:06Z</time>
      </trkpt>
      <trkpt lat="47.85427" lon="6.67396">
        <ele>662</ele>
        <time>2019-08-18T09:26:11Z</time>
      </trkpt>
      <trkpt lat="47.85422" lon="6.67412">
        <ele>662</ele>
        <time>2019-08-18T09:26:16Z</time>
      </trkpt>
      <trkpt lat="47.85421" lon="6.67423">
        <ele>663</ele>
        <time>2019-08-18T09:26:21Z</time>
      </trkpt>
      <trkpt lat="47.85421" lon="6.67436">
        <ele>664</ele>
        <time>2019-08-18T09:26:26Z</time>
      </trkpt>
      <trkpt lat="47.85414" lon="6.67448">
        <ele>665</ele>
        <time>2019-08-18T09:26:31Z</time>
      </trkpt>
      <trkpt lat="47.85407" lon="6.67458">
        <ele>666</ele>
        <time>2019-08-18T09:26:36Z</time>
      </trkpt>
      <trkpt lat="47.85311" lon="6.67695">
        <ele>678</ele>
        <time>2019-08-18T09:28:29Z</time>
      </trkpt>
      <trkpt lat="47.85297" lon="6.67699">
        <ele>678</ele>
        <time>2019-08-18T09:28:34Z</time>
      </trkpt>
      <trkpt lat="47.85283" lon="6.67703">
        <ele>679</ele>
        <time>2019-08-18T09:28:39Z</time>
      </trkpt>
      <trkpt lat="47.85267" lon="6.67703">
        <ele>681</ele>
        <time>2019-08-18T09:28:44Z</time>
      </trkpt>
      <trkpt lat="47.85249" lon="6.67703">
        <ele>682</ele>
        <time>2019-08-18T09:28:49Z</time>
      </trkpt>
      <trkpt lat="47.85227" lon="6.67701">
        <ele>680</ele>
        <time>2019-08-18T09:28:54Z</time>
      </trkpt>
      <trkpt lat="47.85207" lon="6.67696">
        <ele>682</ele>
        <time>2019-08-18T09:28:59Z</time>
      </trkpt>
      <trkpt lat="47.85188" lon="6.67694">
        <ele>683</ele>
        <time>2019-08-18T09:29:04Z</time>
      </trkpt>
      <trkpt lat="47.85172" lon="6.67689">
        <ele>682</ele>
        <time>2019-08-18T09:29:09Z</time>
      </trkpt>
      <trkpt lat="47.85163" lon="6.67689">
        <ele>683</ele>
        <time>2019-08-18T09:29:14Z</time>
      </trkpt>
      <trkpt lat="47.85156" lon="6.67682">
        <ele>683</ele>
        <time>2019-08-18T09:29:19Z</time>
      </trkpt>
      <trkpt lat="47.85149" lon="6.67676">
        <ele>684</ele>
        <time>2019-08-18T09:29:24Z</time>
      </trkpt>
      <trkpt lat="47.85143" lon="6.67674">
        <ele>685</ele>
        <time>2019-08-18T09:29:29Z</time>
      </trkpt>
      <trkpt lat="47.85136" lon="6.67675">
        <ele>685</ele>
        <time>2019-08-18T09:29:34Z</time>
      </trkpt>
      <trkpt lat="47.8513" lon="6.67676">
        <ele>686</ele>
        <time>2019-08-18T09:29:39Z</time>
      </trkpt>
      <trkpt lat="47.85069" lon="6.6767">
        <ele>694</ele>
        <time>2019-08-18T09:30:25Z</time>
      </trkpt>
      <trkpt lat="47.8506" lon="6.67665">
        <ele>695</ele>
        <time>2019-08-18T09:30:30Z</time>
      </trkpt>
      <trkpt lat="47.85049" lon="6.67657">
        <ele>696</ele>
        <time>2019-08-18T09:30:35Z</time>
      </trkpt>
      <trkpt lat="47.85033" lon="6.67648">
        <ele>697</ele>
        <time>2019-08-18T09:30:40Z</time>
      </trkpt>
      <trkpt lat="47.8502" lon="6.67642">
        <ele>698</ele>
        <time>2019-08-18T09:30:45Z</time>
      </trkpt>
      <trkpt lat="47.85006" lon="6.67635">
        <ele>699</ele>
        <time>2019-08-18T09:30:50Z</time>
      </trkpt>
      <trkpt lat="47.84995" lon="6.6763">
        <ele>698</ele>
        <time>2019-08-18T09:30:55Z</time>
      </trkpt>
      <trkpt lat="47.84982" lon="6.67627">
        <ele>699</ele>
        <time>2019-08-18T09:31:00Z</time>
      </trkpt>
      <trkpt lat="47.84966" lon="6.67627">
        <ele>699</ele>
        <time>2019-08-18T09:31:05Z</time>
      </trkpt>
      <trkpt lat="47.8495" lon="6.67614">
        <ele>698</ele>
        <time>2019-08-18T09:31:10Z</time>
      </trkpt>
      <trkpt lat="47.84937" lon="6.67596">
        <ele>700</ele>
        <time>2019-08-18T09:31:15Z</time>
      </trkpt>
      <trkpt lat="47.84918" lon="6.67586">
        <ele>701</ele>
        <time>2019-08-18T09:31:20Z</time>
      </trkpt>
      <trkpt lat="47.84904" lon="6.67565">
        <ele>702</ele>
        <time>2019-08-18T09:31:25Z</time>
      </trkpt>
      <trkpt lat="47.84895" lon="6.67542">
        <ele>703</ele>
        <time>2019-08-18T09:31:30Z</time>
      </trkpt>
      <trkpt lat="47.84887" lon="6.67527">
        <ele>703</ele>
        <time>2019-08-18T09:31:35Z</time>
      </trkpt>
      <trkpt lat="47.84877" lon="6.67518">
        <ele>705</ele>
        <time>2019-08-18T09:31:40Z</time>
      </trkpt>
      <trkpt lat="47.84866" lon="6.67506">
        <ele>706</ele>
        <time>2019-08-18T09:31:47Z</time>
      </trkpt>
      <trkpt lat="47.84858" lon="6.67499">
        <ele>706</ele>
        <time>2019-08-18T09:31:52Z</time>
      </trkpt>
      <trkpt lat="47.84848" lon="6.67493">
        <ele>706</ele>
        <time>2019-08-18T09:31:59Z</time>
      </trkpt>
      <trkpt lat="47.84841" lon="6.6749">
        <ele>707</ele>
        <time>2019-08-18T09:32:04Z</time>
      </trkpt>
      <trkpt lat="47.84834" lon="6.67486">
        <ele>706</ele>
        <time>2019-08-18T09:32:09Z</time>
      </trkpt>
      <trkpt lat="47.84827" lon="6.67481">
        <ele>707</ele>
        <time>2019-08-18T09:32:14Z</time>
      </trkpt>
      <trkpt lat="47.8482" lon="6.67481">
        <ele>707</ele>
        <time>2019-08-18T09:32:19Z</time>
      </trkpt>
      <trkpt lat="47.84812" lon="6.67481">
        <ele>708</ele>
        <time>2019-08-18T09:32:24Z</time>
      </trkpt>
      <trkpt lat="47.84805" lon="6.67481">
        <ele>709</ele>
        <time>2019-08-18T09:32:29Z</time>
      </trkpt>
      <trkpt lat="47.84797" lon="6.67482">
        <ele>708</ele>
        <time>2019-08-18T09:32:34Z</time>
      </trkpt>
      <trkpt lat="47.8479" lon="6.67481">
        <ele>709</ele>
        <time>2019-08-18T09:32:39Z</time>
      </trkpt>
      <trkpt lat="47.84783" lon="6.6748">
        <ele>709</ele>
        <time>2019-08-18T09:32:44Z</time>
      </trkpt>
      <trkpt lat="47.84772" lon="6.67482">
        <ele>710</ele>
        <time>2019-08-18T09:32:50Z</time>
      </trkpt>
      <trkpt lat="47.84763" lon="6.67482">
        <ele>712</ele>
        <time>2019-08-18T09:32:55Z</time>
      </trkpt>
      <trkpt lat="47.84753" lon="6.67482">
        <ele>715</ele>
        <time>2019-08-18T09:33:00Z</time>
      </trkpt>
      <trkpt lat="47.84745" lon="6.67485">
        <ele>716</ele>
        <time>2019-08-18T09:33:05Z</time>
      </trkpt>
      <trkpt lat="47.84737" lon="6.67487">
        <ele>716</ele>
        <time>2019-08-18T09:33:10Z</time>
      </trkpt>
      <trkpt lat="47.84729" lon="6.6749">
        <ele>716</ele>
        <time>2019-08-18T09:33:15Z</time>
      </trkpt>
      <trkpt lat="47.84716" lon="6.67491">
        <ele>716</ele>
        <time>2019-08-18T09:33:20Z</time>
      </trkpt>
      <trkpt lat="47.84703" lon="6.67492">
        <ele>716</ele>
        <time>2019-08-18T09:33:25Z</time>
      </trkpt>
      <trkpt lat="47.84687" lon="6.67493">
        <ele>716</ele>
        <time>2019-08-18T09:33:30Z</time>
      </trkpt>
      <trkpt lat="47.84676" lon="6.67495">
        <ele>716</ele>
        <time>2019-08-18T09:33:35Z</time>
      </trkpt>
      <trkpt lat="47.8466" lon="6.675">
        <ele>717</ele>
        <time>2019-08-18T09:33:40Z</time>
      </trkpt>
      <trkpt lat="47.84646" lon="6.67506">
        <ele>716</ele>
        <time>2019-08-18T09:33:45Z</time>
      </trkpt>
      <trkpt lat="47.84631" lon="6.67515">
        <ele>716</ele>
        <time>2019-08-18T09:33:50Z</time>
      </trkpt>
      <trkpt lat="47.84616" lon="6.67531">
        <ele>716</ele>
        <time>2019-08-18T09:33:55Z</time>
      </trkpt>
      <trkpt lat="47.84601" lon="6.6755">
        <ele>715</ele>
        <time>2019-08-18T09:34:00Z</time>
      </trkpt>
      <trkpt lat="47.84589" lon="6.67576">
        <ele>714</ele>
        <time>2019-08-18T09:34:05Z</time>
      </trkpt>
      <trkpt lat="47.84562" lon="6.676">
        <ele>708</ele>
        <time>2019-08-18T09:34:10Z</time>
      </trkpt>
      <trkpt lat="47.84543" lon="6.67613">
        <ele>709</ele>
        <time>2019-08-18T09:34:15Z</time>
      </trkpt>
      <trkpt lat="47.84528" lon="6.67629">
        <ele>710</ele>
        <time>2019-08-18T09:34:20Z</time>
      </trkpt>
      <trkpt lat="47.84516" lon="6.67645">
        <ele>711</ele>
        <time>2019-08-18T09:34:25Z</time>
      </trkpt>
      <trkpt lat="47.84501" lon="6.67667">
        <ele>710</ele>
        <time>2019-08-18T09:34:30Z</time>
      </trkpt>
      <trkpt lat="47.84477" lon="6.67686">
        <ele>710</ele>
        <time>2019-08-18T09:34:35Z</time>
      </trkpt>
      <trkpt lat="47.84451" lon="6.6771">
        <ele>709</ele>
        <time>2019-08-18T09:34:40Z</time>
      </trkpt>
      <trkpt lat="47.84431" lon="6.67742">
        <ele>710</ele>
        <time>2019-08-18T09:34:45Z</time>
      </trkpt>
      <trkpt lat="47.84409" lon="6.67744">
        <ele>709</ele>
        <time>2019-08-18T09:34:50Z</time>
      </trkpt>
      <trkpt lat="47.84384" lon="6.67734">
        <ele>706</ele>
        <time>2019-08-18T09:34:55Z</time>
      </trkpt>
      <trkpt lat="47.84374" lon="6.67734">
        <ele>706</ele>
        <time>2019-08-18T09:35:00Z</time>
      </trkpt>
      <trkpt lat="47.84362" lon="6.67735">
        <ele>707</ele>
        <time>2019-08-18T09:35:05Z</time>
      </trkpt>
      <trkpt lat="47.84352" lon="6.67734">
        <ele>706</ele>
        <time>2019-08-18T09:35:10Z</time>
      </trkpt>
      <trkpt lat="47.84378" lon="6.6769">
        <ele>710</ele>
        <time>2019-08-18T09:37:02Z</time>
      </trkpt>
      <trkpt lat="47.8438" lon="6.67653">
        <ele>711</ele>
        <time>2019-08-18T09:37:10Z</time>
      </trkpt>
      <trkpt lat="47.84387" lon="6.6763">
        <ele>714</ele>
        <time>2019-08-18T09:37:15Z</time>
      </trkpt>
      <trkpt lat="47.84396" lon="6.676">
        <ele>716</ele>
        <time>2019-08-18T09:37:20Z</time>
      </trkpt>
      <trkpt lat="47.84416" lon="6.67574">
        <ele>714</ele>
        <time>2019-08-18T09:37:25Z</time>
      </trkpt>
      <trkpt lat="47.84431" lon="6.67554">
        <ele>711</ele>
        <time>2019-08-18T09:37:30Z</time>
      </trkpt>
      <trkpt lat="47.84436" lon="6.6754">
        <ele>711</ele>
        <time>2019-08-18T09:37:35Z</time>
      </trkpt>
      <trkpt lat="47.8443" lon="6.67524">
        <ele>712</ele>
        <time>2019-08-18T09:37:40Z</time>
      </trkpt>
      <trkpt lat="47.8442" lon="6.67507">
        <ele>712</ele>
        <time>2019-08-18T09:37:45Z</time>
      </trkpt>
      <trkpt lat="47.84415" lon="6.67485">
        <ele>711</ele>
        <time>2019-08-18T09:37:50Z</time>
      </trkpt>
      <trkpt lat="47.84414" lon="6.67458">
        <ele>709</ele>
        <time>2019-08-18T09:37:55Z</time>
      </trkpt>
      <trkpt lat="47.84433" lon="6.67427">
        <ele>707</ele>
        <time>2019-08-18T09:38:00Z</time>
      </trkpt>
      <trkpt lat="47.84453" lon="6.67408">
        <ele>706</ele>
        <time>2019-08-18T09:38:05Z</time>
      </trkpt>
      <trkpt lat="47.84465" lon="6.67381">
        <ele>704</ele>
        <time>2019-08-18T09:38:10Z</time>
      </trkpt>
      <trkpt lat="47.84466" lon="6.67345">
        <ele>704</ele>
        <time>2019-08-18T09:38:18Z</time>
      </trkpt>
      <trkpt lat="47.84449" lon="6.6732">
        <ele>702</ele>
        <time>2019-08-18T09:38:23Z</time>
      </trkpt>
      <trkpt lat="47.84436" lon="6.67287">
        <ele>701</ele>
        <time>2019-08-18T09:38:31Z</time>
      </trkpt>
      <trkpt lat="47.84429" lon="6.67269">
        <ele>701</ele>
        <time>2019-08-18T09:38:36Z</time>
      </trkpt>
      <trkpt lat="47.84421" lon="6.67245">
        <ele>701</ele>
        <time>2019-08-18T09:38:41Z</time>
      </trkpt>
      <trkpt lat="47.84409" lon="6.67219">
        <ele>701</ele>
        <time>2019-08-18T09:38:46Z</time>
      </trkpt>
      <trkpt lat="47.84396" lon="6.67196">
        <ele>702</ele>
        <time>2019-08-18T09:38:51Z</time>
      </trkpt>
      <trkpt lat="47.84382" lon="6.67174">
        <ele>702</ele>
        <time>2019-08-18T09:38:56Z</time>
      </trkpt>
      <trkpt lat="47.84378" lon="6.67138">
        <ele>702</ele>
        <time>2019-08-18T09:39:01Z</time>
      </trkpt>
      <trkpt lat="47.84382" lon="6.67104">
        <ele>701</ele>
        <time>2019-08-18T09:39:06Z</time>
      </trkpt>
      <trkpt lat="47.84379" lon="6.67076">
        <ele>700</ele>
        <time>2019-08-18T09:39:11Z</time>
      </trkpt>
      <trkpt lat="47.84373" lon="6.67054">
        <ele>700</ele>
        <time>2019-08-18T09:39:16Z</time>
      </trkpt>
      <trkpt lat="47.84377" lon="6.67028">
        <ele>699</ele>
        <time>2019-08-18T09:39:21Z</time>
      </trkpt>
      <trkpt lat="47.84386" lon="6.66996">
        <ele>697</ele>
        <time>2019-08-18T09:39:26Z</time>
      </trkpt>
      <trkpt lat="47.84397" lon="6.66964">
        <ele>695</ele>
        <time>2019-08-18T09:39:31Z</time>
      </trkpt>
      <trkpt lat="47.84401" lon="6.66869">
        <ele>691</ele>
        <time>2019-08-18T09:40:32Z</time>
      </trkpt>
      <trkpt lat="47.844" lon="6.66837">
        <ele>690</ele>
        <time>2019-08-18T09:40:37Z</time>
      </trkpt>
      <trkpt lat="47.84402" lon="6.66805">
        <ele>689</ele>
        <time>2019-08-18T09:40:42Z</time>
      </trkpt>
      <trkpt lat="47.84402" lon="6.66769">
        <ele>689</ele>
        <time>2019-08-18T09:40:47Z</time>
      </trkpt>
      <trkpt lat="47.84399" lon="6.66728">
        <ele>688</ele>
        <time>2019-08-18T09:40:52Z</time>
      </trkpt>
      <trkpt lat="47.84397" lon="6.66681">
        <ele>689</ele>
        <time>2019-08-18T09:40:57Z</time>
      </trkpt>
      <trkpt lat="47.84398" lon="6.66638">
        <ele>689</ele>
        <time>2019-08-18T09:41:02Z</time>
      </trkpt>
      <trkpt lat="47.84395" lon="6.66599">
        <ele>688</ele>
        <time>2019-08-18T09:41:07Z</time>
      </trkpt>
      <trkpt lat="47.84386" lon="6.66559">
        <ele>688</ele>
        <time>2019-08-18T09:41:12Z</time>
      </trkpt>
      <trkpt lat="47.84368" lon="6.66512">
        <ele>687</ele>
        <time>2019-08-18T09:41:17Z</time>
      </trkpt>
      <trkpt lat="47.84354" lon="6.66464">
        <ele>686</ele>
        <time>2019-08-18T09:41:22Z</time>
      </trkpt>
      <trkpt lat="47.84345" lon="6.66436">
        <ele>685</ele>
        <time>2019-08-18T09:41:27Z</time>
      </trkpt>
      <trkpt lat="47.84341" lon="6.66438">
        <ele>681</ele>
        <time>2019-08-18T09:41:37Z</time>
      </trkpt>
      <trkpt lat="47.84331" lon="6.6646">
        <ele>680</ele>
        <time>2019-08-18T09:41:42Z</time>
      </trkpt>
      <trkpt lat="47.84315" lon="6.66475">
        <ele>679</ele>
        <time>2019-08-18T09:41:47Z</time>
      </trkpt>
      <trkpt lat="47.84294" lon="6.66478">
        <ele>677</ele>
        <time>2019-08-18T09:41:52Z</time>
      </trkpt>
      <trkpt lat="47.8428" lon="6.66483">
        <ele>677</ele>
        <time>2019-08-18T09:41:57Z</time>
      </trkpt>
      <trkpt lat="47.84266" lon="6.6649">
        <ele>676</ele>
        <time>2019-08-18T09:42:02Z</time>
      </trkpt>
      <trkpt lat="47.8425" lon="6.66494">
        <ele>677</ele>
        <time>2019-08-18T09:42:07Z</time>
      </trkpt>
      <trkpt lat="47.84236" lon="6.66499">
        <ele>676</ele>
        <time>2019-08-18T09:42:12Z</time>
      </trkpt>
      <trkpt lat="47.84216" lon="6.66527">
        <ele>677</ele>
        <time>2019-08-18T09:42:17Z</time>
      </trkpt>
      <trkpt lat="47.84195" lon="6.66535">
        <ele>676</ele>
        <time>2019-08-18T09:42:22Z</time>
      </trkpt>
      <trkpt lat="47.84176" lon="6.66544">
        <ele>674</ele>
        <time>2019-08-18T09:42:27Z</time>
      </trkpt>
      <trkpt lat="47.84158" lon="6.66537">
        <ele>674</ele>
        <time>2019-08-18T09:42:32Z</time>
      </trkpt>
      <trkpt lat="47.84159" lon="6.6651">
        <ele>674</ele>
        <time>2019-08-18T09:42:37Z</time>
      </trkpt>
      <trkpt lat="47.84157" lon="6.66466">
        <ele>674</ele>
        <time>2019-08-18T09:42:44Z</time>
      </trkpt>
      <trkpt lat="47.84156" lon="6.6642">
        <ele>671</ele>
        <time>2019-08-18T09:42:50Z</time>
      </trkpt>
      <trkpt lat="47.84154" lon="6.66389">
        <ele>670</ele>
        <time>2019-08-18T09:42:56Z</time>
      </trkpt>
      <trkpt lat="47.84146" lon="6.66332">
        <ele>669</ele>
        <time>2019-08-18T09:43:02Z</time>
      </trkpt>
      <trkpt lat="47.84139" lon="6.663">
        <ele>668</ele>
        <time>2019-08-18T09:43:09Z</time>
      </trkpt>
      <trkpt lat="47.84117" lon="6.66284">
        <ele>667</ele>
        <time>2019-08-18T09:43:15Z</time>
      </trkpt>
      <trkpt lat="47.84097" lon="6.66275">
        <ele>668</ele>
        <time>2019-08-18T09:43:20Z</time>
      </trkpt>
      <trkpt lat="47.84075" lon="6.66287">
        <ele>668</ele>
        <time>2019-08-18T09:43:25Z</time>
      </trkpt>
      <trkpt lat="47.84044" lon="6.6629">
        <ele>669</ele>
        <time>2019-08-18T09:43:30Z</time>
      </trkpt>
      <trkpt lat="47.84015" lon="6.66304">
        <ele>669</ele>
        <time>2019-08-18T09:43:36Z</time>
      </trkpt>
      <trkpt lat="47.83992" lon="6.66314">
        <ele>670</ele>
        <time>2019-08-18T09:43:42Z</time>
      </trkpt>
      <trkpt lat="47.83976" lon="6.66333">
        <ele>671</ele>
        <time>2019-08-18T09:43:48Z</time>
      </trkpt>
      <trkpt lat="47.83954" lon="6.6634">
        <ele>671</ele>
        <time>2019-08-18T09:43:54Z</time>
      </trkpt>
      <trkpt lat="47.83938" lon="6.6633">
        <ele>673</ele>
        <time>2019-08-18T09:44:00Z</time>
      </trkpt>
      <trkpt lat="47.83928" lon="6.66314">
        <ele>674</ele>
        <time>2019-08-18T09:44:05Z</time>
      </trkpt>
      <trkpt lat="47.83915" lon="6.663">
        <ele>675</ele>
        <time>2019-08-18T09:44:11Z</time>
      </trkpt>
      <trkpt lat="47.83904" lon="6.66306">
        <ele>676</ele>
        <time>2019-08-18T09:44:16Z</time>
      </trkpt>
      <trkpt lat="47.83896" lon="6.66324">
        <ele>677</ele>
        <time>2019-08-18T09:44:22Z</time>
      </trkpt>
      <trkpt lat="47.83892" lon="6.66342">
        <ele>678</ele>
        <time>2019-08-18T09:44:27Z</time>
      </trkpt>
      <trkpt lat="47.83894" lon="6.66361">
        <ele>679</ele>
        <time>2019-08-18T09:44:32Z</time>
      </trkpt>
      <trkpt lat="47.83901" lon="6.66386">
        <ele>681</ele>
        <time>2019-08-18T09:44:38Z</time>
      </trkpt>
      <trkpt lat="47.83908" lon="6.6641">
        <ele>681</ele>
        <time>2019-08-18T09:44:43Z</time>
      </trkpt>
      <trkpt lat="47.83917" lon="6.66444">
        <ele>683</ele>
        <time>2019-08-18T09:44:49Z</time>
      </trkpt>
      <trkpt lat="47.83926" lon="6.6647">
        <ele>684</ele>
        <time>2019-08-18T09:44:54Z</time>
      </trkpt>
      <trkpt lat="47.8394" lon="6.665">
        <ele>684</ele>
        <time>2019-08-18T09:44:59Z</time>
      </trkpt>
      <trkpt lat="47.83951" lon="6.66537">
        <ele>684</ele>
        <time>2019-08-18T09:45:05Z</time>
      </trkpt>
      <trkpt lat="47.83939" lon="6.66562">
        <ele>686</ele>
        <time>2019-08-18T09:45:10Z</time>
      </trkpt>
      <trkpt lat="47.83918" lon="6.66573">
        <ele>688</ele>
        <time>2019-08-18T09:45:16Z</time>
      </trkpt>
      <trkpt lat="47.83901" lon="6.6658">
        <ele>688</ele>
        <time>2019-08-18T09:45:21Z</time>
      </trkpt>
      <trkpt lat="47.8389" lon="6.66596">
        <ele>688</ele>
        <time>2019-08-18T09:45:26Z</time>
      </trkpt>
      <trkpt lat="47.83882" lon="6.6662">
        <ele>688</ele>
        <time>2019-08-18T09:45:32Z</time>
      </trkpt>
      <trkpt lat="47.83863" lon="6.66652">
        <ele>688</ele>
        <time>2019-08-18T09:45:38Z</time>
      </trkpt>
      <trkpt lat="47.83847" lon="6.66677">
        <ele>689</ele>
        <time>2019-08-18T09:45:43Z</time>
      </trkpt>
      <trkpt lat="47.83833" lon="6.66697">
        <ele>689</ele>
        <time>2019-08-18T09:45:49Z</time>
      </trkpt>
      <trkpt lat="47.83829" lon="6.66702">
        <ele>690</ele>
        <time>2019-08-18T09:45:54Z</time>
      </trkpt>
      <trkpt lat="47.83827" lon="6.66701">
        <ele>690</ele>
        <time>2019-08-18T09:45:56Z</time>
      </trkpt>
    </trkseg>
  </trk>
</gpx>